[[{"header":{"parameterUnit":"m.s-1","parameterCategory":1,"la1":30.6,"la2":28.766,"lo1":-90.7593,"lo2":-88.6598,"dx":0.0162,"dy":0.0183,"nx":116,"ny":114,"refTime":"2022-12-25T06:00:00:Z","depth":0,"parameterNumber":2,"parameterNumberName":"U-component_of_WINDS"},"data":[0.0,0.0,0.0,0.0,0.0,0.0,0.0,0.0,0.0,0.0,0.0,0.0,0.0,0.0,0.0,0.0,0.0,0.0,0.0,0.0,0.0,0.0,0.0,0.0,0.0,0.0,0.0,0.0,0.0,0.0,0.0,0.0,0.0,0.0,0.0,0.0,0.0,0.0,0.0,0.0,0.0,0.0,0.0,0.0,0.0,0.0,0.0,0.0,0.0,0.0,0.0,0.0,0.0,0.0,0.0,0.0,0.0,0.0,0.0,0.0,0.0,0.0,0.0,0.0,0.0,0.0,0.0,0.0,0.0,0.0,0.0,0.0,0.0,0.0,0.0,0.0,0.0,0.0,0.0,0.0,0.0,0.0,0.0,0.0,0.0,0.0,0.0,0.0,0.0,0.0,0.0,0.0,0.0,0.0,0.0,0.0,0.0,0.0,0.0,0.0,0.0,0.0,0.0,0.0,0.0,0.0,0.0,0.0,0.0,0.0,0.0,0.0,0.0,0.0,0.0,0.0,0.0,0.0,0.0,0.0,0.0,0.0,0.0,0.0,0.0,0.0,0.0,0.0,0.0,0.0,0.0,0.0,0.0,0.0,0.0,0.0,0.0,0.0,0.0,0.0,0.0,0.0,0.0,0.0,0.0,0.0,0.0,0.0,0.0,0.0,0.0,0.0,0.0,0.0,0.0,0.0,0.0,0.0,0.0,0.0,0.0,0.0,0.0,0.0,0.0,0.0,0.0,0.0,0.0,0.0,0.0,0.0,0.0,0.0,0.0,0.0,0.0,0.0,0.0,0.0,0.0,0.0,0.0,0.0,0.0,0.0,0.0,0.0,0.0,0.0,0.0,0.0,0.0,0.0,0.0,0.0,0.0,0.0,0.0,0.0,0.0,0.0,0.0,0.0,0.0,0.0,0.0,0.0,0.0,0.0,0.0,0.0,0.0,0.0,0.0,0.0,0.0,0.0,0.0,0.0,0.0,0.0,0.0,0.0,0.0,0.0,0.0,0.0,0.0,0.0,0.0,0.0,0.0,0.0,0.0,0.0,0.0,0.0,0.0,0.0,0.0,0.0,0.0,0.0,0.0,0.0,0.0,0.0,0.0,0.0,0.0,0.0,0.0,0.0,0.0,0.0,0.0,0.0,0.0,0.0,0.0,0.0,0.0,0.0,0.0,0.0,0.0,0.0,0.0,0.0,0.0,0.0,0.0,0.0,0.0,0.0,0.0,0.0,0.0,0.0,0.0,0.0,0.0,0.0,0.0,0.0,0.0,0.0,0.0,0.0,0.0,0.0,0.0,0.0,0.0,0.0,0.0,0.0,0.0,0.0,0.0,0.0,0.0,0.0,0.0,0.0,0.0,0.0,0.0,0.0,0.0,0.0,0.0,0.0,0.0,0.0,0.0,0.0,0.0,0.0,0.0,0.0,0.0,0.0,0.0,0.0,0.0,0.0,0.0,0.0,0.0,0.0,0.0,0.0,0.0,0.0,0.0,0.0,0.0,0.0,0.0,0.0,0.0,0.0,0.0,0.0,0.0,0.0,0.0,0.0,0.0,0.0,0.0,0.0,0.0,0.0,0.0,0.0,0.0,0.0,0.0,0.0,0.0,0.0,0.0,0.0,0.0,0.0,0.0,0.0,0.0,0.0,0.0,0.0,0.0,0.0,0.0,0.0,0.0,0.0,0.0,0.0,0.0,0.0,0.0,0.0,0.0,0.0,0.0,0.0,0.0,0.0,0.0,0.0,0.0,0.0,0.0,0.0,0.0,0.0,0.0,0.0,0.0,0.0,0.0,0.0,0.0,0.0,0.0,0.0,0.0,0.0,0.0,0.0,0.0,0.0,0.0,0.0,0.0,0.0,0.0,0.0,0.0,0.0,0.0,0.0,0.0,0.0,0.0,0.0,0.0,0.0,0.0,0.0,0.0,0.0,0.0,0.0,0.0,0.0,0.0,0.0,0.0,0.0,0.0,0.0,0.0,0.0,0.0,0.0,0.0,0.0,0.0,0.0,0.0,0.0,0.0,0.0,0.0,0.0,0.0,0.0,0.0,0.0,0.0,0.0,0.0,0.0,0.0,0.0,0.0,0.0,0.0,0.0,0.0,0.0,0.0,0.0,0.0,0.0,0.0,0.0,0.0,0.0,0.0,0.0,0.0,0.0,0.0,0.0,0.0,0.0,0.0,0.0,0.0,0.0,0.0,0.0,0.0,0.0,0.0,0.0,0.0,0.0,0.0,0.0,0.0,0.0,0.0,0.0,0.0,0.0,0.0,0.0,0.0,0.0,0.0,0.0,0.0,0.0,0.0,0.0,0.0,0.0,0.0,0.0,0.0,0.0,0.0,0.0,0.0,0.0,0.0,0.0,0.0,0.0,0.0,0.0,0.0,0.0,0.0,0.0,0.0,0.0,0.0,0.0,0.0,0.0,0.0,0.0,0.0,0.0,0.0,0.0,0.0,0.0,0.0,0.0,0.0,0.0,0.0,0.0,0.0,0.0,0.0,0.0,0.0,0.0,0.0,0.0,0.0,0.0,0.0,0.0,0.0,0.0,0.0,0.0,0.0,0.0,0.0,0.0,0.0,0.0,0.0,0.0,0.0,0.0,0.0,0.0,0.0,0.0,0.0,0.0,0.0,0.0,0.0,0.0,0.0,0.0,0.0,0.0,0.0,0.0,0.0,0.0,0.0,0.0,0.0,0.0,0.0,0.0,0.0,0.0,0.0,0.0,0.0,0.0,0.0,0.0,0.0,0.0,0.0,0.0,0.0,0.0,0.0,0.0,0.0,0.0,0.0,0.0,0.0,0.0,0.0,0.0,0.0,0.0,0.0,0.0,0.0,0.0,0.0,0.0,0.0,0.0,0.0,0.0,0.0,0.0,0.0,0.0,0.0,0.0,0.0,0.0,0.0,0.0,0.0,0.0,0.0,0.0,0.0,0.0,0.0,0.0,0.0,0.0,0.0,0.0,0.0,0.0,0.0,0.0,0.0,0.0,0.0,0.0,0.0,0.0,0.0,0.0,0.0,0.0,0.0,0.0,0.0,0.0,0.0,0.0,0.0,0.0,0.0,0.0,0.0,0.0,0.0,0.0,0.0,0.0,0.0,0.0,0.0,0.0,0.0,0.0,0.0,0.0,0.0,0.0,0.0,0.0,0.0,0.0,0.0,0.0,0.0,0.0,0.0,0.0,0.0,0.0,0.0,0.0,0.0,0.0,0.0,0.0,0.0,0.0,0.0,0.0,0.0,0.0,0.0,0.0,0.0,0.0,0.0,0.0,0.0,0.0,0.0,0.0,0.0,0.0,0.0,0.0,0.0,0.0,0.0,0.0,0.0,0.0,0.0,0.0,0.0,0.0,0.0,0.0,0.0,0.0,0.0,0.0,0.0,0.0,0.0,0.0,0.0,0.0,0.0,0.0,0.0,0.0,0.0,0.0,0.0,0.0,0.0,0.0,0.0,0.0,0.0,0.0,0.0,0.0,0.0,0.0,0.0,0.0,0.0,0.0,0.0,0.0,0.0,0.0,0.0,0.0,0.0,0.0,0.0,0.0,0.0,0.0,0.0,0.0,0.0,0.0,0.0,0.0,0.0,0.0,0.0,0.0,0.0,0.0,0.0,0.0,0.0,0.0,0.0,0.0,0.0,0.0,0.0,0.0,0.0,0.0,0.0,0.0,0.0,0.0,0.0,0.0,0.0,0.0,0.0,0.0,0.0,0.0,0.0,0.0,0.0,0.0,0.0,0.0,0.0,0.0,0.0,0.0,0.0,0.0,0.0,0.0,0.0,0.0,0.0,0.0,0.0,0.0,0.0,0.0,0.0,0.0,0.0,0.0,0.0,0.0,0.0,0.0,0.0,0.0,0.0,0.0,0.0,0.0,0.0,0.0,0.0,0.0,0.0,0.0,0.0,0.0,0.0,0.0,0.0,0.0,0.0,0.0,0.0,0.0,0.0,0.0,0.0,0.0,0.0,0.0,0.0,0.0,0.0,0.0,0.0,0.0,0.0,0.0,0.0,0.0,0.0,0.0,0.0,0.0,0.0,0.0,0.0,0.0,0.0,0.0,0.0,0.0,0.0,0.0,0.0,0.0,0.0,0.0,0.0,0.0,0.0,0.0,0.0,0.0,0.0,0.0,0.0,0.0,0.0,0.0,0.0,0.0,0.0,0.0,0.0,0.0,0.0,0.0,0.0,0.0,0.0,0.0,0.0,0.0,0.0,0.0,0.0,0.0,0.0,0.0,0.0,0.0,0.0,0.0,0.0,0.0,0.0,0.0,0.0,0.0,0.0,0.0,0.0,0.0,0.0,0.0,0.0,0.0,0.0,0.0,0.0,0.0,0.0,0.0,0.0,0.0,0.0,0.0,0.0,0.0,0.0,0.0,0.0,0.0,0.0,0.0,0.0,0.0,0.0,0.0,0.0,0.0,0.0,0.0,0.0,0.0,0.0,0.0,0.0,0.0,0.0,0.0,0.0,0.0,0.0,0.0,0.0,0.0,0.0,0.0,0.0,0.0,0.0,0.0,0.0,0.0,0.0,0.0,0.0,0.0,0.0,0.0,0.0,0.0,0.0,0.0,0.0,0.0,0.0,0.0,0.0,0.0,0.0,0.0,0.0,0.0,0.0,0.0,0.0,0.0,0.0,0.0,0.0,0.0,0.0,0.0,0.0,0.0,0.0,0.0,0.0,0.0,0.0,0.0,0.0,0.0,0.0,0.0,0.0,0.0,0.0,0.0,0.0,0.0,0.0,0.0,0.0,0.0,0.0,0.0,0.0,0.0,0.0,0.0,0.0,0.0,0.0,0.0,0.0,0.0,0.0,0.0,0.0,0.0,0.0,0.0,0.0,0.0,0.0,0.0,0.0,0.0,0.0,0.0,0.0,0.0,0.0,0.0,0.0,0.0,0.0,0.0,0.0,0.0,0.0,0.0,0.0,0.0,0.0,0.0,0.0,0.0,0.0,0.0,0.0,0.0,0.0,0.0,0.0,0.0,0.0,0.0,0.0,0.0,0.0,0.0,0.0,0.0,0.0,0.0,0.0,0.0,0.0,0.0,0.0,0.0,0.0,0.0,0.0,0.0,0.0,0.0,0.0,0.0,0.0,0.0,0.0,0.0,0.0,0.0,0.0,0.0,0.0,0.0,0.0,0.0,0.0,0.0,0.0,0.0,0.0,0.0,0.0,0.0,0.0,0.0,0.0,0.0,0.0,0.0,0.0,0.0,0.0,0.0,0.0,0.0,0.0,0.0,0.0,0.0,0.0,0.0,0.0,0.0,0.0,0.0,0.0,0.0,0.0,0.0,0.0,0.0,0.0,0.0,0.0,0.0,0.0,0.0,0.0,0.0,0.0,0.0,0.0,0.0,0.0,0.0,0.0,0.0,0.0,0.0,0.0,0.0,0.0,0.0,0.0,0.0,0.0,0.0,0.0,0.0,0.0,0.0,0.0,0.0,0.0,0.0,0.0,0.0,0.0,0.0,0.0,0.0,0.0,0.0,0.0,0.0,0.0,0.0,0.0,0.0,0.0,0.0,0.0,0.0,0.0,0.0,0.0,0.0,0.0,0.0,0.0,0.0,0.0,0.0,0.0,0.0,0.0,0.0,0.0,0.0,0.0,0.0,0.0,0.0,0.0,0.0,0.0,0.0,0.0,0.0,0.0,0.0,0.0,0.0,0.0,0.0,0.0,0.0,0.0,0.0,0.0,0.0,0.0,0.0,0.0,0.0,0.0,0.0,0.0,0.0,0.0,0.0,0.0,0.0,0.0,0.0,0.0,0.0,0.0,0.0,0.0,0.0,0.0,0.0,0.0,0.0,0.0,0.0,0.0,0.0,0.0,0.0,0.0,0.0,0.0,0.0,0.0,0.0,0.0,0.0,0.0,0.0,0.0,0.0,0.0,0.0,0.0,0.0,0.0,0.0,0.0,0.0,0.0,0.0,0.0,0.0,0.0,0.0,0.0,0.0,0.0,0.0,0.0,0.0,0.0,0.0,0.0,0.0,0.0,0.0,0.0,0.0,0.0,0.0,0.0,0.0,0.0,0.0,0.0,0.0,0.0,0.0,0.0,0.0,0.0,0.0,0.0,0.0,0.0,0.0,0.0,0.0,-3.5296,0.0,0.0,0.0,0.0,0.0,0.0,0.0,0.0,0.0,0.0,0.0,0.0,0.0,0.0,0.0,0.0,0.0,0.0,0.0,0.0,0.0,0.0,0.0,0.0,-1.749,-1.789,-1.789,-1.7592,0.0,0.0,0.0,0.0,0.0,0.0,0.0,0.0,0.0,-1.9769,-2.1597,-2.2699,-2.4594,-2.7165,-2.5929,-2.4391,-2.2617,0.0,0.0,0.0,0.0,0.0,0.0,0.0,0.0,0.0,0.0,0.0,0.0,0.0,0.0,0.0,0.0,0.0,0.0,0.0,0.0,0.0,0.0,0.0,0.0,0.0,0.0,0.0,0.0,0.0,0.0,0.0,0.0,0.0,0.0,0.0,0.0,0.0,0.0,0.0,0.0,0.0,0.0,0.0,0.0,0.0,0.0,0.0,0.0,0.0,0.0,0.0,0.0,0.0,0.0,0.0,0.0,0.0,0.0,0.0,0.0,0.0,0.0,0.0,0.0,0.0,0.0,0.0,0.0,0.0,0.0,0.0,-3.569,0.0,0.0,0.0,0.0,0.0,0.0,0.0,0.0,0.0,0.0,0.0,0.0,0.0,0.0,0.0,0.0,0.0,0.0,0.0,0.0,0.0,-1.8289,-1.8812,-1.9762,-2.0476,-2.0614,-1.9866,-1.9167,-1.8606,-1.7907,0.0,0.0,0.0,0.0,0.0,-2.0919,-2.2815,-2.5286,-2.7283,-2.9364,-3.1475,-3.2408,-3.0886,0.0,0.0,0.0,0.0,0.0,0.0,0.0,0.0,0.0,0.0,0.0,0.0,0.0,0.0,0.0,0.0,0.0,0.0,0.0,0.0,0.0,0.0,0.0,0.0,0.0,0.0,0.0,0.0,0.0,0.0,0.0,0.0,0.0,0.0,0.0,0.0,0.0,0.0,0.0,0.0,0.0,0.0,0.0,0.0,0.0,0.0,0.0,0.0,0.0,0.0,0.0,0.0,0.0,0.0,0.0,0.0,0.0,0.0,0.0,0.0,0.0,0.0,0.0,0.0,0.0,-4.0146,-4.0798,-4.0358,-4.1001,-4.1271,-4.1196,-3.9851,-3.9309,-3.9242,-3.7516,0.0,0.0,0.0,0.0,0.0,0.0,0.0,0.0,0.0,0.0,0.0,0.0,0.0,0.0,0.0,0.0,0.0,0.0,0.0,-1.9714,-2.1321,-2.0825,-2.0683,-2.1386,-2.0499,-2.0425,-2.1637,-2.1021,0.0,0.0,0.0,0.0,-2.2801,-2.3004,-2.4846,-2.84,0.0,-3.5261,-3.684,-3.5701,-3.4856,-3.4112,-3.0528,0.0,0.0,0.0,0.0,0.0,0.0,0.0,0.0,0.0,0.0,0.0,0.0,0.0,0.0,0.0,0.0,0.0,0.0,0.0,0.0,0.0,0.0,0.0,0.0,0.0,0.0,0.0,0.0,0.0,0.0,0.0,0.0,0.0,0.0,0.0,0.0,0.0,0.0,0.0,0.0,0.0,0.0,0.0,-3.0345,-3.1853,0.0,0.0,0.0,0.0,0.0,0.0,0.0,0.0,0.0,0.0,0.0,0.0,0.0,-3.8464,-4.029,-4.1339,-4.2448,-4.3599,-4.4519,-4.5263,-4.5771,-4.5872,-4.5906,-4.5872,-4.5026,0.0,-4.0933,-4.1271,0.0,0.0,0.0,0.0,0.0,0.0,0.0,0.0,0.0,0.0,0.0,0.0,0.0,0.0,0.0,0.0,0.0,0.0,0.0,0.0,0.0,-2.3788,-2.448,-2.5222,-2.5685,-2.5487,-2.4487,-2.455,0.0,0.0,-2.3844,-2.4496,-2.5845,-2.6319,-2.8807,-3.3376,-3.6569,-3.8464,-3.9116,-3.8845,-3.8768,-3.8642,-3.6637,-3.3626,-2.9987,-2.8669,0.0,0.0,0.0,0.0,0.0,0.0,0.0,0.0,0.0,0.0,0.0,0.0,0.0,0.0,0.0,0.0,0.0,0.0,0.0,0.0,0.0,0.0,0.0,0.0,0.0,0.0,0.0,0.0,0.0,0.0,0.0,0.0,0.0,0.0,0.0,0.0,0.0,0.0,0.0,-2.9837,-3.1562,-3.3897,-3.3795,-3.3884,0.0,0.0,0.0,0.0,0.0,0.0,0.0,0.0,0.0,-4.0764,-4.0933,-4.188,-4.3707,-4.4451,-4.4959,-4.5229,-4.5974,-4.6481,-4.6786,-4.6786,-4.6786,-4.6786,-4.6921,-4.621,-4.4863,-4.3978,-4.32,-4.2523,0.0,0.0,0.0,0.0,-4.0502,-4.0518,0.0,0.0,0.0,0.0,0.0,0.0,0.0,0.0,0.0,0.0,0.0,0.0,-2.4989,-2.678,-2.816,-2.8991,-2.997,-2.9833,-2.8081,-2.8183,0.0,0.0,-2.6721,-2.7279,-2.8653,-3.0378,-3.3478,-3.7946,-4.035,-4.1711,-4.2091,-4.2286,-4.2455,-4.2591,-4.1441,-3.7753,-3.2341,-3.1968,-3.0615,0.0,0.0,0.0,0.0,0.0,0.0,0.0,0.0,0.0,0.0,0.0,0.0,0.0,0.0,0.0,0.0,0.0,0.0,0.0,0.0,0.0,0.0,0.0,0.0,0.0,0.0,0.0,0.0,0.0,0.0,0.0,0.0,0.0,0.0,0.0,0.0,0.0,0.0,-3.163,-3.3423,-3.64,-3.6434,-3.6738,0.0,0.0,0.0,0.0,0.0,0.0,-3.8464,-3.9512,-4.1136,-4.3369,-4.3809,-4.4654,-4.5974,-4.6515,-4.6616,-4.6278,-4.6819,-4.7192,-4.7361,-4.7361,-4.7361,-4.7394,-4.7936,-4.8206,-4.8071,-4.621,-4.5432,-4.5399,-4.5026,-4.4857,-4.479,-4.4215,-4.3956,-4.3968,0.0,0.0,0.0,0.0,0.0,0.0,0.0,0.0,0.0,0.0,0.0,-2.5784,-2.7593,-2.9037,-3.0277,-3.1326,-3.0989,-3.1379,-3.2923,-3.1772,-3.1297,-3.1907,-3.1263,-3.0939,-3.1021,-3.525,-3.8633,-4.1001,-4.3978,-4.6143,-4.7466,-4.6109,-4.5838,-4.6413,-4.4215,-4.1508,-3.8464,-3.7066,-3.5543,-3.3795,0.0,0.0,0.0,0.0,0.0,0.0,0.0,0.0,0.0,0.0,0.0,0.0,0.0,0.0,0.0,0.0,0.0,0.0,0.0,0.0,0.0,0.0,0.0,0.0,0.0,0.0,0.0,0.0,0.0,0.0,0.0,0.0,0.0,0.0,0.0,0.0,0.0,0.0,0.0,-3.9537,-4.046,0.0,0.0,0.0,0.0,-3.9943,-4.0561,-4.161,-4.297,-4.3139,-4.4215,-4.6481,-4.594,-4.5974,-4.6718,-4.6786,-4.7124,-4.777,-4.7804,-4.8206,-4.8883,-4.8883,-4.8883,-4.8883,-4.8951,-4.8951,-4.8883,-4.8071,-4.7703,-4.7567,-4.621,-4.5635,-4.5635,-4.5602,-4.5602,-4.5703,0.0,0.0,0.0,-1.8667,-1.8988,-1.9386,-1.997,-2.0769,-2.1679,-2.2624,-2.5333,-2.7727,-2.9203,-3.2455,-3.4805,-3.5338,-3.6512,-3.6818,-3.5885,-3.6594,-3.6346,-3.4801,-3.4881,-3.5332,-3.6186,-3.8734,-4.161,-4.479,-4.5872,-4.7158,-4.8612,-4.8071,-4.7733,-4.7496,-4.6655,-4.4925,-4.2448,-3.9977,-3.7976,-3.6295,-3.4037,-3.1982,0.0,0.0,0.0,0.0,0.0,0.0,0.0,0.0,0.0,0.0,0.0,0.0,0.0,0.0,0.0,0.0,0.0,0.0,0.0,0.0,0.0,0.0,0.0,0.0,0.0,0.0,0.0,0.0,0.0,0.0,0.0,0.0,0.0,0.0,0.0,0.0,0.0,-4.1136,-4.1745,0.0,-4.3667,-4.3064,-4.232,-4.1568,-4.2685,-4.3606,-4.4147,-4.4621,-4.5703,-4.7462,-4.7259,-4.7496,-4.8206,-4.8206,-4.8578,-4.9323,-4.9323,-4.9695,-5.0439,-5.0439,-5.0439,-5.0439,-5.0439,-5.0439,-5.0405,-5.0103,-4.9458,-4.8578,-4.8037,-4.7834,-4.7834,-4.7834,-4.8139,-4.8578,0.0,-1.9386,0.0,-1.876,-1.9356,-2.0019,-2.0608,-2.1696,-2.2909,-2.425,-2.7281,-3.006,-3.1969,-3.5786,-3.8368,-3.8842,-4.0665,-4.1036,-3.9178,-4.039,-3.9997,-3.7438,-3.7772,-3.9043,-4.123,-4.2455,-4.4654,-4.7902,-4.8409,-4.9154,-5.0101,-5.0101,-4.9864,-4.9357,-4.8612,-4.7462,-4.5872,-4.3132,-4.0881,-3.8991,-3.7037,-3.5217,-3.3443,0.0,0.0,0.0,0.0,0.0,0.0,0.0,0.0,0.0,0.0,0.0,0.0,0.0,0.0,0.0,0.0,0.0,0.0,0.0,0.0,0.0,0.0,0.0,0.0,0.0,0.0,0.0,0.0,0.0,0.0,0.0,0.0,0.0,0.0,0.0,-3.9546,-4.2016,-4.2523,-4.3267,-4.4823,-4.4248,-4.3606,-4.3098,-4.4451,-4.5432,-4.5703,-4.665,-4.7767,-4.8954,-4.8987,-4.9255,-4.9763,-4.9763,-4.9999,-5.0473,-5.0473,-5.0744,-5.1185,-5.1185,-5.1185,-5.1185,-5.1185,-5.1185,-5.1185,-5.1185,-5.0642,-4.9763,-4.9763,-4.9763,-4.9763,-4.9763,-5.0067,-5.0473,-2.0347,-1.9386,-1.8581,-1.876,-1.9678,-2.0644,-2.1395,-2.2218,-2.4172,-2.8117,-3.0428,-3.2873,-3.5971,-3.8808,-4.0783,-4.16,-4.3054,-4.3594,-4.2808,-4.2853,-4.2018,0.0,0.0,0.0,-4.5703,-4.6515,-4.797,-5.0168,-5.1589,-5.23,-5.2334,-5.2334,-5.2334,-5.2198,-5.0033,-4.9052,-4.8849,-4.6684,-4.4485,-4.2185,-3.9242,-3.8464,-3.8464,0.0,0.0,0.0,0.0,0.0,0.0,0.0,0.0,0.0,0.0,0.0,0.0,0.0,0.0,0.0,0.0,0.0,0.0,0.0,0.0,0.0,0.0,0.0,0.0,0.0,0.0,0.0,0.0,0.0,0.0,0.0,0.0,0.0,-3.7204,-3.8826,-4.073,-4.2219,-4.3031,-4.4045,-4.5568,-4.506,-4.4682,-4.4649,-4.5974,-4.7158,-4.7872,-4.9289,-5.0405,-5.1183,-5.1185,-5.1185,-5.1185,-5.1185,-5.1185,-5.1219,-5.1219,-5.1219,-5.1252,-5.1252,-5.1252,-5.1252,-5.1252,-5.1252,-5.1252,-5.1319,-5.1319,-5.1286,-5.1219,-5.1185,-5.1185,-5.1185,-5.1185,-5.1251,-2.0382,-1.9503,-1.8695,-1.8609,-2.05,-2.2044,-2.2093,-2.3235,-2.5315,-2.8748,-3.1703,-3.4348,-3.6642,-4.1098,-4.3742,-4.3321,-4.4961,-4.5586,-4.4425,-4.5244,-4.508,0.0,0.0,0.0,-4.7259,-4.8545,-4.9999,-5.1691,-5.2097,-5.2604,-5.3179,-5.3179,-5.2875,-5.2266,-5.1116,-4.9999,-4.8951,-4.78,-4.6616,-4.5331,-4.2753,-4.0879,-3.943,0.0,0.0,0.0,0.0,0.0,0.0,0.0,0.0,0.0,0.0,0.0,0.0,0.0,0.0,0.0,0.0,0.0,0.0,0.0,0.0,0.0,0.0,0.0,0.0,0.0,0.0,0.0,0.0,0.0,0.0,0.0,0.0,-4.1037,-4.0095,-4.1314,-4.2894,-4.4575,-4.4743,-4.5022,-4.563,-4.6007,-4.5974,-4.5432,-4.6752,-4.7936,-4.868,-4.9086,-4.9898,-5.1151,-5.1185,-5.1185,-5.1185,-5.1185,-5.1488,-5.1995,-5.1995,-5.23,-5.2875,-5.2875,-5.2875,-5.2875,-5.2875,-5.2875,-5.2909,-5.345,-5.3653,-5.3518,-5.186,-5.1185,-5.1185,-5.1185,-5.1555,-5.2164,-2.0238,-1.9297,-1.8477,-1.8368,-2.0388,-2.197,-2.1831,-2.3199,-2.5913,-3.047,-3.2715,-3.5247,-3.8844,-4.266,-4.4907,-4.4711,-4.6041,-4.6524,-4.5672,-4.6154,0.0,0.0,0.0,-4.9353,-5.0127,-5.1014,-5.2004,-5.3198,-5.2906,-5.3044,-5.3518,-5.3518,-5.3247,-5.2773,-5.1691,-5.0744,-4.9864,-4.8815,-4.7936,-4.7158,-4.5718,-4.3833,-4.1673,-3.9994,-3.856,-3.728,-3.5588,-3.4979,-3.481,-3.3761,0.0,0.0,0.0,0.0,0.0,0.0,0.0,0.0,0.0,0.0,0.0,0.0,0.0,0.0,0.0,0.0,0.0,0.0,0.0,0.0,0.0,0.0,0.0,0.0,-4.1436,-4.3529,-4.3005,-4.3555,-4.4389,-4.5384,-4.5684,-4.5897,-4.6133,-4.6776,-4.6839,-4.6206,-4.753,-4.868,-4.9424,-5.0067,-5.0947,-5.2131,-5.2164,-5.2164,-5.2164,-5.2164,-5.2401,-5.2807,-5.2807,-5.3044,-5.3518,-5.3822,-5.3957,-5.3991,-5.4296,-5.4431,-5.4465,-5.4871,-5.5243,0.0,0.0,0.0,0.0,0.0,-5.2909,-5.345,-2.0002,-1.8961,-1.8107,-1.819,-1.9864,-2.1264,-2.1304,-2.2771,-2.6199,-3.2705,-3.3508,-3.5735,-4.1665,-4.3771,-4.5064,-4.5851,-4.6637,-4.703,-4.6809,0.0,0.0,-4.9389,-5.0726,-5.1955,-5.3145,-5.3322,-5.3701,-5.4253,-5.3749,-5.3518,-5.3518,-5.3518,-5.3518,-5.345,-5.1894,-5.1185,-5.1083,-4.9627,-4.8612,-4.8007,-4.7906,-4.6616,-4.4418,-4.1745,-4.073,-4.0383,-3.7493,-3.6546,-3.6377,-3.4912,0.0,0.0,0.0,0.0,0.0,0.0,0.0,0.0,0.0,0.0,0.0,0.0,0.0,0.0,0.0,0.0,0.0,0.0,0.0,0.0,0.0,0.0,0.0,0.0,-4.408,-4.6065,-4.5581,-4.565,-4.5684,-4.5484,-4.6193,-4.6763,-4.6859,-4.7489,-4.767,-4.7199,-4.8531,-4.9684,-5.043,0.0,0.0,0.0,0.0,-5.3518,-5.3518,-5.3585,-5.3687,-5.3754,-5.3822,-5.3923,-5.4025,-5.4668,-5.4972,-5.5006,-5.5683,-5.5953,-5.5953,-5.6055,-5.6461,-5.69,-5.5513,-5.4905,-5.4837,-5.4837,-5.4803,-5.4837,-2.0149,-1.8961,-1.8226,-1.8677,-2.0576,-2.221,-2.2658,-2.372,-2.6848,-3.3508,-3.4166,-3.6394,-4.2486,-4.4946,-4.629,-4.6717,-4.7845,-4.8497,0.0,0.0,-5.0008,-4.9521,-5.2573,-5.3661,-5.2356,-5.3563,-5.3942,-5.3429,-5.3477,-5.3518,-5.3518,-5.3518,-5.3518,-5.345,-5.1894,-5.1185,-5.1083,-4.9627,-4.8917,-4.8748,-4.8142,-4.6955,-4.5432,-4.4857,-4.4621,-4.4384,-4.253,-4.232,-4.2651,-4.1068,-3.9884,-3.8903,-3.8159,0.0,0.0,0.0,0.0,0.0,0.0,0.0,0.0,0.0,0.0,0.0,0.0,0.0,0.0,0.0,0.0,0.0,0.0,0.0,0.0,-4.3756,-4.5581,-4.7021,-4.692,-4.7848,-4.7975,-4.6446,-4.73,-4.7875,-4.7479,-4.8734,-4.9487,-4.9407,-5.0754,-5.1894,-5.265,-5.2456,-5.2672,-5.3484,-5.3518,-5.3518,-5.3518,-5.4093,-5.4702,-5.531,0.0,0.0,-5.7036,-5.7205,-5.7239,-5.7273,-5.7408,-5.7476,-5.7509,-5.8118,-5.8457,-5.849,-5.7611,-5.69,-5.6359,-5.6359,-5.5987,-5.5615,-2.067,-1.9481,-1.8586,-1.8833,-2.0258,-2.1603,-2.2377,-2.3389,-2.6008,-3.1482,-3.2784,-3.4738,-3.8807,-4.2164,-4.4045,-4.3992,-4.6614,-4.7968,0.0,-5.0126,-5.1538,-5.0678,-5.4153,-5.5382,-5.3739,-5.4504,-5.4713,-5.433,-5.3743,-5.3518,-5.3518,-5.3518,-5.3518,-5.345,-5.2266,-5.1555,-5.1117,-5.0033,-4.9323,-4.8984,-4.8612,-4.8003,-4.7259,-4.6549,-4.6244,-4.6109,-4.4959,-4.4823,-4.4891,-4.3369,-4.2625,-4.2151,-4.1001,-3.9884,-3.8565,0.0,0.0,0.0,0.0,0.0,0.0,0.0,0.0,0.0,0.0,0.0,0.0,0.0,0.0,-4.4388,0.0,0.0,-4.6199,-4.5725,-4.713,-4.8303,-4.8303,-4.9221,-4.9528,-4.8588,-4.9048,-4.9386,-4.9156,-5.0492,-5.1172,-5.0552,-5.1903,-5.2922,-5.3398,-5.3447,-5.3788,-5.46,-5.46,-5.46,-5.46,-5.5344,-5.5886,-5.6258,-5.7002,-5.7543,-5.7915,-5.8287,-5.8457,-5.8457,-5.8829,-5.8998,-5.9066,-5.9844,-6.0148,-6.0148,-6.0148,-5.8998,-5.7408,-5.778,-5.7679,-5.7408,-2.1224,-2.0209,-1.9362,-1.9362,-2.0057,-2.0986,-2.1967,-2.2928,-2.504,-2.9251,-3.0944,-3.2769,-3.5397,-3.9013,-4.1214,-4.1141,-4.5142,0.0,0.0,-4.98,-5.222,-5.1618,-5.4945,-5.6152,-5.4699,-5.5168,-5.5238,-5.4979,-5.4104,-5.3618,-5.3518,-5.3518,-5.3416,-5.3247,-5.2435,-5.1691,-5.0947,-5.0202,-4.9526,-4.9018,-4.9018,-4.9018,-4.8883,-4.7665,-4.7225,-4.7124,-4.6413,-4.594,-4.55,-4.4282,-4.4079,-4.4175,-4.3064,-4.232,-4.1441,-3.9377,-3.8125,0.0,0.0,0.0,0.0,0.0,0.0,0.0,0.0,0.0,-4.3751,-4.3207,-4.475,-4.5788,-4.456,-4.6165,-4.7639,-4.7461,-4.8638,-4.9508,-4.9508,-5.0319,-5.094,-5.1034,-5.0843,-5.087,-5.1291,-5.251,-5.2927,-5.2141,-5.3363,-5.4124,-5.4092,-5.4533,-5.5108,-5.5647,-5.5681,-5.5681,-5.5681,-5.6562,-5.7103,-5.7239,-5.8118,-5.8626,-5.8795,-5.9404,-5.9674,-5.9708,-6.0283,-6.0554,-6.0588,-6.1264,-6.1501,-6.1569,-6.2144,-6.0892,-5.8829,-5.9302,-5.937,-5.9235,-2.1326,-2.1055,-2.0919,-2.0919,-2.1233,-2.1784,-2.2809,-2.3271,-2.504,-2.9251,-2.9965,-3.2053,-3.7291,-3.8917,-4.0184,-4.1505,-4.5341,0.0,-4.5417,-4.98,-5.2005,-5.0846,-5.3726,-5.4421,-5.2481,-5.4371,-5.4785,-5.3452,-5.4049,-5.4044,-5.3518,-5.3518,-5.3112,-5.2401,-5.1657,-5.0913,-5.0168,-4.9424,-4.9086,-4.9018,-4.9018,-4.9018,-4.8984,-4.8815,-4.8748,-4.8646,-4.7936,-4.679,-4.5669,-4.55,-4.4587,-4.3639,-4.4147,-4.431,-4.3904,-4.2286,0.0,-3.9466,-3.823,-3.8403,-3.9532,-4.1912,-4.2457,-4.2984,0.0,0.0,-4.6533,-4.6886,-4.8074,-4.8933,-4.8661,-4.8853,-4.9043,-4.9043,-4.9818,-5.0389,-5.0389,-5.1466,-5.2555,-5.3278,-5.222,-5.2065,-5.3502,-5.4411,-5.5202,-5.5829,-5.6715,-5.6931,-5.6293,-5.5826,-5.558,-5.5681,-5.5681,-5.5681,-5.5681,-5.707,-5.8118,-5.8795,-6.0216,-6.1264,-6.1873,-6.1975,-6.2009,-6.2009,-6.211,-6.2144,-6.2144,-6.2245,-6.2279,-6.2279,-6.2347,-6.2178,-6.1806,-6.1264,-6.0588,-5.9979,-2.1887,-2.1854,-2.1874,-2.205,-2.1816,-2.1923,-2.2949,-2.3307,-2.4347,-2.6705,-2.8214,-2.9755,-3.1492,-3.4031,-3.6328,-3.8104,-4.2488,-4.4468,-4.2833,-4.8138,-5.0769,-4.9442,-5.2529,-5.3583,-5.2021,-5.3783,-5.4236,-5.3253,-5.322,-5.3036,-5.2807,-5.2367,-5.1995,-5.1657,-5.132,-5.0811,-5.0067,-4.9763,-4.939,-4.9018,-4.9018,-4.8748,-4.8376,-4.8376,-4.8376,-4.8274,-4.753,-4.6583,0.0,0.0,-4.5263,-4.4891,-4.5635,-4.5292,-4.431,-4.2726,-4.1542,0.0,-4.1695,-4.1526,0.0,0.0,-4.5177,-4.5056,-4.6756,-4.7782,-4.8501,-4.8684,-4.9794,-5.0576,-5.0042,-4.9924,-5.008,0.0,-5.0757,-5.1297,-5.2234,-5.2833,-5.3494,-5.4291,-5.3881,-5.3789,-5.4491,-5.5666,-5.6412,-5.651,-5.7588,-5.8164,-5.7904,-5.7649,-5.7728,-5.8178,-5.7809,-5.7809,-5.8288,-5.8846,-5.9573,-6.0351,-6.1434,-6.211,-6.2381,-6.2381,-6.2381,-6.2381,-6.2381,-6.2381,-6.2381,-6.2381,-6.2659,-6.3038,-6.3051,-6.3266,-6.3551,-6.2373,-6.2009,-6.2009,-2.2313,-2.2349,-2.2474,-2.2676,-2.2386,-2.2363,-2.3105,-2.3389,-2.3869,-2.4849,-2.6512,-2.7596,-2.7625,-3.0791,-3.3367,-3.4558,-3.9103,-4.1419,0.0,-4.5463,-4.834,-4.791,-5.0692,-5.1846,-5.1046,-5.2691,-5.3259,-5.2666,-5.2406,-5.2191,-5.1995,-5.1454,-5.1116,-5.0913,-5.0913,-5.0507,-4.9796,-4.9796,-4.9492,-4.8984,-4.8781,-4.8376,-4.7906,-4.7906,-4.7365,-4.665,-4.669,-4.6238,0.0,0.0,-4.5184,-4.4782,-4.5625,-4.4993,-4.3802,-4.2861,-4.2592,-4.2843,-4.407,0.0,0.0,-4.7488,-4.7575,-4.7293,-4.8429,-4.9345,-4.9943,-5.0048,-5.087,-5.1412,-5.0772,-5.0832,-5.1048,-5.1276,-5.1466,-5.2118,-5.3494,-5.3711,-5.4074,-5.5088,-5.5414,-5.566,-5.5955,-5.6927,-5.7567,-5.773,-5.8721,-5.929,-5.9151,-5.912,-5.9401,-5.9998,-5.9722,-5.9701,-6.0116,-6.0542,-6.0917,-6.1298,-6.2042,-6.2381,-6.2381,-6.2615,-6.2813,-6.3007,-6.3007,-6.3007,-6.3042,-6.3247,-6.3655,-6.4133,-6.4366,-6.4675,-6.48,-6.3713,-6.3526,-6.3734,-2.2313,-2.2515,-2.2703,-2.2716,-2.3103,-2.3445,-2.3492,-2.3504,-2.3869,-2.4849,-2.5063,-2.6153,-2.8911,-3.1449,-3.2592,-3.1893,-3.584,-3.8455,-3.8679,-4.1782,-4.4516,-4.6477,-4.7841,-4.8635,-4.8803,-5.0858,-5.166,-5.0991,-5.1804,-5.1878,-5.1219,-5.1185,-5.0845,-5.0135,-5.0135,-4.9729,-4.9052,-4.9052,-4.9018,-4.8951,-4.821,-4.7906,-4.7906,-4.7906,-4.608,-4.3796,-4.5713,0.0,0.0,0.0,-4.3829,-4.2196,-4.3192,-4.2997,0.0,-4.3166,-4.4587,-4.5755,-4.4845,0.0,-4.8839,-4.9411,-4.9902,-5.0492,-5.1301,-5.106,-5.0823,-5.1414,-5.1576,-5.1535,-5.1316,-5.1914,-5.2167,-5.143,-5.1937,-5.2733,-5.3566,-5.3711,-5.4255,-5.5776,-5.6645,-5.75,0.0,-5.8439,-5.9087,-6.073,-6.0879,-6.0646,-5.9995,-5.9963,-5.9963,-5.9998,-6.0736,-6.0796,-6.0116,-6.1599,-6.199,-6.1298,-6.2042,-6.2381,-6.242,-6.3121,-6.3861,-6.4532,-6.4532,-6.4532,-6.4567,-6.5373,-6.5689,-6.5794,-6.6602,-6.6413,-6.5776,-6.5704,-6.5197,-6.4546,-2.2313,-2.2363,-2.2555,-2.2914,-2.3103,-2.333,-2.3646,-2.3689,-2.3829,-2.4147,-2.4509,0.0,0.0,0.0,0.0,0.0,-3.3687,-3.5882,-3.6185,-3.9873,-4.2386,-4.3101,-4.5113,-4.6285,-4.6458,-4.8162,-4.8976,-4.8886,-4.9218,-4.9233,-4.8987,-4.8511,-4.8139,-4.7902,-4.7902,-4.7767,-4.753,-4.753,-4.753,-4.753,-4.7259,-4.6583,-4.5805,-4.6786,-4.5602,-4.3525,0.0,0.0,0.0,0.0,0.0,0.0,-4.4179,-4.4514,-4.4466,-4.5129,-4.61,-4.7086,-4.7638,-4.8569,-4.9643,-5.0673,-5.0767,-5.0673,-5.0955,-5.1157,-5.1337,-5.1551,-5.1909,-5.2161,-5.2131,-5.2299,-5.2408,-5.2118,-5.2299,-5.2951,-5.4327,-5.4508,-5.5088,-5.6609,-5.7514,0.0,0.0,0.0,0.0,-6.0938,-6.1401,-6.1579,-6.1343,-6.1315,-6.1595,-6.2097,-6.1463,-6.175,-6.2999,-6.2614,-6.2744,-6.3515,-6.3758,-6.3862,-6.3897,-6.4669,-6.5163,-6.5443,-6.597,-6.6181,-6.6181,-6.6462,-6.6882,-6.7295,-6.7048,-6.7401,-6.8011,-6.7472,-6.745,-6.7499,-2.2313,-2.2363,-2.2569,-2.2914,-2.303,0.0,0.0,0.0,0.0,0.0,0.0,0.0,0.0,0.0,0.0,0.0,0.0,-3.2633,-3.3882,0.0,-3.9028,-4.0049,-4.2088,-4.33,-4.3499,-4.5025,-4.5941,-4.6187,-4.6431,-4.6588,-4.6718,-4.6413,-4.6175,-4.6007,-4.6007,-4.6007,-4.6007,-4.6007,-4.6143,-4.6346,-4.55,-4.479,-4.4215,-4.4621,-4.3234,0.0,0.0,0.0,0.0,0.0,0.0,-4.3334,-4.4366,-4.4956,-4.5446,-4.6404,-4.7329,-4.8278,-4.9217,-5.0048,-5.0784,-5.1444,-5.1475,-5.1337,-5.1337,-5.1651,-5.1909,-5.1909,-5.2462,-5.2842,-5.2552,-5.2987,-5.3277,-5.2987,-5.3168,-5.3892,-5.5486,-5.5486,-5.5884,-5.7442,-5.8347,-5.9035,0.0,0.0,0.0,-6.1365,-6.1748,-6.1978,-6.1978,-6.1978,-6.2367,-6.3164,-6.26,-6.2982,-6.4488,-6.3892,-6.4078,-6.5022,-6.5338,-6.5616,-6.5855,-6.642,-6.6768,-6.7038,-6.7536,-6.7785,-6.7785,-6.8103,-6.848,-6.8916,-6.8646,-6.9,-6.9591,-6.9061,-6.92,-6.9457,-2.2313,-2.2501,-2.2668,0.0,0.0,0.0,0.0,0.0,0.0,0.0,0.0,0.0,0.0,0.0,0.0,0.0,0.0,0.0,-3.169,0.0,0.0,-3.7373,-3.8812,-3.9706,-4.0009,-4.1468,-4.2416,-4.2842,-4.3432,-4.3973,-4.4338,-4.4768,-4.4776,-4.4378,-4.4378,-4.4378,-4.4378,-4.4378,-4.4756,-4.5229,-4.2997,-4.2523,-4.2963,-4.161,0.0,0.0,0.0,0.0,0.0,0.0,-4.2842,-4.3472,-4.393,-4.4636,-4.5574,-4.7185,-4.8542,-4.9507,-4.9729,-5.1115,-5.2364,-5.1846,-5.2126,-5.2516,-5.2552,-5.2516,-5.2516,-5.2552,-5.3132,-5.3422,0.0,0.0,-5.4544,-5.382,-5.4363,-5.5377,-5.6935,-5.6464,-5.6609,0.0,0.0,0.0,0.0,0.0,0.0,-6.2123,0.0,-6.205,-6.205,-6.2087,-6.2512,-6.3345,-6.4078,-6.4547,-6.4729,-6.551,-6.5901,-6.5969,-6.6743,-6.7477,-6.8151,-6.8186,-6.8614,-6.9279,-6.9316,-6.9316,-6.9388,-7.0149,-7.0444,-7.0517,-7.1209,-7.1042,-7.044,-7.0406,-7.0406,-7.0337,0.0,0.0,0.0,0.0,0.0,0.0,0.0,0.0,0.0,0.0,0.0,0.0,0.0,0.0,0.0,0.0,0.0,0.0,0.0,0.0,0.0,0.0,0.0,0.0,0.0,0.0,0.0,0.0,0.0,-3.9603,-4.0808,-4.0669,-4.0824,-4.1271,-4.1271,-4.1238,-4.1264,-4.1264,-4.1365,-4.1407,0.0,-3.9778,-3.9679,0.0,0.0,0.0,0.0,0.0,0.0,0.0,-4.1478,-4.385,-4.6977,-4.8485,-4.9376,-5.0796,-5.1429,-5.1824,-5.2474,-5.2582,-5.2602,-5.3039,-5.2821,-5.2661,-5.3277,-5.2915,-5.2661,-5.3277,-5.3096,-5.2733,0.0,0.0,0.0,-5.3639,-5.3856,0.0,-5.6066,-5.6138,0.0,-5.8202,0.0,-6.0086,-6.1254,-6.2295,0.0,0.0,-6.3237,-6.2875,-6.2875,-6.3454,-6.4432,-6.5844,-6.5544,-6.6243,-6.7956,-6.8239,-6.8327,-6.835,-6.8566,-6.8737,-6.8961,-6.9539,-6.9922,-7.0118,-7.0661,-7.0915,-7.0915,-7.1132,-7.1205,-7.1178,-7.0839,-7.0911,-7.1139,-7.0575,-7.0745,-7.1171,0.0,0.0,0.0,0.0,0.0,0.0,0.0,0.0,0.0,0.0,0.0,0.0,0.0,0.0,0.0,0.0,0.0,0.0,0.0,0.0,0.0,0.0,0.0,0.0,0.0,0.0,0.0,0.0,0.0,0.0,0.0,-3.776,-3.8174,-3.8387,-3.8197,-3.8125,-3.8125,-3.8125,0.0,0.0,0.0,0.0,0.0,0.0,0.0,0.0,0.0,0.0,0.0,0.0,0.0,-4.5565,-4.9108,-5.052,-5.107,-5.2193,-5.2263,-5.2226,-5.3385,-5.3385,-5.3132,-5.3603,-5.3349,-5.3059,-5.3132,-5.2806,-5.2625,-5.3096,-5.2806,-5.2589,-5.2951,-5.3313,0.0,0.0,0.0,0.0,-5.6862,-5.7043,-5.7659,0.0,-6.0158,0.0,-6.1906,-6.3056,-6.3889,0.0,-6.3961,-6.3708,-6.3708,-6.4142,-6.512,-6.675,-6.6421,-6.7148,-6.9207,-6.9569,-6.975,-6.975,-7.0046,-7.0191,-7.0227,-7.0661,-7.0879,-7.0915,0.0,-7.1494,-7.1494,-7.1494,-7.1494,-7.1463,-7.1042,-7.1139,-7.1431,-7.1042,-7.1139,-7.1494,0.0,0.0,0.0,0.0,0.0,0.0,0.0,0.0,0.0,-2.5731,-2.4849,0.0,0.0,0.0,0.0,0.0,0.0,0.0,0.0,0.0,0.0,0.0,0.0,0.0,0.0,0.0,0.0,0.0,0.0,0.0,0.0,0.0,0.0,0.0,0.0,0.0,0.0,0.0,0.0,0.0,0.0,0.0,0.0,0.0,0.0,0.0,0.0,0.0,0.0,0.0,-4.6557,-4.7371,-5.0484,-5.1466,-5.1574,-5.2299,-5.2082,-5.1937,-5.3458,-5.3856,-5.3856,-5.3856,-5.3856,-5.3639,-5.2697,-5.248,-5.248,-5.2371,-5.2154,-5.2299,-5.3204,-5.3784,-5.4255,-5.4689,0.0,-5.6971,-5.8094,-5.8239,-5.8891,-6.0629,-6.1507,-6.2087,-6.2331,-6.3671,-6.4577,-6.4722,-6.4722,-6.4649,-6.4541,-6.4649,-6.5446,-6.7076,-6.7329,-6.809,-6.9497,-7.0191,-7.0553,-7.0553,-7.1205,-7.1494,-7.1494,-7.1494,-7.1494,-7.1494,-7.1494,-7.1494,-7.1494,-7.1494,-7.1494,-7.1494,-7.1494,-7.1494,-7.1494,-7.1494,-7.1494,-7.1494,0.0,0.0,0.0,0.0,0.0,0.0,0.0,0.0,0.0,0.0,-2.7827,-2.5944,0.0,0.0,0.0,0.0,0.0,0.0,0.0,0.0,0.0,0.0,0.0,0.0,0.0,0.0,0.0,0.0,0.0,0.0,0.0,0.0,0.0,0.0,0.0,0.0,0.0,0.0,0.0,0.0,0.0,0.0,0.0,0.0,0.0,0.0,0.0,0.0,0.0,0.0,-4.5729,-4.6726,-5.0954,-5.2299,-5.2299,-5.2444,-5.2878,-5.3494,-5.4436,-5.4689,-5.4689,-5.4689,-5.4689,-5.4327,-5.2842,-5.248,0.0,-5.1647,-5.0452,-4.9981,-5.143,-5.0741,-5.0814,-5.3494,-5.3566,-5.4255,-5.7007,-5.7406,-5.8239,0.0,0.0,0.0,0.0,0.0,0.0,0.0,-6.6388,-6.6098,-6.5446,-6.6025,-6.7112,-6.8736,-7.0009,-7.0806,-7.1096,-7.1241,-7.1313,-7.1313,-7.1458,-7.1494,-7.1494,-7.1494,-7.1494,-7.1494,-7.1494,0.0,-7.1494,-7.1494,-7.1494,-7.1494,-7.1494,-7.1494,-7.1494,-7.1494,-7.1494,-7.1494,0.0,0.0,0.0,0.0,0.0,0.0,0.0,-2.9837,-3.0702,-3.3715,-3.2869,-3.092,-2.8247,-2.6218,-2.4763,0.0,0.0,0.0,0.0,0.0,0.0,0.0,0.0,0.0,0.0,0.0,0.0,0.0,0.0,0.0,0.0,0.0,0.0,0.0,0.0,0.0,0.0,0.0,0.0,0.0,0.0,0.0,0.0,0.0,0.0,0.0,0.0,0.0,0.0,0.0,-4.4734,-4.6024,-5.0954,-5.277,-5.2951,-5.2118,-5.2733,-5.3784,-5.4182,-5.4581,-5.4979,-5.5377,-5.5196,-5.4581,-5.3385,0.0,0.0,-5.0945,-4.9727,-4.9126,-4.9908,0.0,0.0,-5.1574,-5.2915,-5.4291,-5.5776,0.0,0.0,0.0,0.0,0.0,0.0,0.0,0.0,-6.675,-6.6786,-6.6641,-6.6243,-6.7366,-6.8561,-6.9787,-7.0915,-7.1494,-7.1494,-7.1494,-7.1494,-7.1494,-7.1494,-7.1494,-7.1494,-7.1494,-7.1494,-7.1494,-7.1494,0.0,-7.1494,-7.1494,-7.1494,-7.1494,-7.1494,-7.1494,-7.1494,-7.1494,-7.1494,-7.1494,0.0,0.0,0.0,0.0,0.0,0.0,0.0,-3.3017,-3.3783,-3.7303,-3.7337,-3.5622,-3.1935,-2.8856,-2.642,0.0,0.0,0.0,0.0,0.0,0.0,0.0,0.0,0.0,0.0,0.0,0.0,0.0,0.0,0.0,0.0,0.0,0.0,0.0,0.0,0.0,0.0,0.0,0.0,0.0,0.0,0.0,0.0,0.0,0.0,0.0,0.0,0.0,0.0,0.0,-4.3617,-4.5093,-4.9942,-5.2154,-5.2733,-5.1828,-5.2552,-5.3748,-5.3929,-5.4653,-5.545,-5.5703,-5.5595,-5.5015,-5.353,-5.2697,-5.1647,-4.9532,-4.8279,-4.7735,-4.8098,0.0,-4.8843,0.0,0.0,0.0,0.0,0.0,0.0,0.0,0.0,0.0,0.0,0.0,0.0,-6.675,-6.6786,-6.6895,-6.704,-6.8416,-6.9569,-7.0372,-7.1132,-7.1494,-7.1494,-7.1494,-7.1494,-7.1494,-7.1494,-7.1494,-7.1494,-7.1494,-7.1494,-7.1494,-7.1494,0.0,0.0,-7.1494,-7.1494,-7.1494,-7.1494,-7.1494,-7.1494,-7.1494,-7.1494,-7.1494,0.0,0.0,0.0,0.0,0.0,0.0,0.0,-3.3761,-3.5115,-4.0155,-3.9039,-3.7381,-3.6321,-3.3478,-3.0025,0.0,0.0,0.0,0.0,0.0,0.0,0.0,0.0,0.0,0.0,0.0,0.0,0.0,0.0,0.0,0.0,0.0,0.0,0.0,0.0,0.0,0.0,0.0,0.0,0.0,0.0,0.0,0.0,0.0,0.0,0.0,0.0,0.0,0.0,0.0,0.0,-4.364,-4.7063,-4.9184,-5.0669,-5.2009,-5.3023,-5.3856,-5.4581,-5.5884,-5.6681,-5.5341,-5.5993,-5.6029,-5.2335,-5.1466,-5.0307,-4.6504,-4.4512,-4.3896,-4.5345,-4.4476,0.0,0.0,0.0,0.0,0.0,0.0,0.0,0.0,0.0,0.0,0.0,0.0,0.0,-6.675,-6.6786,-6.7112,-6.7873,-6.8706,-6.9569,-7.0372,-7.1132,-7.1494,-7.1494,-7.1494,-7.1494,-7.1494,-7.1494,-7.1494,-7.1494,-7.1494,-7.1494,-7.1494,-7.1494,0.0,0.0,-7.1494,-7.1494,-7.1494,-7.1494,-7.1494,-7.1494,-7.1494,-7.1494,-7.1494,0.0,0.0,0.0,0.0,0.0,0.0,-3.4934,-3.4472,-3.5453,-4.1102,-4.0696,-3.9445,-3.8227,-3.6637,-3.3119,-2.6826,0.0,0.0,0.0,0.0,0.0,0.0,0.0,0.0,0.0,0.0,0.0,-2.4023,0.0,0.0,0.0,0.0,0.0,0.0,0.0,0.0,0.0,0.0,0.0,0.0,0.0,0.0,0.0,0.0,0.0,0.0,0.0,0.0,-3.5666,-3.8851,0.0,0.0,-4.4838,-4.6649,0.0,-5.0416,-5.2299,-5.3784,-5.411,-5.5305,-5.6428,-5.6319,-5.5667,-5.4544,-5.248,-5.0524,-4.8279,-4.52,-4.3317,-4.223,-4.2375,-4.3063,0.0,0.0,0.0,0.0,0.0,0.0,0.0,0.0,0.0,0.0,0.0,0.0,-6.541,-6.6714,-6.6786,-6.7366,-6.8633,-6.9026,-6.9756,-7.1024,-7.135,-7.1494,-7.1494,-7.1494,-7.1494,-7.1494,-7.1494,-7.1494,-7.1494,-7.1494,-7.1494,-7.1494,-7.1494,0.0,0.0,-7.1494,-7.1494,-7.1494,-7.1494,-7.1494,-7.1494,-7.1494,-7.1494,-7.1494,0.0,0.0,0.0,0.0,0.0,-2.889,-3.5453,-3.4912,-3.5622,-4.0933,-4.1407,-4.0561,-3.887,-3.7821,-3.4573,-2.796,-2.6488,0.0,0.0,0.0,0.0,0.0,0.0,0.0,0.0,0.0,-2.3004,-2.3729,-2.4125,-2.4656,0.0,0.0,0.0,0.0,0.0,0.0,0.0,0.0,0.0,0.0,0.0,0.0,0.0,0.0,0.0,0.0,0.0,0.0,0.0,0.0,0.0,0.0,0.0,0.0,0.0,0.0,-5.1466,-5.3132,-5.3856,-5.5015,-5.6138,-5.6681,-5.5269,-5.3349,-5.2082,-4.9293,-4.625,-4.357,-4.1977,-4.0854,-4.0257,-4.1759,-4.3281,0.0,0.0,0.0,0.0,0.0,0.0,0.0,0.0,-6.2404,0.0,-6.4504,-6.5591,-6.6714,-6.6786,-6.751,-6.9134,-6.9207,-6.9901,-7.1458,-7.1494,-7.1494,-7.1494,-7.1494,-7.1494,-7.1494,-7.1494,-7.1494,-7.1494,-7.1494,-7.1494,-7.1494,-7.1494,0.0,0.0,-7.1494,-7.1494,-7.1494,-7.1494,-7.1494,-7.1494,-7.1494,-7.1494,-7.1494,0.0,0.0,0.0,0.0,0.0,0.0,-3.4687,-3.4979,-3.5825,-3.9623,-4.0738,-4.0358,-3.8159,-3.6546,-3.3829,-2.9382,-2.7588,0.0,0.0,0.0,0.0,0.0,0.0,0.0,0.0,0.0,-2.3763,-2.4474,-2.5203,-2.5203,-2.4541,-2.5997,-2.6285,-2.5609,0.0,0.0,0.0,0.0,0.0,0.0,0.0,0.0,-2.8555,0.0,0.0,0.0,0.0,0.0,0.0,0.0,0.0,0.0,0.0,-4.2303,-4.3879,0.0,-5.0691,-5.1828,-5.4255,-5.5414,-5.5993,-5.5993,-5.4834,-5.3059,-5.0669,-4.7627,-4.4403,-4.1198,-3.9948,-3.9405,-3.9405,-4.0021,-4.1325,0.0,0.0,0.0,0.0,0.0,0.0,0.0,0.0,-6.2657,-6.4215,-6.5844,-6.6786,-6.6786,-6.6786,0.0,-6.9134,-6.9207,-6.9901,-7.1458,-7.1494,-7.1494,-7.1494,-7.1494,-7.1494,-7.1494,-7.1494,-7.1494,-7.1494,-7.1494,-7.1494,-7.1494,0.0,0.0,0.0,-7.1494,-7.1494,-7.1494,-7.1494,-7.1494,-7.1494,-7.1494,-7.1494,-7.1494,0.0,0.0,0.0,0.0,0.0,0.0,0.0,-3.1664,-3.2645,-3.5859,-3.6907,-3.7087,-3.6411,-3.4991,-3.2713,-2.9314,-2.7588,0.0,0.0,0.0,0.0,0.0,0.0,0.0,0.0,0.0,-2.4778,-2.7588,-2.7825,-2.857,-2.9822,-3.0296,-2.9585,-2.7909,-2.7909,0.0,0.0,0.0,0.0,0.0,0.0,-2.8298,-2.9972,0.0,0.0,0.0,0.0,0.0,0.0,0.0,0.0,0.0,0.0,0.0,0.0,-4.5236,-4.8155,-5.0655,-5.1393,-5.2589,-5.3458,-5.2915,-5.1176,-4.9112,-4.7228,-4.4765,-4.2248,-4.0166,-3.9115,-3.8589,-3.8589,-4.0093,-4.1922,-4.3788,0.0,0.0,0.0,0.0,0.0,0.0,-6.1679,-6.3237,0.0,0.0,-6.6207,-6.675,-6.6786,-6.751,-6.9134,-6.9207,-6.9901,-7.1458,-7.1494,-7.1494,-7.1494,-7.1494,-7.1494,-7.1494,-7.1494,-7.1494,-7.1494,-7.1494,-7.1494,0.0,0.0,0.0,0.0,-7.1494,-7.1494,-7.1494,-7.1494,-7.1494,-7.1494,-7.1494,-7.1494,-7.1494,0.0,0.0,0.0,0.0,0.0,0.0,0.0,-2.9717,-3.0852,-3.2983,-3.4134,-3.4856,-3.5126,-3.3626,-3.1596,-2.9213,-2.7351,0.0,0.0,0.0,0.0,0.0,0.0,0.0,0.0,-2.4628,-2.6488,-2.9416,-3.0818,-3.1765,-3.2327,-3.3478,-3.2666,-3.0228,-2.9958,-2.9145,0.0,0.0,0.0,0.0,-2.7326,-2.8767,-3.0484,0.0,0.0,0.0,0.0,0.0,0.0,0.0,0.0,0.0,0.0,0.0,0.0,0.0,-4.5164,-4.8119,-4.9329,-5.0379,-5.1104,-5.0886,-4.8786,-4.6468,-4.5128,-4.2774,-4.0492,-3.9188,-3.8553,-3.8299,-3.8625,-4.0311,-4.2429,-4.4657,-4.6106,0.0,0.0,0.0,0.0,-6.0231,0.0,0.0,0.0,-6.5591,-6.6279,-6.675,-6.6786,-6.7366,-6.8669,-6.9062,-6.9756,-7.106,-7.135,-7.1494,-7.1494,-7.1494,-7.1494,-7.1494,-7.1494,-7.1494,-7.1494,-7.1494,-7.1494,0.0,0.0,0.0,0.0,-7.1494,-7.1494,-7.1494,-7.1494,-7.1494,-7.1494,-7.1494,-7.1494,-7.1531,0.0,0.0,0.0,0.0,0.0,0.0,0.0,-2.8838,-3.004,-3.0717,-3.2036,-3.3152,-3.3795,-3.2036,-3.0228,-2.8807,0.0,0.0,0.0,0.0,0.0,0.0,0.0,0.0,-2.4711,-2.686,-2.8804,-3.0495,-3.4011,-3.4776,-3.2936,-3.578,-3.5509,-3.2598,-3.1921,-3.1055,-2.9939,0.0,0.0,0.0,-2.8372,-2.9213,0.0,0.0,0.0,0.0,0.0,0.0,0.0,0.0,0.0,0.0,0.0,0.0,0.0,0.0,0.0,0.0,0.0,-4.8475,-4.8822,-4.9474,-4.7373,-4.491,-4.4114,-4.1615,0.0,-3.85,-3.8336,-3.8553,-3.9333,-4.0854,-4.2936,-4.5997,-4.7265,0.0,0.0,0.0,0.0,0.0,-6.2983,0.0,-6.5591,-6.6351,-6.6786,-6.6786,-6.6786,-6.7148,-6.7981,-6.8742,-6.9569,-7.0372,-7.1132,-7.1494,-7.1494,-7.1494,-7.1494,-7.1494,-7.1494,-7.1494,-7.1494,-7.1494,-7.1494,0.0,0.0,0.0,0.0,-7.1494,-7.1494,-7.1494,-7.1494,-7.1494,-7.1494,-7.1494,-7.1494,-7.1639,0.0,0.0,0.0,0.0,0.0,0.0,0.0,0.0,0.0,0.0,-2.7706,-2.8146,-2.774,-2.7232,-2.6556,0.0,0.0,0.0,0.0,0.0,0.0,0.0,0.0,0.0,-2.6979,-2.8669,-3.1103,-3.4315,-3.6343,-3.7686,-3.8294,-3.958,-3.8565,-3.5746,-3.5577,-3.3457,-3.0074,-2.9364,0.0,0.0,-2.944,-3.0202,0.0,0.0,0.0,0.0,-3.1896,-3.2388,0.0,0.0,0.0,0.0,0.0,0.0,0.0,0.0,-4.0057,-4.0782,-4.2122,0.0,-4.6033,-4.5599,-4.4476,-4.3244,0.0,-4.1198,0.0,0.0,0.0,0.0,0.0,-4.2556,-4.491,-4.6287,0.0,-5.0416,-5.3059,0.0,0.0,-6.1362,-6.3309,-6.4939,-6.6388,-6.6677,-6.6786,-6.6786,-6.6786,-6.7148,-6.7981,-6.8742,-6.9569,-7.0372,-7.1132,-7.1494,-7.1494,-7.1494,-7.1494,-7.1494,-7.1494,-7.1494,-7.1494,-7.1494,-7.1494,0.0,0.0,0.0,-7.1494,-7.1494,-7.1494,-7.1494,-7.1494,-7.1494,-7.1494,-7.1494,-7.1494,-7.1639,0.0,0.0,0.0,0.0,0.0,0.0,0.0,0.0,0.0,0.0,0.0,0.0,0.0,0.0,0.0,0.0,0.0,0.0,0.0,0.0,0.0,0.0,0.0,0.0,-2.8804,-3.1021,-3.3457,-3.6163,-3.8667,-3.9986,-4.013,-4.1204,-4.029,-3.7743,-3.6355,-3.3998,-3.1055,-3.0412,-3.0074,-3.0025,-3.0074,0.0,0.0,0.0,0.0,0.0,-3.1712,-3.2074,0.0,-3.4545,-3.5553,-3.6295,0.0,0.0,0.0,0.0,-3.9115,-3.9478,-3.9876,-4.1796,-4.3534,-4.3099,-4.2665,-4.2339,-4.2266,0.0,0.0,0.0,0.0,0.0,0.0,0.0,0.0,0.0,-4.98,0.0,0.0,0.0,0.0,-6.2404,-6.4287,-6.5844,0.0,-6.6786,-6.6786,-6.6786,-6.6786,-6.7003,-6.7438,-6.8199,-6.8995,-6.9823,-7.0589,-7.1168,-7.1494,-7.1494,-7.1494,-7.1494,-7.1494,-7.1494,-7.1494,-7.1494,-7.1494,0.0,0.0,0.0,-7.1494,-7.1494,-7.1494,-7.1494,-7.1494,-7.1494,-7.1494,-7.1494,-7.1748,-7.2183,0.0,0.0,0.0,0.0,0.0,0.0,0.0,0.0,0.0,0.0,0.0,0.0,0.0,0.0,0.0,0.0,0.0,0.0,0.0,0.0,0.0,0.0,0.0,-2.9668,-3.0751,-3.366,-3.5949,-3.7472,-4.1035,-4.2185,-4.0975,-4.2219,-4.1508,-3.9039,-3.5994,-3.3829,-3.2361,-3.0886,-3.0649,-3.1157,-3.0514,0.0,0.0,0.0,0.0,0.0,0.0,0.0,0.0,-3.5136,-3.622,-3.6789,-3.8487,0.0,0.0,0.0,0.0,0.0,-3.9514,-4.0709,-4.1922,-4.2031,-4.2175,-4.2465,-4.3281,0.0,0.0,0.0,0.0,0.0,0.0,-4.7373,0.0,0.0,0.0,0.0,-5.5957,0.0,0.0,-6.3345,-6.5301,0.0,-6.6967,-6.6858,-6.6786,-6.6786,-6.6786,-6.6786,-6.6786,-6.7583,-6.838,-6.9171,-6.9973,-7.0734,-7.1494,-7.1494,-7.1494,-7.1494,-7.1494,-7.1494,-7.1494,-7.1494,-7.1494,-7.1494,0.0,0.0,-7.1494,-7.1494,-7.1494,-7.1494,-7.1494,-7.1494,-7.1531,-7.1639,-7.211,-7.2834,0.0,0.0,0.0,0.0,0.0,0.0,0.0,0.0,0.0,0.0,0.0,0.0,0.0,0.0,0.0,0.0,0.0,0.0,0.0,0.0,0.0,0.0,-2.9364,-3.1157,-3.3761,-3.6772,-3.9039,-4.0527,-4.3639,-4.506,-4.4857,-4.5094,-4.3301,-3.9792,-3.6783,-3.4585,-3.3119,-3.1664,-3.1089,-3.119,-3.1089,0.0,0.0,0.0,0.0,0.0,0.0,0.0,0.0,-3.367,-3.5257,-3.6966,-3.7268,0.0,0.0,0.0,0.0,0.0,-3.9985,-4.1506,-4.2882,-4.357,-4.4258,-4.4947,-4.578,0.0,0.0,0.0,0.0,0.0,0.0,-5.0778,-5.2697,0.0,0.0,-5.5921,0.0,0.0,-6.1933,-6.3961,0.0,-6.6315,-6.7692,-6.7221,-6.6786,-6.6786,-6.6786,-6.6786,-6.6786,-6.7583,-6.838,-6.9171,-6.9973,-7.0734,-7.1494,-7.1494,-7.1494,-7.1494,-7.1494,-7.1494,-7.1494,-7.1494,-7.1494,-7.1494,0.0,-7.1494,-7.1494,-7.1494,-7.1494,-7.1494,-7.1494,-7.1494,-7.1567,-7.2255,-7.2617,-7.2907,0.0,0.0,0.0,0.0,0.0,0.0,0.0,0.0,0.0,0.0,0.0,0.0,0.0,0.0,0.0,0.0,0.0,0.0,0.0,0.0,0.0,0.0,-3.1495,-3.3085,-3.5712,-3.8261,-4.0324,-4.1779,-4.4012,-4.5297,-4.5703,-4.4857,-4.2902,-3.9995,-3.7415,-3.5419,-3.3897,-3.2429,-3.1562,-3.119,0.0,0.0,0.0,0.0,0.0,0.0,0.0,0.0,0.0,0.0,-3.5721,-3.7614,-3.7409,0.0,0.0,0.0,0.0,0.0,-4.0836,-4.2339,-4.4041,-4.6178,-4.7301,-4.7989,-4.8351,0.0,0.0,0.0,0.0,0.0,0.0,0.0,-5.3494,-5.4834,0.0,-5.8673,-6.0701,-6.2766,-6.4468,0.0,0.0,-6.704,-6.7329,-6.704,-6.6786,-6.6786,-6.6786,-6.6786,-6.6786,-6.7148,-6.7909,-6.9171,-6.9569,-7.0299,-7.1494,-7.1494,-7.1494,-7.1494,-7.1494,-7.1494,-7.1494,-7.1494,-7.1494,-7.1494,0.0,-7.1494,-7.1494,-7.1494,-7.1494,-7.1494,-7.1494,-7.1784,-7.2291,-7.3559,-7.403,-7.4142,0.0,0.0,0.0,0.0,0.0,0.0,0.0,0.0,0.0,0.0,0.0,0.0,0.0,0.0,0.0,0.0,0.0,0.0,0.0,0.0,-2.7537,-3.1853,0.0,-3.5216,-3.8048,-4.0087,-4.1982,-4.3606,-4.5128,-4.5906,-4.594,-4.4587,-4.2665,-4.0265,-3.8227,-3.6366,-3.4641,-3.3004,-3.1989,-3.1427,0.0,0.0,0.0,0.0,0.0,0.0,0.0,0.0,0.0,0.0,0.0,0.0,0.0,0.0,0.0,-3.9731,-4.0202,-4.1216,-4.1813,-4.357,-4.5924,-4.8749,0.0,0.0,0.0,0.0,0.0,0.0,0.0,0.0,0.0,-5.2806,0.0,-5.7333,-5.8963,-6.0665,-6.2875,-6.512,-6.6533,-6.6533,-6.7221,-6.7474,-6.6858,-6.6786,-6.6786,-6.6786,-6.6786,-6.6786,-6.6786,-6.6786,-6.7547,-6.9171,-6.9207,-6.9937,-7.1494,-7.1494,-7.1494,-7.1494,-7.1494,-7.1494,-7.1494,-7.1494,-7.1494,-7.1494,-7.1494,-7.1494,-7.1494,-7.1494,-7.1494,-7.1531,-7.1712,-7.24,-7.3414,-7.4649,-7.5192,-7.5478,0.0,0.0,0.0,0.0,0.0,0.0,0.0,0.0,0.0,0.0,0.0,0.0,0.0,0.0,0.0,0.0,0.0,0.0,-2.4338,-2.5169,-2.73,-3.1089,0.0,0.0,-4.1813,-4.3464,-4.5331,-4.75,-4.8984,-4.868,-4.6684,-4.5906,-4.3978,-4.1068,-3.9512,-3.7618,-3.5363,-3.3241,-3.2259,-3.2158,-3.1481,0.0,0.0,0.0,0.0,0.0,0.0,0.0,0.0,0.0,0.0,0.0,0.0,0.0,-3.955,-3.9405,-4.0981,-4.2756,-4.2792,-4.5635,-4.8967,-5.0705,-5.0597,0.0,-5.2915,-5.353,0.0,-5.2444,0.0,0.0,0.0,-5.6899,-5.8311,-5.9289,-6.0158,-6.1317,-6.2947,0.0,-6.57,-6.57,-6.6388,-6.6858,-6.6822,-6.6786,-6.6786,-6.6786,-6.6786,-6.6786,-6.6786,-6.6786,-6.7547,-6.9171,-6.9207,-6.9937,-7.1494,-7.1494,-7.1494,-7.1494,-7.1494,-7.1494,-7.1494,-7.1494,-7.1494,-7.1494,-7.1494,-7.1494,-7.1494,-7.1494,-7.1494,-7.1567,-7.2327,-7.3559,-7.4938,-7.5047,-7.5587,-7.6203,0.0,0.0,0.0,0.0,0.0,0.0,0.0,0.0,0.0,0.0,0.0,0.0,0.0,0.0,0.0,0.0,0.0,0.0,-2.444,-2.5625,-2.8146,-3.2374,-3.4066,-3.7686,-4.3599,-4.4756,-4.638,-4.8578,-4.9154,-4.8511,-4.6786,-4.6041,-4.4316,-4.1813,-4.035,-3.843,-3.6231,-3.4426,-3.3139,-3.2293,-3.1989,-3.1695,0.0,0.0,0.0,0.0,0.0,0.0,0.0,0.0,-3.4584,-3.6456,-3.7288,-3.9049,-4.0926,-4.1433,-4.2918,-4.4729,-4.6214,-4.8098,-5.0271,-5.2878,-5.3313,0.0,0.0,-5.5595,-5.6138,-5.4363,-5.5051,0.0,0.0,0.0,-5.8565,-6.139,-6.1245,-6.1716,-6.4323,-6.5229,-6.5772,-6.6279,-6.6605,-6.6786,-6.6786,-6.6786,-6.6786,-6.6786,-6.6786,-6.6786,-6.6786,-6.6786,-6.7329,-6.8416,-6.8923,-6.975,-7.0806,-7.1277,-7.1494,-7.1494,-7.1494,-7.1494,-7.1494,-7.1494,-7.1494,-7.1494,-7.1494,-7.1494,-7.1531,-7.2038,-7.2255,-7.24,-7.3704,-7.454,-7.5155,-7.5659,-7.6022,-7.6275,0.0,0.0,0.0,0.0,0.0,0.0,0.0,0.0,0.0,0.0,0.0,0.0,0.0,0.0,0.0,0.0,0.0,0.0,-2.4812,-2.6471,-2.9093,-3.2882,-3.4438,-3.7845,-4.343,-4.5162,-4.7124,-4.9357,-4.8883,-4.7902,-4.6413,-4.5432,-4.4147,-4.2557,0.0,0.0,-3.7405,0.0,0.0,-3.297,-3.2496,-3.2069,0.0,0.0,0.0,0.0,0.0,0.0,0.0,0.0,-3.4115,-3.5876,-3.7001,-3.8851,-4.089,-4.2448,-4.4403,-4.6432,-4.8076,-5.0053,-5.2118,-5.4363,0.0,0.0,-5.5957,-5.7043,-5.7478,-5.5631,-5.6464,0.0,-5.8637,0.0,0.0,0.0,-6.2331,-6.2802,-6.5265,-6.5808,-6.617,-6.675,-6.6786,-6.6786,-6.6786,-6.6786,-6.6786,-6.6786,-6.6786,-6.6786,-6.6786,-6.6786,-6.7184,-6.7981,-6.8778,-6.9605,-7.0372,-7.1132,-7.1494,-7.1494,-7.1494,-7.1494,-7.1494,-7.1494,-7.1494,-7.1494,-7.1494,-7.1639,-7.1929,-7.2472,-7.3016,-7.3595,-7.4649,-7.5261,-7.5551,-7.6094,-7.6275,-7.6275,0.0,0.0,0.0,0.0,0.0,0.0,0.0,0.0,0.0,0.0,0.0,0.0,0.0,0.0,0.0,0.0,0.0,0.0,-2.5559,-2.774,-2.9991,-3.2192,-3.517,-3.8159,-4.1136,-4.4857,-4.7868,-5.0067,-4.8646,-4.7158,-4.5669,-4.4119,0.0,0.0,0.0,0.0,0.0,0.0,0.0,-3.4392,-3.2903,-3.2534,-3.2873,0.0,0.0,0.0,0.0,0.0,0.0,0.0,-3.3473,-3.3573,-3.8,-3.8862,-3.8843,-4.2031,-4.52,-4.7714,-4.7751,-5.1285,-5.4943,0.0,0.0,0.0,-5.8202,-5.7768,-5.6971,-5.6174,-5.8601,-6.0593,-5.9796,-6.1571,0.0,-6.2159,-6.3382,-6.4685,-6.5482,-6.6315,-6.6786,-6.6786,-6.6786,-6.6786,-6.6786,-6.6786,-6.6786,-6.6786,-6.6786,-6.6786,-6.6786,-6.6786,-6.7184,-6.7981,-6.8778,-6.9605,-7.0403,-7.1132,-7.1494,-7.1494,-7.1494,-7.1494,-7.1494,-7.1494,-7.1494,-7.1531,-7.1531,-7.1965,-7.2726,-7.2726,-7.3667,-7.5083,-7.5083,-7.5623,-7.6275,-7.6275,-7.6275,-7.6275,0.0,0.0,0.0,0.0,0.0,0.0,0.0,0.0,0.0,0.0,0.0,0.0,0.0,0.0,0.0,0.0,0.0,0.0,-2.5609,-2.8213,-3.0514,-3.2226,-3.4155,-3.684,-4.0333,-4.3606,-4.6583,-4.9323,-4.939,-4.8173,-4.5703,-4.5771,0.0,-4.2591,0.0,0.0,0.0,0.0,0.0,-3.5659,-3.4385,-3.3455,-3.2835,0.0,0.0,0.0,0.0,0.0,0.0,0.0,0.0,0.0,-3.8361,-3.9985,-4.127,-4.4476,-4.7699,-5.0597,-5.2299,-5.4617,0.0,-5.7224,0.0,0.0,0.0,-5.7804,0.0,0.0,-6.0629,-6.2404,-6.2186,0.0,0.0,-6.5156,-6.483,-6.4867,-6.6243,-6.6641,-6.6786,-6.6786,-6.6786,-6.6786,-6.6786,-6.6786,-6.6786,-6.6786,-6.6786,-6.6786,0.0,-6.6786,-6.6931,-6.7148,-6.8488,-6.9316,-6.9569,-7.0842,-7.1494,-7.1494,-7.1494,-7.1494,-7.1494,-7.1494,-7.182,-7.2364,-7.2364,-7.2798,-7.3595,-7.4142,-7.5008,-7.5949,-7.5949,-7.6094,-7.6275,-7.6275,-7.6275,-7.6384,0.0,0.0,0.0,0.0,0.0,0.0,0.0,0.0,-2.2313,-2.2313,-2.2313,-2.2313,0.0,0.0,0.0,-2.2313,-2.4308,-2.5728,-2.6015,-2.8856,-3.1055,-3.2259,-3.3998,-3.6569,-4.0028,-4.2185,-4.4418,-4.6786,-4.7834,-4.7124,-4.4823,0.0,0.0,-4.276,0.0,0.0,0.0,0.0,0.0,-3.725,-3.5598,-3.4746,-3.4329,0.0,0.0,0.0,0.0,0.0,0.0,0.0,0.0,0.0,-3.8195,-3.9985,-4.1922,-4.5454,-4.8786,-5.1828,-5.4255,-5.6247,0.0,-5.8275,-5.8637,-5.8818,-5.8673,0.0,0.0,0.0,-6.2223,-6.3671,-6.3671,-6.4178,0.0,-6.6134,-6.5772,-6.57,-6.6677,-6.6786,-6.6786,-6.6786,-6.6786,-6.6786,-6.6786,-6.6786,-6.6786,-6.6786,-6.6786,0.0,0.0,-6.6786,-6.6786,-6.6786,-6.8343,-6.9207,-6.9207,-7.0734,-7.1494,-7.1494,-7.1494,-7.1675,-7.2001,-7.2001,-7.2255,-7.2762,-7.3378,-7.3957,-7.4464,-7.5261,-7.5877,-7.6275,-7.6275,-7.6275,-7.6275,-7.6275,-7.6492,-7.6855,0.0,0.0,0.0,0.0,0.0,0.0,0.0,-2.2313,-2.2313,-2.2313,-2.2313,-2.2313,0.0,0.0,0.0,-2.2313,-2.4375,-2.5947,-2.6556,-2.9499,-3.1515,-3.2158,-3.4336,-3.6817,-3.9623,-4.0426,-4.1542,-4.3003,-4.4756,-4.4857,0.0,0.0,-4.4857,-4.3308,0.0,-4.3267,0.0,0.0,0.0,-3.8773,-3.6547,-3.6051,-3.6412,-3.4782,0.0,0.0,0.0,0.0,0.0,0.0,0.0,0.0,-3.7775,-3.9369,-4.1379,-4.5273,-4.8786,-5.19,-5.4255,-5.6681,0.0,-5.842,-5.8999,0.0,-6.081,-6.0448,-6.0339,-6.1688,0.0,-6.4468,-6.4396,-6.5736,-6.6569,-6.5844,-6.6315,-6.6786,-6.6786,-6.6786,-6.6786,-6.6786,-6.6786,-6.6786,-6.6786,-6.6786,-6.6786,-6.6786,0.0,0.0,-6.6786,-6.6786,-6.6822,-6.6895,-6.838,-6.9243,-6.9316,-7.077,-7.1531,-7.1603,-7.1603,-7.2038,-7.2834,-7.2726,-7.2798,-7.3016,-7.4573,-7.5192,-7.5264,-7.5985,-7.6275,-7.6275,-7.6275,-7.6275,-7.6311,-7.6384,-7.6855,-7.7507,0.0,0.0,0.0,0.0,0.0,0.0,-2.2313,-2.2313,-2.2313,-2.2313,-2.2313,-2.2313,-2.2313,-2.2313,0.0,-2.2313,-2.4864,-2.6285,-2.5879,-2.9194,-3.1258,-3.1427,-3.3558,-3.5318,-3.6546,-3.7347,-3.8464,-3.9952,-4.3234,-4.435,0.0,0.0,0.0,-4.2557,0.0,-4.276,0.0,0.0,-3.8476,-3.846,-3.68,-3.5704,-3.5122,-3.5324,-3.4597,0.0,0.0,0.0,0.0,0.0,0.0,0.0,-3.8359,-4.0202,-4.1994,-4.4765,-4.8713,-5.2625,-5.4436,-5.708,0.0,0.0,-5.8999,-6.0158,-6.2223,-6.2549,-6.2331,-6.2078,-6.378,-6.5156,-6.4504,-6.5736,-6.675,-6.6569,-6.6677,-6.6786,-6.6786,-6.6786,-6.6786,-6.6786,-6.6786,-6.6786,-6.6786,-6.6786,-6.6786,0.0,0.0,0.0,-6.6786,-6.6786,-6.7112,-6.7728,-6.8669,-6.9497,-7.0149,-7.106,-7.182,0.0,-7.2436,-7.2871,-7.3631,-7.3016,-7.3414,-7.4645,-7.5623,-7.6022,-7.6058,-7.6239,-7.6275,-7.6275,-7.6275,-7.6275,-7.6384,-7.7,-7.7362,-7.7688,0.0,0.0,0.0,0.0,0.0,0.0,0.0,0.0,-2.2699,-2.2347,-2.2313,-2.2313,-2.2313,-2.2313,0.0,0.0,-2.4575,-2.5913,-2.6607,-2.8856,-3.0635,-3.1684,-3.2835,-3.3795,-3.4518,-3.5284,-3.6457,-3.7946,-4.0257,-4.1542,0.0,0.0,0.0,-4.1847,0.0,-4.3132,0.0,0.0,-3.9922,-3.9939,-3.8112,-3.724,-3.6936,-3.6457,-3.5668,-3.484,-3.5296,0.0,0.0,0.0,0.0,0.0,0.0,0.0,-4.1066,-4.3652,-4.7299,-5.1151,-5.4098,0.0,0.0,-5.8782,0.0,-6.0701,-6.273,-6.349,-6.3744,-6.3744,-6.4722,-6.5591,-6.5555,-6.6243,-6.6786,-6.6786,-6.6786,-6.6786,-6.6786,-6.6786,-6.6786,-6.6786,-6.6786,-6.6786,-6.6786,-6.6786,0.0,0.0,0.0,-6.6786,-6.6786,-6.6786,-6.7003,-6.7402,-6.8561,-6.9424,-6.9823,-7.0951,-7.1893,-7.2726,-7.2726,-7.3342,-7.4464,-7.4066,-7.4537,-7.5696,-7.613,-7.6275,-7.6275,-7.6275,-7.6275,-7.6348,-7.671,-7.6855,-7.6963,-7.776,-7.8303,-7.8774,0.0,0.0,0.0,0.0,0.0,0.0,0.0,0.0,0.0,-2.2381,-2.2313,-2.2347,-2.2482,-2.2496,-2.2801,0.0,0.0,0.0,-2.7486,-2.8586,-3.0059,-3.2022,-3.2124,-3.2462,-3.3186,-3.3795,-3.4866,-3.6423,-3.7144,0.0,0.0,0.0,0.0,-4.1305,0.0,0.0,0.0,0.0,0.0,-4.1488,-3.964,-3.9029,-3.9055,-3.7718,-3.6884,-3.6498,-3.6713,-3.6386,-3.6019,-3.681,0.0,0.0,0.0,0.0,-3.9629,-4.2282,-4.5272,-4.8644,-5.3074,0.0,-5.6971,-5.9434,-6.0412,0.0,-6.2838,-6.3816,-6.4613,-6.5446,-6.57,-6.6025,-6.6677,-6.6786,-6.6786,-6.6786,-6.6786,-6.6786,-6.6786,-6.6786,-6.6786,-6.6786,-6.6786,-6.6786,-6.6786,0.0,0.0,0.0,0.0,-6.6786,-6.6786,-6.6786,-6.6931,-6.7221,-6.8488,-6.9352,-6.9605,-7.0987,-7.211,-7.2907,-7.3197,-7.403,-7.5334,-7.5334,-7.5659,-7.6275,-7.6275,-7.6203,-7.6094,-7.6384,-7.642,-7.6384,-7.7326,-7.7724,-7.7796,-7.8593,-7.9318,-7.9933,0.0,0.0,0.0,0.0,0.0,0.0,0.0,0.0,0.0,0.0,-2.2313,-2.255,-2.3173,-2.3241,-2.3545,-2.4271,-2.5625,-2.6522,-2.6826,0.0,0.0,-3.1292,-3.1326,-3.1684,-3.2429,-3.253,-3.3309,-3.4832,-3.5554,0.0,0.0,0.0,0.0,0.0,0.0,0.0,0.0,0.0,0.0,0.0,0.0,0.0,0.0,0.0,0.0,-3.7749,-3.8489,-3.781,-3.6786,-3.7597,-3.6985,0.0,0.0,0.0,-3.8672,-4.078,-4.3227,-4.6147,0.0,0.0,-5.8673,0.0,-6.1245,-6.1245,0.0,0.0,-6.4613,0.0,-6.6134,-6.6677,-6.6786,-6.6786,-6.6786,-6.6786,-6.6786,-6.6786,-6.6786,-6.6786,-6.6786,-6.6786,-6.6786,-6.6786,0.0,0.0,0.0,0.0,-6.6786,-6.6786,-6.6786,-6.6786,-6.7438,-6.8845,-6.9098,-6.9828,-7.1168,-7.211,-7.2943,-7.3776,-7.5152,-7.5913,-7.613,-7.613,-7.6203,-7.6275,-7.6275,-7.5913,-7.537,-7.6746,-7.6927,-7.6456,-7.7941,-7.8557,-7.8629,-7.9462,-7.9825,-8.0006,0.0,0.0,0.0,0.0,0.0,0.0,0.0,0.0,0.0,0.0,0.0,-2.3492,-2.341,-2.3763,-2.4135,-2.4474,-2.5473,-2.642,-2.7249,-2.8687,-2.9634,-2.9958,-2.9958,-3.0311,-3.1055,-3.1461,-3.2408,-3.3863,-3.5025,0.0,0.0,-4.0832,-4.1508,0.0,0.0,0.0,0.0,0.0,0.0,0.0,0.0,0.0,0.0,0.0,0.0,0.0,0.0,-3.9948,-3.8619,-3.8334,-3.7426,-3.6358,-3.6527,0.0,0.0,0.0,-4.0989,0.0,-4.9748,-5.4762,-5.8746,0.0,-6.1426,-6.2331,-6.3019,0.0,-6.5156,-6.5518,-6.6243,-6.6786,-6.6786,-6.6786,-6.6786,-6.6786,-6.6786,-6.6786,-6.6786,-6.6786,-6.6786,-6.6786,-6.6786,0.0,0.0,0.0,0.0,0.0,-6.6786,-6.6786,-6.6786,-6.6786,-6.7329,-6.8488,-6.8959,-6.9937,-7.1494,-7.2291,-7.3342,-7.4576,-7.5732,-7.6275,-7.6275,-7.5841,-7.5877,-7.6275,-7.5804,-7.5696,-7.5804,-7.6058,-7.6492,-7.7036,-7.776,-7.8593,-7.9426,-7.9788,-8.0187,-8.0621,0.0,0.0,0.0,0.0,0.0,0.0,0.0,0.0,0.0,0.0,0.0,-2.4643,-2.4271,0.0,0.0,0.0,-2.5947,-2.664,-2.7722,-2.8552,-2.901,-2.901,-2.901,-2.9281,-2.9803,-3.0548,-3.1562,-3.2848,0.0,0.0,-3.9039,-4.0324,-4.1238,0.0,-4.1982,0.0,0.0,0.0,0.0,0.0,0.0,0.0,0.0,0.0,0.0,0.0,0.0,0.0,-4.1078,-3.986,-3.8606,-3.7399,-3.6797,-3.654,0.0,0.0,0.0,0.0,0.0,0.0,-5.755,0.0,0.0,0.0,0.0,0.0,-6.4975,0.0,-6.5772,-6.6496,-6.6496,-6.6677,-6.6786,-6.6786,-6.6786,-6.6786,-6.6786,-6.6786,-6.6786,-6.6786,0.0,0.0,0.0,0.0,0.0,0.0,-6.6786,-6.6786,-6.6786,-6.6786,-6.7184,-6.7981,-6.8959,-7.0154,-7.1494,-7.2726,-7.403,-7.5406,-7.6022,-7.6167,-7.5985,-7.5587,-7.5623,-7.5949,-7.537,-7.5442,-7.5985,-7.5804,-7.6311,-7.7253,-7.7869,-7.8847,-7.9933,-8.0151,-8.0585,-8.1128,0.0,0.0,0.0,0.0,0.0,0.0,0.0,0.0,0.0,0.0,0.0,-2.5778,-2.6454,-2.7181,-2.7943,-2.8705,-2.8112,-2.7722,-2.779,-2.8552,-2.901,-2.901,-2.901,0.0,-2.9077,-2.977,-3.0548,0.0,0.0,0.0,-3.9005,-3.9817,-4.1279,-4.3308,-4.4079,-4.3897,-4.3147,0.0,0.0,0.0,0.0,0.0,0.0,0.0,0.0,0.0,0.0,0.0,-4.4141,-4.2584,-4.0923,-3.9216,-3.7779,-3.713,0.0,0.0,0.0,0.0,0.0,0.0,0.0,0.0,0.0,0.0,0.0,0.0,0.0,-6.3309,-6.4577,-6.5663,-6.5663,-6.6279,-6.6786,-6.6786,-6.6786,-6.6786,-6.6786,-6.6786,-6.6786,0.0,0.0,0.0,0.0,0.0,0.0,0.0,-6.6786,-6.6786,-6.6786,-6.6786,-6.7184,-6.7981,-6.9502,-7.0698,-7.1494,-7.3812,-7.5406,-7.6239,-7.6275,-7.5913,-7.5192,-7.5913,-7.5841,-7.5155,-7.5119,-7.5119,-7.5297,-7.6746,-7.6963,-7.6565,-7.8883,-7.9825,-8.0006,-8.0766,-8.1056,-8.1128,0.0,0.0,0.0,0.0,0.0,0.0,0.0,0.0,0.0,0.0,0.0,0.0,0.0,-2.8112,-2.8484,-2.8247,-2.7959,-2.779,-2.779,-2.7638,-2.7503,-2.7503,-2.7503,-2.774,-2.8213,-2.85,0.0,0.0,0.0,-3.4167,-3.8294,-3.9039,-4.0324,-4.2049,-4.3301,-4.3342,-4.267,-4.4204,0.0,0.0,0.0,0.0,0.0,0.0,0.0,0.0,0.0,0.0,0.0,-4.7216,-4.4638,-4.1763,-4.0476,0.0,0.0,0.0,0.0,0.0,0.0,0.0,0.0,0.0,0.0,0.0,0.0,-6.1498,-6.32,-6.32,-6.4867,-6.6388,-6.6388,-6.6605,-6.6786,-6.6786,-6.6786,-6.6786,-6.6786,-6.6786,0.0,0.0,0.0,0.0,0.0,0.0,0.0,0.0,0.0,-6.6786,-6.6786,-6.6786,-6.7184,-6.7981,-6.9539,-7.1494,-7.3812,-7.5189,-7.6022,-7.6275,-7.6275,-7.613,-7.5877,-7.5623,-7.5659,-7.5877,-7.5877,-7.6167,-7.6637,-7.671,-7.747,-7.8666,-7.8992,-7.9752,-8.0658,-8.0404,-8.0658,-8.1128,0.0,0.0,0.0,0.0,0.0,0.0,0.0,0.0,0.0,0.0,0.0,0.0,0.0,0.0,-3.0074,-2.9041,-2.8703,-2.8365,-2.7824,-2.735,-2.6962,-2.6691,-2.6691,-2.6928,-2.7418,-2.7689,0.0,0.0,0.0,0.0,0.0,-3.7787,-3.9039,-4.0527,-4.2016,-4.2388,0.0,0.0,0.0,-4.5555,0.0,0.0,-5.2347,0.0,0.0,0.0,0.0,0.0,0.0,0.0,0.0,0.0,0.0,0.0,0.0,0.0,0.0,0.0,0.0,0.0,0.0,0.0,0.0,0.0,0.0,0.0,-6.2404,-6.2404,-6.4323,-6.5989,-6.5989,-6.646,-6.6786,-6.6786,-6.704,-6.7112,-6.6858,0.0,0.0,0.0,0.0,0.0,0.0,0.0,0.0,0.0,0.0,0.0,-6.6786,-6.6786,-6.7547,-6.914,-7.048,-7.2581,-7.5478,-7.6022,-7.6275,-7.6275,-7.6275,-7.6167,-7.5877,-7.5623,-7.5804,-7.6311,-7.6565,-7.7,-7.747,-7.7217,-7.805,-7.9462,-7.9209,-7.9752,-8.0694,-8.0404,-8.0658,-8.1128,0.0,0.0,0.0,0.0,0.0,0.0,0.0,0.0,0.0,0.0,0.0,0.0,0.0,0.0,0.0,-3.136,-3.0548,-2.948,-2.7959,-2.7824,-2.7486,-2.6759,-2.6691,-2.6691,-2.6691,0.0,0.0,0.0,0.0,0.0,0.0,0.0,-3.7506,0.0,-4.046,-4.1136,-4.1271,0.0,-4.464,-4.6711,0.0,-5.1376,-5.2337,0.0,0.0,0.0,-5.6449,-5.6309,0.0,-5.4194,0.0,0.0,0.0,0.0,0.0,0.0,0.0,0.0,0.0,0.0,0.0,0.0,0.0,0.0,-5.8782,0.0,-6.0774,-6.0846,-6.273,-6.4396,-6.4396,-6.5736,-6.6786,-6.6786,-6.7474,-6.7764,-6.6967,0.0,0.0,0.0,0.0,0.0,0.0,0.0,0.0,0.0,-6.6786,-6.6786,-6.6786,-6.6822,-6.8271,-7.1422,-7.2291,-7.3849,-7.6275,-7.6275,-7.6275,-7.6275,-7.6275,-7.5913,-7.5192,-7.5985,-7.6348,-7.642,-7.7217,-7.7579,-7.7615,-7.8412,-7.8738,-7.8847,-7.9643,-7.9933,-8.0042,-8.0802,-8.1128,-8.1128,0.0,0.0,0.0,0.0,0.0,-2.9736,-3.048,-3.0751,-3.1529,0.0,0.0,0.0,0.0,0.0,0.0,-3.209,-3.1326,-3.048,-2.9514,-2.8432,-2.7722,-2.7486,-2.6996,-2.6691,-2.6691,0.0,0.0,0.0,0.0,0.0,0.0,0.0,0.0,0.0,-3.8396,-3.9411,-4.062,-4.3741,0.0,0.0,-5.1267,-5.3306,0.0,0.0,0.0,0.0,0.0,-6.001,-5.9329,0.0,-5.5957,-5.1665,0.0,0.0,0.0,0.0,0.0,0.0,-4.0546,0.0,0.0,0.0,0.0,0.0,0.0,0.0,0.0,-6.1435,-6.3128,-6.4396,-6.4396,-6.5736,-6.6605,-6.6025,-6.7112,-6.8126,0.0,0.0,0.0,0.0,0.0,0.0,0.0,0.0,0.0,0.0,-6.6786,-6.6786,-6.6786,-6.7366,-6.885,-7.1422,-7.2291,-7.3849,-7.6275,-7.6275,-7.6275,-7.6275,-7.6275,-7.6492,-7.6855,-7.7072,-7.747,-7.8086,-7.8883,-7.9245,-7.9245,-7.9499,-7.9897,-8.0476,-8.0694,-8.0766,-8.0802,-8.102,-8.1128,-8.1128,0.0,0.0,-2.9041,-2.8804,-2.977,-3.1021,-3.2374,-3.2848,-3.3728,0.0,0.0,0.0,0.0,0.0,0.0,0.0,-3.2983,-3.2002,-3.0649,-2.9736,-2.8804,-2.7858,-2.7384,-2.6996,-2.6708,-2.6691,0.0,0.0,0.0,0.0,0.0,0.0,0.0,0.0,0.0,0.0,0.0,0.0,0.0,0.0,-5.1419,0.0,0.0,-5.7683,-5.9407,0.0,0.0,0.0,-6.1397,-6.1077,-5.8497,0.0,0.0,0.0,0.0,0.0,0.0,0.0,0.0,0.0,0.0,0.0,0.0,0.0,0.0,0.0,0.0,0.0,-6.2512,-6.349,-6.3816,-6.4649,-6.5374,-6.5555,-6.6677,0.0,0.0,0.0,0.0,0.0,0.0,0.0,0.0,-6.8488,-6.8307,-6.7836,-6.7474,-6.7148,-6.6822,-6.7873,-6.943,-7.1458,-7.2617,-7.4211,-7.6275,-7.6275,-7.6275,-7.6275,-7.6275,-7.671,-7.7507,-7.7507,-7.8122,-7.9245,-7.9716,-8.0114,-8.0368,-8.0042,-8.0368,-8.1128,-8.1128,-8.1128,-8.1128,-8.1128,-8.1128,-8.1128,0.0,0.0,-2.8601,-2.9973,-3.1055,-3.2341,-3.4303,-3.5385,-3.6479,0.0,0.0,0.0,0.0,0.0,0.0,0.0,-3.525,-3.3964,-3.1833,-3.1461,-3.0412,-2.8398,-2.7993,-2.7486,-2.6826,-2.6725,0.0,0.0,0.0,0.0,0.0,0.0,0.0,0.0,-3.578,-3.8058,0.0,0.0,0.0,-4.8259,-5.1319,-5.2902,0.0,0.0,-5.8679,-5.8621,-6.004,-6.1488,-6.2578,-6.1466,-6.001,0.0,0.0,0.0,0.0,0.0,-4.3724,0.0,0.0,0.0,0.0,0.0,0.0,0.0,0.0,0.0,0.0,0.0,-6.0846,-6.1607,-6.2476,-6.273,-6.3309,-6.483,0.0,0.0,0.0,0.0,0.0,0.0,0.0,0.0,-6.9316,-6.9243,-6.9207,-6.9207,-6.8452,-6.7692,-6.6967,-6.8343,-6.9865,-7.1313,-7.3016,-7.4645,-7.613,-7.6239,-7.6275,-7.6275,-7.6384,-7.6855,-7.7651,-7.7724,-7.8593,-8.0042,-7.9933,-8.0332,-8.0911,-8.0114,-8.0295,-8.1092,-8.102,-8.102,-8.1128,-8.1128,-8.1128,-8.1128,-2.7891,-2.9277,-3.0615,-3.092,-3.3085,-3.489,-3.5329,-3.7077,-3.8667,0.0,0.0,0.0,0.0,0.0,0.0,0.0,0.0,-3.6535,-3.4856,-3.3051,-3.1887,-3.1447,-2.9093,-2.7722,-2.7587,-2.6996,0.0,0.0,0.0,0.0,0.0,0.0,0.0,0.0,0.0,0.0,0.0,0.0,0.0,-5.0754,-5.4337,0.0,-5.7049,-6.0246,-6.2139,-6.3226,-6.4135,-6.4717,-6.4511,-6.1315,-6.0296,-5.9627,0.0,0.0,0.0,-4.9292,0.0,0.0,0.0,0.0,0.0,0.0,0.0,0.0,0.0,-5.3349,0.0,0.0,-5.7043,-5.7623,-5.9072,-5.9868,-6.0629,0.0,0.0,0.0,0.0,0.0,0.0,0.0,0.0,0.0,-7.0009,-6.9605,-6.9207,-6.9207,-6.8452,-6.7945,-6.7764,-6.8669,-6.9642,-7.0553,-7.2762,-7.4392,-7.5334,-7.5985,-7.6275,-7.6311,-7.6963,-7.7688,-7.8484,-7.9136,-7.9969,-8.0839,-8.0187,-8.0006,-8.0078,-7.9281,-7.9788,-8.1056,-8.0404,-8.0549,-8.1128,-8.1128,-8.1128,-8.1128,-2.8484,-2.9905,-3.1664,-3.3152,-3.4619,-3.6242,-3.8125,-3.9039,-3.9943,0.0,0.0,0.0,0.0,0.0,0.0,0.0,0.0,0.0,-3.7415,-3.6265,-3.4967,-3.3478,-3.1224,-2.9702,-2.8973,-2.8213,-2.8028,0.0,0.0,0.0,0.0,0.0,0.0,0.0,0.0,0.0,0.0,0.0,-4.9854,-5.2858,-5.5038,0.0,-5.8458,-6.1114,-6.2817,-6.3968,-6.4759,-6.5046,-6.4771,-6.285,-6.2105,0.0,0.0,-5.6544,-5.4907,0.0,-4.9582,-4.7265,0.0,0.0,0.0,-4.4983,0.0,0.0,0.0,0.0,-5.353,-5.5124,-5.545,-5.5812,-5.6971,0.0,0.0,0.0,0.0,0.0,0.0,0.0,0.0,0.0,0.0,0.0,-6.975,-6.9461,-6.9207,-6.9207,-6.9176,-6.885,-6.8054,-6.914,-6.9973,-7.0403,-7.2291,-7.3885,-7.5083,-7.5515,-7.5913,-7.6311,-7.7108,-7.7905,-7.8738,-7.9535,-8.0114,-8.0476,-8.0078,-7.968,-7.9245,-7.8448,-7.9064,-8.0476,-8.0078,-8.0151,-8.0549,-8.0947,-8.1128,-8.1128,-2.9314,-3.0296,-3.2138,-3.5092,-3.5836,-3.7155,-4.0493,-4.0832,-4.1271,0.0,0.0,0.0,0.0,0.0,0.0,0.0,0.0,0.0,0.0,-3.9783,-3.8667,-3.6535,-3.4189,-3.2442,-3.1427,-3.0108,-2.9281,-2.901,0.0,0.0,0.0,0.0,0.0,0.0,0.0,0.0,0.0,0.0,0.0,-5.4758,0.0,-5.7695,-6.0038,-6.2145,-6.3437,-6.4245,-6.4622,-6.4737,-6.4693,-6.4657,-6.4303,-6.3599,-6.1832,-5.95,0.0,0.0,0.0,0.0,0.0,0.0,0.0,0.0,0.0,-4.7192,0.0,0.0,0.0,0.0,0.0,0.0,0.0,0.0,0.0,0.0,0.0,0.0,0.0,0.0,0.0,0.0,0.0,0.0,0.0,-6.943,-6.9823,-6.9647,-7.0372,-7.0082,-6.8307,-6.9611,-7.033,-7.0154,-7.182,-7.3414,-7.483,-7.5011,-7.5587,-7.6529,-7.7362,-7.8159,-7.8955,-7.9752,-8.0042,-7.9897,-7.9752,-7.9209,-7.8412,-7.776,-7.8267,-7.9462,-7.9607,-7.9861,-8.0223,-8.0875,-8.1128,-8.1128,-3.0378,-3.0649,-3.2138,-3.5092,-3.6715,-3.8227,-3.9961,-4.182,0.0,0.0,0.0,0.0,0.0,0.0,0.0,0.0,0.0,0.0,-4.4107,0.0,0.0,-4.343,-3.8159,-3.5487,-3.6051,-3.2699,-3.033,-2.901,0.0,0.0,0.0,0.0,0.0,0.0,-4.0849,0.0,0.0,0.0,-5.4261,0.0,-5.9189,-6.1706,0.0,-6.5646,-6.6763,-6.7294,-6.6025,-6.5554,-6.5561,0.0,-6.5975,-6.601,0.0,-6.2774,-6.1498,-5.7043,0.0,0.0,0.0,0.0,0.0,0.0,-4.7047,0.0,0.0,0.0,-4.7446,-4.8351,0.0,0.0,0.0,0.0,0.0,0.0,0.0,0.0,0.0,0.0,0.0,0.0,0.0,0.0,0.0,-7.0227,-7.2001,-7.1277,-7.2001,-7.1458,-6.9176,-6.9932,-7.0077,-6.9388,-7.1531,-7.3124,-7.403,-7.4721,-7.5877,-7.7362,-7.8195,-7.8992,-7.9788,-8.0621,-8.0585,-7.9861,-7.9136,-7.8376,-7.7615,-7.7543,-7.7615,-7.7833,-7.8557,-7.9716,-8.0984,-8.1092,-8.1128,-8.1128,-3.1089,-3.2002,-3.3931,-3.6502,-3.7821,-3.9309,-4.1651,-4.3544,0.0,0.0,0.0,0.0,0.0,0.0,0.0,0.0,0.0,-4.9255,-4.7868,0.0,0.0,-4.5263,-4.1136,-3.8599,-3.8115,-3.569,-3.3491,-3.1562,-3.2273,0.0,0.0,0.0,0.0,0.0,-4.3733,0.0,-4.9868,0.0,-5.8007,0.0,0.0,0.0,0.0,-6.5862,-6.5917,-6.6576,-6.6416,-6.6361,-6.6336,0.0,-6.6906,0.0,0.0,0.0,0.0,0.0,0.0,0.0,0.0,0.0,0.0,0.0,0.0,0.0,-4.8858,0.0,-4.7735,0.0,0.0,0.0,0.0,0.0,0.0,0.0,-5.0126,0.0,0.0,0.0,0.0,0.0,0.0,0.0,0.0,0.0,0.0,0.0,-7.1494,-7.1675,-6.9352,-7.0372,-7.0698,-6.9932,-7.1277,-7.2617,-7.3885,-7.3776,-7.4971,-7.7507,-7.7833,-7.8666,-7.9933,-8.073,-8.0404,-7.9209,-7.9354,-7.8412,-7.6818,-7.7289,-7.7507,-7.7543,-7.7869,-7.8992,-8.0404,-8.0404,-8.0984,-8.178,-3.2442,0.0,-3.5216,-3.7516,-3.8497,-3.9986,-4.2936,-4.4722,-4.5872,0.0,0.0,0.0,-5.0371,-5.0168,-5.0676,0.0,-5.2537,-5.2232,-5.1657,0.0,-4.9864,-4.9086,-4.5196,-4.2625,-4.1745,-3.9503,-3.6975,-3.4336,0.0,0.0,0.0,0.0,0.0,0.0,0.0,-4.945,-5.2887,0.0,-6.0418,-6.2217,-6.3805,-6.5975,-6.804,-6.6355,-6.554,-6.54,-6.6193,-6.6338,-6.6265,-6.6915,-6.7541,0.0,-6.7329,0.0,0.0,0.0,0.0,0.0,-5.7913,0.0,0.0,0.0,0.0,0.0,0.0,0.0,0.0,0.0,0.0,0.0,0.0,0.0,0.0,0.0,0.0,0.0,0.0,0.0,0.0,0.0,0.0,0.0,0.0,0.0,0.0,0.0,0.0,-7.1422,-6.9316,-7.048,-7.0951,-7.0408,-7.1132,-7.2183,-7.3559,-7.3233,-7.4428,-7.7181,-7.7615,-7.8557,-7.9933,-8.073,-8.0223,-7.8738,-7.9318,-7.834,-7.6348,-7.7181,-7.7507,-7.7507,-7.7724,-7.8557,-7.9607,-7.9825,-8.0513,-8.1382,-3.4844,-3.4438,-3.5216,-3.7516,-3.8497,-3.9986,-4.2936,-4.4722,-4.621,-4.7635,0.0,-5.0371,-5.4025,-5.3078,-5.3382,-5.6359,-5.5987,-5.5581,-5.5512,-5.416,-5.46,-5.7374,-5.1217,-4.8003,-4.868,-4.4384,-4.035,-3.6694,0.0,0.0,0.0,0.0,0.0,0.0,0.0,-4.8963,-5.1585,-5.6644,-6.0182,-6.242,-6.3966,-6.5041,-6.5967,0.0,-6.7153,-6.4626,-6.5443,0.0,0.0,-6.7261,-6.8035,0.0,0.0,0.0,0.0,0.0,0.0,0.0,0.0,0.0,0.0,-5.8058,0.0,0.0,0.0,0.0,-4.9836,0.0,0.0,0.0,0.0,0.0,0.0,0.0,0.0,0.0,0.0,0.0,0.0,0.0,0.0,0.0,0.0,0.0,0.0,0.0,0.0,0.0,-6.9279,-7.0004,-7.0408,-7.0372,-7.1132,-7.1893,-7.2726,-7.3486,-7.4718,-7.6348,-7.7905,-7.91,-7.9933,-8.073,-8.0223,-7.8702,-7.8738,-7.7796,-7.6348,-7.7181,-7.7507,-7.7579,-7.8376,-7.8702,-7.8847,-7.9607,-7.9462,-7.9028,0.0,0.0,-3.6423,-3.7686,-3.8903,-4.0899,-4.4384,-4.5771,-4.7124,-4.9086,-5.0879,-5.301,-5.575,-5.6021,-5.6799,-5.8829,-5.8321,-5.7879,-5.7879,-5.6968,-5.663,-5.7137,-5.2638,-4.9763,-4.9018,-4.5602,-4.2008,0.0,0.0,0.0,0.0,0.0,0.0,0.0,0.0,-5.0222,0.0,0.0,0.0,0.0,0.0,-6.5851,-6.5663,0.0,0.0,-6.5248,-6.5568,-6.5858,0.0,-6.6953,-6.7927,-6.8701,-6.8163,-6.7976,-6.7692,-6.6388,-6.5048,0.0,0.0,0.0,-6.3237,-6.1897,0.0,0.0,0.0,0.0,0.0,0.0,0.0,0.0,0.0,0.0,0.0,0.0,0.0,0.0,0.0,0.0,0.0,0.0,0.0,0.0,0.0,0.0,0.0,0.0,0.0,0.0,0.0,-7.0408,-7.1132,-7.1132,-7.1893,-7.2436,-7.2726,-7.2979,-7.4175,-7.6311,-7.6855,-7.8086,-7.9897,-8.0187,-7.9716,-7.8738,-7.9245,-7.8267,-7.6384,-7.7724,-7.7977,-7.7543,-7.7796,-7.7905,-7.8014,-7.881,-7.9281,-7.9716,-3.6648,-3.7043,-3.7719,-3.8193,-3.9952,-4.2354,-4.5602,-4.7158,-4.8646,-5.0608,-5.3112,-5.5516,-5.7699,-5.8144,-5.8996,-6.0768,-5.9984,-5.9735,-6.0554,-5.9167,-5.866,-5.9539,-5.548,-5.2875,-5.2164,-4.8748,0.0,0.0,0.0,-3.9749,0.0,0.0,0.0,0.0,0.0,0.0,-5.3701,0.0,-6.1768,0.0,0.0,-6.6111,0.0,0.0,-6.5665,-6.6067,0.0,-6.6806,-6.7257,-6.7541,-6.834,-6.9092,-6.859,-6.8574,-6.8615,-6.7885,-6.6861,-6.6091,-6.6401,-6.6424,0.0,-6.4794,-6.4215,0.0,-6.0774,0.0,0.0,0.0,0.0,0.0,0.0,0.0,0.0,0.0,0.0,0.0,0.0,0.0,0.0,0.0,0.0,0.0,0.0,0.0,0.0,0.0,0.0,0.0,0.0,0.0,-7.106,-7.1893,-7.2146,-7.2436,-7.2726,-7.2979,-7.3776,-7.5044,-7.6167,-7.7543,-7.9064,-7.9643,-7.9462,-7.8738,-7.9245,-7.8448,-7.6818,-7.7833,-7.8122,-7.7941,-7.7941,-7.776,-7.7543,-7.8086,-7.8774,-7.9571,-3.8497,-3.8667,-3.9174,-3.9242,-4.1644,-4.4282,-4.6549,-4.8778,-5.0773,-5.2332,-5.511,-5.7803,-5.9978,-5.9633,-6.0117,-6.2256,-6.1047,-6.1101,-6.33,-6.0757,0.0,0.0,-5.9607,-5.7171,-5.7814,0.0,0.0,0.0,0.0,0.0,0.0,0.0,0.0,0.0,-4.5596,0.0,-5.562,-5.7048,-5.9911,-6.3581,-6.5009,-6.5749,-6.5975,-6.6592,-6.6848,-6.699,-6.7739,-6.802,-6.812,-6.894,-6.9157,-6.9151,-6.9182,-6.8674,-6.8216,-6.8956,-6.8134,-6.7143,-6.7872,-6.6967,-6.5989,-6.6641,0.0,0.0,0.0,0.0,-6.0991,0.0,0.0,0.0,0.0,0.0,0.0,0.0,0.0,0.0,0.0,0.0,0.0,0.0,0.0,0.0,0.0,0.0,0.0,0.0,0.0,0.0,0.0,0.0,-7.0372,-7.2581,-7.1929,-7.1929,-7.2653,-7.3486,-7.3523,-7.2762,-7.5949,-7.7507,-7.7615,-7.9173,-7.9499,-7.8774,-7.8774,-7.8303,-7.7543,-7.7579,-7.8086,-7.8774,-7.8774,-7.8231,-7.7507,-7.747,-7.7905,-7.8484,-4.046,-4.0933,-4.1813,-4.2956,-4.4248,-4.5872,-4.8105,-5.0325,-5.2685,-5.5233,-5.7657,-5.9824,-6.1562,-6.2126,-6.2565,-6.3186,-6.2358,0.0,0.0,0.0,0.0,-6.2888,-5.9505,-5.7442,-5.7103,-5.3247,-5.0002,-4.7631,0.0,0.0,-4.1474,0.0,0.0,0.0,0.0,0.0,-5.4817,-5.6334,-6.0416,-6.5905,-6.5746,-6.6392,0.0,0.0,-6.6702,-6.7729,-6.7976,-6.8042,-6.8138,-6.8929,-6.8787,-6.8396,-6.9008,-6.9042,-6.8925,-6.9146,-6.9307,-6.9394,-6.9001,-6.9032,-6.8778,-6.7184,-6.7221,-6.7293,0.0,0.0,0.0,0.0,0.0,0.0,0.0,0.0,0.0,0.0,0.0,0.0,0.0,0.0,0.0,0.0,0.0,0.0,0.0,0.0,0.0,0.0,0.0,0.0,0.0,0.0,0.0,-7.182,-7.2183,-7.2219,-7.182,-7.3197,-7.3523,-7.2762,-7.5949,-7.7796,-7.8448,-7.9462,-7.9788,-7.9607,-7.9607,-7.9136,-7.8448,-7.9028,-7.9426,-7.9607,-7.9607,-7.8738,-7.7434,-7.6818,-7.6746,-7.6963,-4.2252,-4.276,-4.3876,-4.5703,-4.7462,-4.9243,-5.1176,-5.3607,-5.6339,-5.934,-6.1347,0.0,-6.373,-6.3903,-6.3865,-6.3518,-6.283,0.0,-6.286,0.0,0.0,-6.3294,-6.0791,-5.9336,-5.9235,-5.5886,0.0,-5.0371,0.0,0.0,-4.2794,0.0,0.0,0.0,0.0,-4.9649,0.0,-5.7417,-6.1628,-6.6361,-6.6233,0.0,0.0,-6.734,-6.7757,-6.8533,-6.8569,-6.8555,-6.86,-6.9052,-6.8884,-6.8677,-6.9454,-6.9475,-6.9281,-6.9637,-6.9823,-6.9777,-6.9332,-6.9787,-6.9901,-6.7836,-6.8271,-6.8772,-6.704,-6.6315,-6.6062,0.0,-6.4215,0.0,0.0,0.0,0.0,0.0,0.0,0.0,0.0,0.0,0.0,0.0,0.0,0.0,0.0,0.0,0.0,0.0,0.0,0.0,0.0,0.0,0.0,-7.2001,-7.2472,-7.2472,-7.2038,-7.3957,-7.4211,-7.2726,-7.5623,-7.7398,-7.8195,-7.9028,-7.9571,-7.9897,-7.9897,-7.9643,-7.9245,-7.9716,-8.0114,-8.0404,-8.0042,-7.9136,-7.7941,-7.7108,-7.6601,-7.6348,-4.3978,-4.4418,-4.5602,-4.7906,-5.0672,-5.3232,-5.5192,-5.7686,0.0,-6.3359,0.0,-6.5778,-6.5931,-6.5207,-6.449,-6.3856,-6.3031,-6.2822,-6.3459,-6.2115,-6.2212,-6.4208,-6.2381,-6.1603,-6.2245,-5.9471,-5.6697,0.0,0.0,0.0,0.0,0.0,0.0,0.0,0.0,0.0,0.0,-5.982,-6.3464,-6.6308,-6.6776,-6.7071,-6.7412,-6.8573,-6.9035,-6.9052,-6.915,-6.9118,-6.9054,-6.9165,-6.9128,-6.92,-6.999,-6.9778,-6.9351,-7.0055,-6.9774,-6.9227,-6.9192,-6.9705,-6.9917,-6.8494,-6.8742,-6.9171,-6.8488,-6.8307,-6.8525,-6.9213,-6.7583,-6.6714,0.0,0.0,0.0,0.0,0.0,0.0,0.0,0.0,0.0,0.0,0.0,0.0,0.0,0.0,0.0,0.0,0.0,0.0,0.0,0.0,0.0,-7.2183,-7.2436,-7.2617,-7.2726,0.0,-7.508,-7.3052,-7.5334,-7.6855,-7.7688,-7.8484,-7.9318,-8.0078,-8.0078,-8.0078,-8.0078,-8.0078,-8.0476,-8.1056,-8.0332,-7.9571,-7.8774,-7.8086,-7.7289,-7.6601,-4.6109,-4.6312,-4.7293,-5.0103,-5.2545,-5.5447,-5.9517,-6.0531,-6.1709,-6.4116,-6.5146,-6.5875,-6.6536,-6.5985,-6.5465,-6.5323,-6.4079,0.0,0.0,0.0,0.0,-6.2719,-6.1839,-6.1366,-6.1501,-5.9742,-5.7983,0.0,0.0,0.0,0.0,0.0,0.0,0.0,0.0,0.0,-5.8519,-6.2986,0.0,-6.8559,-6.8016,-6.8228,-6.8746,-6.8304,-6.8115,-6.8231,-6.8884,-6.8713,-6.8293,-6.8978,-6.8752,-6.8331,-6.9163,-6.9311,-6.9238,-6.9352,-6.9316,-6.9212,-6.9194,-6.9322,-6.9346,-6.9054,-6.9605,-7.0118,-7.0009,-6.9973,-7.0009,-7.0185,-6.9352,-6.87,-6.9134,0.0,0.0,0.0,0.0,0.0,0.0,0.0,0.0,0.0,0.0,0.0,0.0,0.0,0.0,0.0,0.0,0.0,0.0,0.0,0.0,0.0,-7.106,0.0,0.0,0.0,-7.5116,-7.4685,-7.6456,-7.7724,-7.8521,-7.9318,-8.0151,-8.0911,-8.0911,-8.0911,-8.0911,-8.0911,-8.0984,-8.1092,-8.0947,-8.0404,-7.968,-7.9535,-7.8955,-7.8195,-4.8951,-4.939,-5.0464,-5.3024,-5.5642,0.0,0.0,-6.2793,-6.4365,-6.67,-6.7258,-6.7438,-6.7438,-6.6751,-6.6138,-6.5743,-6.5053,-6.4515,-6.4127,-6.343,-6.299,-6.2956,-6.299,-6.2821,-6.2448,-6.211,-6.0791,-5.8524,0.0,0.0,0.0,0.0,0.0,0.0,0.0,-5.6165,0.0,0.0,0.0,-6.7986,-6.8005,-6.8434,-6.9122,-6.8704,-6.852,-6.858,-6.8938,-6.8863,-6.8603,-6.902,-6.8898,-6.8727,-6.9505,-6.9706,-6.9753,-6.9753,-6.9797,-6.9769,-6.9809,-6.98,-6.979,-6.9818,-7.0113,-7.0294,-6.9895,-7.0082,-7.0372,-7.0372,-7.0113,-6.9569,-6.8706,-6.8307,0.0,0.0,0.0,0.0,0.0,0.0,0.0,0.0,0.0,0.0,0.0,0.0,0.0,0.0,0.0,0.0,0.0,0.0,0.0,0.0,0.0,0.0,0.0,0.0,0.0,-7.4468,-7.6094,-7.7507,-7.8702,-7.91,-7.9933,-8.1128,-8.1128,-8.1128,-8.1128,-8.1128,-8.1128,-8.1128,-8.1128,-8.0875,-8.0476,-8.0042,-7.9643,-7.9209,-5.2155,-5.2867,-5.405,-5.6586,-5.9,-6.1066,-6.2536,-6.471,-6.6854,-6.8681,-6.8923,-6.8681,-6.8058,-6.7482,-6.6792,-6.6005,-6.5843,-6.5504,-6.4903,-6.4661,-6.4343,-6.3768,-6.4309,-6.4343,-6.3768,-6.414,-6.3193,0.0,0.0,0.0,0.0,0.0,0.0,0.0,0.0,0.0,0.0,0.0,-6.5358,-6.7234,-6.7928,-6.8593,-6.9112,-6.9254,-6.9305,-6.935,-6.9519,-6.9586,-6.9586,-6.9586,-6.935,-6.9209,-6.9788,-6.9962,-6.9983,-7.001,-7.0031,-7.0085,-7.0307,-7.0239,-7.0237,-7.0541,-7.0514,-7.0288,-6.9798,-7.0154,-7.0589,-7.0439,-7.0258,-6.9865,-6.8923,-6.9865,0.0,0.0,0.0,0.0,0.0,0.0,0.0,0.0,0.0,0.0,0.0,0.0,0.0,0.0,0.0,0.0,0.0,0.0,0.0,0.0,0.0,-7.2472,-7.2509,0.0,-7.5587,-7.4682,-7.5949,-7.7289,-7.8702,-7.8883,-7.9752,-8.1128,-8.1128,-8.1128,-8.1128,-8.1128,-8.1128,-8.1128,-8.1128,-8.1128,-8.102,-8.0404,-8.0259,-8.0332,-5.5742,-5.6355,-5.7517,0.0,0.0,-6.2602,-6.4122,-6.633,-6.7885,-6.806,-6.8126,-6.8064,-6.8005,-6.7945,-6.7575,-6.6777,-6.6083,-6.57,-6.5585,-6.4988,-6.458,-6.4512,-6.4546,-6.458,-6.4512,-6.3903,-6.3463,0.0,0.0,-5.7814,0.0,0.0,0.0,0.0,0.0,0.0,0.0,-6.5638,-6.7131,-6.804,-6.8717,-6.902,-6.917,-6.985,-7.0114,-7.0161,-7.0872,-7.1109,-7.1109,-7.1109,-7.0229,-6.9113,-6.9166,-6.9209,-6.9209,-6.9194,-6.9237,-6.934,-7.0043,-6.9733,-6.9571,-7.102,-7.0868,-7.0535,-7.1151,-7.135,-7.1205,-7.0517,-6.9823,-6.9684,-7.0951,-6.9611,-6.8923,0.0,0.0,0.0,0.0,0.0,0.0,0.0,0.0,0.0,0.0,0.0,0.0,0.0,0.0,0.0,0.0,0.0,0.0,-7.1313,0.0,-7.2979,-7.5804,-7.5442,-7.5877,-7.7144,-7.7326,-7.7833,-7.8738,-7.9462,-8.0259,-8.1128,-8.1128,-8.1128,-8.1128,-8.1128,-8.1128,-8.1128,-8.1128,-8.1128,-8.1092,-8.102,-8.1454,-8.2034,0.0,0.0,0.0,0.0,0.0,0.0,0.0,-6.6066,-6.7279,-6.7249,-6.8112,-6.8362,-6.7374,-6.7693,-6.7657,-6.685,-6.6996,-6.6883,-6.6398,-6.6064,-6.573,-6.5256,-6.5696,-6.573,-6.5256,-6.4952,-6.4816,0.0,0.0,0.0,0.0,0.0,0.0,0.0,0.0,-6.3628,-6.4318,-6.6091,-6.7044,-6.7393,-6.809,-6.8955,-6.98,-7.0056,-7.0466,-7.0906,-7.121,-7.1312,-7.1312,-7.1312,-7.0939,-7.0432,-7.0432,-7.0432,-7.0331,-6.9891,-6.9755,-6.9838,-7.0106,-6.9974,-7.0049,-7.1176,-7.1588,-7.1727,-7.1534,-7.186,-7.2001,-7.1205,-7.0806,-7.0625,-7.0806,-7.1639,-7.211,-7.1603,0.0,0.0,0.0,0.0,0.0,0.0,0.0,0.0,0.0,0.0,0.0,0.0,0.0,0.0,0.0,0.0,0.0,-7.3631,0.0,-7.403,-7.6275,-7.5515,-7.5696,-7.6782,-7.7253,-7.8159,-7.9426,-7.9752,-8.0332,-8.1128,-8.1128,-8.1128,-8.1128,-8.1128,-8.1128,-8.1128,-8.1128,-8.1418,-8.1817,-8.1817,-8.2324,-8.3012,-6.2331,0.0,-6.2868,0.0,-6.5117,-6.5811,-6.5522,-6.6825,-6.7692,-6.7199,-6.8534,-6.8958,-6.7304,-6.808,-6.8392,-6.7572,-6.8019,-6.8083,-6.7501,-6.7256,-6.6995,-6.6677,-6.6981,0.0,-6.6339,-6.6136,-6.6,-6.6,-6.4546,0.0,0.0,-6.1907,0.0,0.0,-6.4783,-6.4918,-6.506,-6.6765,-6.7233,-6.6914,-6.8362,-6.944,-7.0195,-7.0432,-7.0838,-7.1312,-7.1312,-7.1312,-7.1312,-7.1312,-7.1312,-7.1312,-7.1312,-7.1312,-7.121,-7.0669,-7.0534,-7.0497,-7.0533,-7.0393,-7.0388,-7.1171,-7.1658,-7.1937,-7.1872,-7.2321,-7.2539,-7.1938,-7.1494,-7.1024,-7.048,-7.2219,-7.3233,-7.1748,0.0,0.0,0.0,0.0,0.0,0.0,0.0,-7.048,-6.9358,0.0,0.0,0.0,0.0,0.0,0.0,0.0,0.0,0.0,0.0,0.0,0.0,-7.5297,-7.5406,-7.6637,-7.747,-7.8557,-7.9897,-8.0151,-8.0585,-8.1128,-8.1128,-8.1128,-8.1128,-8.1128,-8.1237,-8.1454,-8.1454,-8.1925,-8.265,-8.265,-8.3157,-8.3845,-6.3348,-6.4704,-6.5759,-6.5759,-6.7644,-6.8889,-6.8082,-6.9317,-6.9796,-6.8192,-6.9408,-6.9775,-6.8148,-6.9424,-7.0025,-6.9238,-6.9165,-6.918,-6.9049,-6.8389,-6.8336,0.0,0.0,-6.7895,-6.7861,-6.7151,-6.6812,-6.6812,0.0,0.0,-5.9066,-5.8321,-6.1095,-6.6745,-6.6,-6.5662,-6.5846,-6.8177,-6.8261,-6.71,-7.0134,-7.0883,-7.0263,-7.1007,-7.1312,-7.1312,-7.1312,-7.1312,-7.1312,-7.1312,-7.1312,-7.1312,-7.1312,-7.1312,-7.1312,-7.1312,-7.1312,-7.1312,-7.1278,-7.0737,-7.0347,-7.1144,-7.0767,-7.0665,-7.2297,-7.2691,-7.2688,-7.2673,-7.1458,-7.0439,-7.0372,-7.0439,-7.0661,-7.1386,0.0,0.0,0.0,0.0,0.0,0.0,-7.5011,-7.5011,-7.4974,0.0,0.0,0.0,0.0,0.0,0.0,0.0,0.0,-7.3885,-7.1639,0.0,-7.6239,-7.4718,-7.5116,-7.7507,-7.8303,-7.91,-7.9933,-8.073,-8.1092,-8.1128,-8.1128,-8.1128,-8.1128,-8.1128,-8.1563,-8.2287,-8.2287,-8.2758,-8.3483,-8.3483,-8.399,-8.4678,-6.7942,-6.774,-6.7474,-6.8044,-6.778,-6.7631,-6.7975,-6.8431,-6.8796,-6.8823,-6.9741,-7.041,-7.0451,-6.992,-6.9703,0.0,-7.001,-7.0213,0.0,-7.003,-6.9652,-6.992,-6.9152,-6.8707,-6.8707,-6.7455,-6.7049,-6.7557,0.0,0.0,0.0,-6.458,-6.5753,-6.761,-6.7301,-6.7486,-6.8055,-6.8827,-6.9144,-6.9224,-7.0206,-7.0731,-7.0973,-7.121,-7.1312,-7.1312,-7.1312,-7.1312,-7.1312,-7.1312,-7.1312,-7.1312,-7.1312,-7.1312,-7.1312,-7.1312,-7.1312,-7.1312,-7.1312,-7.1142,-7.0984,-7.126,-7.1981,-7.2648,-7.2624,-7.3083,-7.3516,-7.353,-7.269,-7.1965,-7.1965,-7.1531,-7.1241,-7.1458,-7.1494,0.0,-7.1168,0.0,0.0,0.0,-7.1893,-7.2074,0.0,-7.2436,0.0,0.0,0.0,0.0,0.0,0.0,0.0,0.0,-7.479,0.0,-7.7108,-7.6601,-7.7036,-7.834,-7.9136,-7.9933,-8.0766,-8.1563,-8.1925,-8.1925,-8.2505,-8.2722,-8.2722,-8.2722,-8.2867,-8.312,-8.312,-8.3591,-8.4316,-8.4316,-8.4823,-8.5511,-6.8095,-6.7892,-6.7554,-6.7482,-6.7605,-6.7739,-6.7975,-6.875,-6.9499,-6.9987,-7.0767,-7.1478,-7.1977,-7.0838,0.0,-7.1624,-7.1695,-7.1798,-7.1945,-7.1194,-7.0736,-7.0694,-6.9925,-6.9519,-6.9519,-6.8571,0.0,-6.8335,-6.7421,-6.7218,-6.7692,-6.8132,-6.8362,-6.8419,-6.8388,-6.8634,-6.9138,-6.9714,-7.007,-7.0239,-7.0828,-7.1148,-7.1312,-7.1312,-7.1312,-7.1312,-7.1312,-7.1312,-7.1312,-7.1312,-7.1312,-7.1312,-7.1312,-7.1312,-7.1312,-7.1312,-7.1312,-7.1312,-7.1312,-7.1312,-7.1401,-7.1688,-7.2533,-7.3342,-7.3511,-7.3939,-7.4323,-7.4323,-7.374,-7.316,-7.316,-7.2762,-7.24,-7.24,-7.2146,-7.1784,-7.1313,0.0,0.0,0.0,0.0,0.0,0.0,-7.3052,-7.2943,0.0,0.0,0.0,0.0,0.0,0.0,-7.5406,-7.479,0.0,-7.7036,-7.7036,-7.776,-7.9173,-7.9969,-8.0621,-8.1128,-8.1925,-8.2287,-8.2324,-8.312,-8.3483,-8.3483,-8.3483,-8.3664,-8.3953,-8.3953,-8.4424,-8.5149,-8.5149,-8.5475,-8.5909,-6.5053,-6.6051,-6.6598,0.0,-6.7247,0.0,-6.8183,-6.9997,-7.1458,-7.1494,-7.2279,-7.2798,-7.2869,-7.2149,-7.2296,-7.3935,0.0,0.0,0.0,-7.1967,-7.1498,-7.1423,-7.0679,-7.0263,-7.0263,-7.0229,-6.9823,-6.9113,-6.9113,-6.9113,-6.9113,-6.9113,-6.9156,-6.9166,-6.919,-6.9224,-6.9345,-7.077,-7.0986,-7.0419,-7.1825,-7.196,-7.1312,-7.1312,-7.1312,-7.1312,-7.1312,-7.1312,-7.1312,-7.1312,-7.1312,-7.1312,-7.1312,-7.1312,-7.1312,-7.1312,-7.1312,-7.1312,-7.1312,-7.1312,-7.1457,-7.2228,-7.2448,-7.2955,-7.4715,-7.508,-7.5122,-7.5155,-7.4573,-7.3993,-7.3993,-7.3957,-7.3921,-7.3921,-7.3269,-7.2762,-7.2653,-7.3269,-7.3776,0.0,0.0,0.0,-7.6094,-7.5478,-7.4721,0.0,0.0,0.0,0.0,0.0,-7.5623,-7.3957,-7.2617,-7.3342,-7.6275,-7.6456,-7.7724,-8.0006,-8.0802,-8.1201,-8.1237,-8.207,-8.2468,-8.2505,-8.3301,-8.3664,-8.3664,-8.3664,-8.4098,-8.4786,-8.4786,-8.5221,-8.5909,-8.5909,-8.5909,-8.5909,0.0,0.0,-6.8533,-6.8197,-6.8233,-6.8428,-6.8853,-6.9917,-7.0842,-7.1422,-7.2745,-7.3874,-7.4488,-7.4354,-7.4604,-7.5626,-7.4012,-7.3093,-7.3483,-7.2707,-7.2237,-7.2193,-7.143,-7.1041,-7.1041,-7.0466,-6.9823,-6.9113,-6.9113,-6.9113,-6.9113,-6.9113,-6.939,-6.9913,-6.9925,-7.025,-7.077,-7.1163,-7.1185,-7.1075,-7.1433,-7.1457,-7.1312,-7.1312,-7.1312,-7.1312,-7.1312,-7.1312,-7.1312,-7.1312,-7.1312,-7.1312,-7.1312,-7.1312,-7.1312,-7.1312,-7.1312,-7.1312,-7.1312,-7.1312,-7.1356,-7.1546,-7.2013,-7.2955,-7.4715,-7.5084,-7.5262,-7.5885,-7.5406,-7.4793,-7.4793,-7.4319,-7.3921,-7.3921,-7.374,-7.3197,-7.1965,-7.1965,-7.2291,0.0,-7.2798,-7.3124,-7.4356,-7.4319,-7.4392,0.0,0.0,0.0,0.0,-7.6565,-7.6203,-7.3993,-7.5334,-7.613,-7.6275,-7.8122,-7.9643,-8.0839,-8.1635,-8.1998,-8.2034,-8.3483,-8.4135,-8.4171,-8.4968,-8.533,-8.533,-8.533,-8.5438,-8.5619,-8.5619,-8.5728,-8.5909,-8.5909,-8.5909,-8.5909,-6.8706,-6.9213,-6.975,-6.975,-6.9647,-6.9756,-7.0154,-7.1241,-7.2291,-7.3052,-7.4237,-7.5293,-7.6085,-7.5478,-7.5226,-7.5655,-7.4831,-7.4327,-7.4378,-7.3956,-7.3522,-7.3119,-7.2313,-7.2047,-7.244,-7.1314,-7.0687,-7.0678,-7.0678,-7.0678,-7.0635,-7.027,-7.0323,-7.0721,-7.1088,-7.1482,-7.187,-7.2234,-7.2185,-7.183,-7.183,-7.16,-7.1312,-7.1312,-7.1312,-7.1312,-7.1312,-7.1312,-7.1312,-7.1312,-7.1312,-7.1312,-7.1312,-7.1312,-7.1312,-7.1312,-7.1312,-7.1312,-7.1312,-7.1312,-7.1401,-7.1776,-7.2448,-7.3322,-7.4299,-7.4789,-7.5227,-7.5655,-7.5677,-7.5659,-7.5659,-7.5297,-7.5008,-7.5008,-7.4066,-7.3052,-7.2183,-7.1748,-7.1531,-7.1639,-7.2219,-7.2943,-7.3849,-7.3921,-7.4392,-7.5551,-7.5768,0.0,-7.6275,-7.671,-7.6348,-7.5044,-7.6275,-7.7253,-7.7941,-7.9607,-8.0839,-8.1635,-8.207,-8.2468,-8.2867,-8.4135,-8.4678,-8.475,-8.5547,-8.5909,-8.5909,-8.5909,-8.5909,-8.5909,-8.5909,-8.5909,-8.5909,-8.5909,-8.5909,-8.5909,-6.8669,-6.9611,-7.0553,-7.0553,-7.0987,-7.1313,-7.1313,-7.2581,-7.3885,-7.4793,-7.5726,-7.6622,-7.7481,-7.6379,-7.5529,-7.5529,-7.6123,-7.6043,-7.4972,-7.4898,-7.4565,-7.3838,-7.3078,-7.3037,-7.3799,-7.227,-7.182,-7.249,-7.2364,-7.2364,-7.249,-7.1688,-7.1356,-7.1501,-7.2185,-7.249,-7.2575,-7.3442,-7.3362,-7.27,-7.27,-7.2228,-7.1457,-7.1457,-7.1401,-7.1312,-7.1312,-7.1312,-7.1312,-7.1312,-7.1312,-7.1312,-7.1312,-7.1312,-7.1312,-7.1312,-7.1312,-7.1312,-7.1312,-7.1312,-7.1457,-7.2142,-7.2908,-7.3442,-7.3562,-7.4184,-7.4716,-7.472,-7.5263,-7.5751,-7.5781,-7.5778,-7.5993,-7.6565,-7.4537,-7.2979,-7.3233,-7.2327,-7.1458,-7.0806,-7.2617,-7.3957,-7.4102,-7.4211,-7.4826,-7.6203,-7.5152,-7.5044,-7.642,-7.6601,-7.6637,-7.6637,-7.6782,-7.7869,-8.0078,-8.0766,-8.1491,-8.2287,-8.2396,-8.2867,-8.37,-8.4497,-8.4859,-8.4895,-8.5583,-8.5909,-8.5909,-8.5909,-8.5909,-8.5909,-8.5909,-8.5909,-8.5909,-8.5909,-8.5909,-8.5909,-7.0987,-7.1168,-7.1313,-7.1313,-7.0915,-7.0553,-7.0553,-7.1313,-7.2436,-7.3921,-7.5378,-7.6865,-7.8347,-7.8277,-7.8134,-7.8134,-7.7622,-7.6338,-7.4146,-7.3994,-7.3917,-7.3799,-7.3681,-7.3641,-7.3799,-7.279,-7.2364,-7.249,-7.182,-7.183,-7.249,-7.1688,-7.1644,-7.2321,-7.2448,-7.249,-7.2575,-7.3442,-7.3721,-7.3602,-7.3602,-7.3078,-7.2321,-7.2321,-7.1873,-7.1312,-7.1312,-7.1312,-7.1312,-7.1312,-7.1312,-7.1312,-7.1312,-7.1312,-7.1312,-7.1312,-7.1312,-7.1312,-7.1312,-7.1312,-7.1312,-7.1457,-7.159,-7.1864,-7.2533,-7.279,-7.2945,-7.3069,-7.3159,-7.3283,-7.3333,-7.3331,-7.4436,-7.7765,-7.5732,-7.4211,-7.5551,-7.3885,-7.2472,-7.2364,-7.3269,-7.4175,-7.483,-7.5551,-7.6022,-7.6275,-7.671,-7.7036,-7.7289,-7.7941,-7.834,-7.834,-7.8992,-7.9861,-8.0911,-8.1056,-8.1491,-8.2324,-8.2976,-8.3736,-8.4533,-8.533,-8.5692,-8.5728,-8.5837,-8.5909,-8.5909,-8.5909,-8.5909,-8.5909,-8.5909,-8.5909,-8.5909,-8.5909,-8.5909,-8.5909,-7.2219,-7.2834,-7.345,-7.345,-7.316,-7.2943,-7.2943,-7.3233,-7.3885,-7.5044,-7.6203,-7.7398,-7.8557,-7.8702,-7.8702,-7.8702,-7.8376,-7.7483,-7.5906,-7.5405,-7.5155,-7.5155,-7.4752,-7.4033,-7.3119,-7.3641,-7.3442,-7.249,-7.2142,-7.2142,-7.249,-7.1688,-7.1501,-7.1873,-7.2279,-7.249,-7.2575,-7.3442,-7.3522,-7.3078,-7.3078,-7.2617,-7.183,-7.183,-7.16,-7.1312,-7.1312,-7.1312,-7.1312,-7.1312,-7.1312,-7.1312,-7.1312,-7.1312,-7.1312,-7.1312,-7.1312,-7.1312,-7.1312,-7.1312,-7.1312,-7.1312,-7.1312,-7.1401,-7.1776,-7.1876,-7.1933,-7.1995,-7.2053,-7.2242,-7.2692,-7.2798,-7.3544,-7.5776,-7.4138,-7.2871,-7.3595,-7.24,-7.1784,-7.2617,-7.3414,-7.4573,-7.6239,-7.6746,-7.7108,-7.7543,-7.7941,-7.8159,-7.8159,-7.8919,-7.9354,-7.9354,-8.0151,-8.073,-8.1128,-8.1527,-8.2143,-8.2939,-8.3736,-8.4569,-8.5366,-8.5728,-8.5909,-8.5909,-8.5909,-8.5909,-8.5909,-8.5909,-8.5909,-8.5909,-8.5909,-8.5909,-8.5909,-8.5909,-8.5909,-8.5909,-7.3667,-7.4537,-7.5406,-7.5406,-7.5192,-7.5011,-7.483,-7.4793,-7.5116,-7.5913,-7.6891,-7.7869,-7.8883,-7.9136,-7.9245,-7.9245,-7.91,-7.8738,-7.8086,-7.7108,-7.6492,-7.6311,-7.5725,-7.4677,-7.3119,-7.4223,-7.4033,-7.249,-7.2279,-7.2321,-7.249,-7.1688,-7.1401,-7.1634,-7.2228,-7.249,-7.2575,-7.3442,-7.3402,-7.279,-7.279,-7.2313,-7.159,-7.159,-7.1457,-7.1312,-7.1312,-7.1312,-7.1312,-7.1312,-7.1312,-7.1312,-7.1312,-7.1312,-7.1312,-7.1312,-7.1312,-7.1312,-7.1312,-7.1312,-7.1312,-7.1312,-7.1312,-7.1312,-7.1312,-7.1343,-7.1343,-7.1171,-7.118,-7.1409,-7.1866,-7.2086,-7.2651,-7.3987,-7.2702,-7.182,-7.2762,-7.1748,-7.1494,-7.3088,-7.3993,-7.5261,-7.7289,-7.7651,-7.8122,-7.8919,-7.8992,-7.9064,-7.9245,-7.9861,-8.0187,-8.0187,-8.0802,-8.1128,-8.1128,-8.1889,-8.2686,-8.3483,-8.4316,-8.5112,-8.5909,-8.5909,-8.5909,-8.5909,-8.5909,-8.5909,-8.5909,-8.5909,-8.5909,-8.5909,-8.5909,-8.5909,-8.5909,-8.5909,-8.5909,-8.5909,-7.6058,-7.613,-7.6203,-7.6203,-7.5623,-7.483,-7.4102,-7.3993,-7.425,-7.5083,-7.6529,-7.8086,-7.9643,-8.0476,-8.0947,-8.0947,-8.0259,-7.9788,-7.9752,-7.8267,-7.7072,-7.6311,-7.6242,-7.5795,-7.4935,-7.4226,-7.3442,-7.249,-7.1776,-7.1776,-7.249,-7.1688,-7.1688,-7.2406,-7.249,-7.249,-7.2575,-7.3442,-7.376,-7.3721,-7.3721,-7.32,-7.2406,-7.2406,-7.196,-7.1312,-7.1312,-7.1312,-7.1312,-7.1312,-7.1312,-7.1312,-7.1312,-7.1312,-7.1312,-7.1312,-7.1312,-7.1312,-7.1312,-7.1312,-7.1312,-7.1312,-7.1312,-7.1312,-7.1312,-7.1289,-7.1096,-7.0463,-7.0301,-7.013,-6.9485,-7.0017,-7.1548,-7.4512,-7.3022,-7.2798,-7.6529,-7.4428,-7.3124,-7.4721,-7.5623,-7.6492,-7.7398,-7.8159,-7.8955,-7.9752,-7.9825,-8.0151,-8.0875,-8.0984,-8.102,-8.102,-8.1092,-8.1128,-8.1128,-8.1889,-8.2686,-8.3483,-8.4316,-8.5112,-8.5909,-8.5909,-8.5909,-8.5909,-8.5909,-8.5909,-8.5909,-8.5909,-8.5909,-8.5909,-8.5909,-8.5909,-8.5909,-8.5909,-8.5909,-8.5909,-7.6275,-7.6275,-7.6275,-7.6275,-7.5623,-7.483,-7.403,-7.4323,-7.454,-7.4359,-7.5768,-7.7181,-7.8303,-7.9136,-7.9825,-8.0332,-8.0549,-8.044,-7.9933,-7.9318,-7.8195,-7.6384,-7.5829,-7.5155,-7.4302,-7.3442,-7.2832,-7.249,-7.1688,-7.1732,-7.249,-7.1688,-7.1457,-7.1776,-7.2253,-7.2696,-7.3105,-7.3504,-7.415,-7.4929,-7.4449,-7.4135,-7.3776,-7.3776,-7.3357,-7.2597,-7.2157,-7.1988,-7.1921,-7.1447,-7.1312,-7.1312,-7.1312,-7.1312,-7.1312,-7.1312,-7.1312,-7.1312,-7.1312,-7.1312,-7.1312,-7.1312,-7.1312,-7.1312,-7.1312,-7.0939,-7.0534,-7.0263,-6.9814,-6.9761,-7.0475,-7.0853,-7.18,-7.4,-7.3579,-7.3523,-7.5044,-7.4247,-7.4066,-7.5659,-7.6094,-7.7,-7.881,-7.9281,-7.9788,-8.0585,-8.0658,-8.0802,-8.1092,-8.1128,-8.1128,-8.1128,-8.1128,-8.1346,-8.1817,-8.2613,-8.3446,-8.4243,-8.504,-8.5583,-8.5909,-8.5909,-8.5909,-8.5909,-8.5909,-8.5909,-8.5909,-8.5909,-8.5909,-8.5909,-8.5909,-8.5909,-8.5909,-8.5909,-8.5909,-8.5909,-7.6275,-7.6275,-7.6275,-7.6275,-7.5841,-7.5116,-7.4066,-7.4576,-7.4793,-7.403,-7.5297,-7.6601,-7.7398,-7.8231,-7.9028,-7.9825,-8.0404,-8.0621,-8.0295,-8.0042,-7.8955,-7.6746,-7.5908,-7.5073,-7.4223,-7.3362,-7.2914,-7.2914,-7.2356,-7.2356,-7.2873,-7.2356,-7.2227,-7.2467,-7.298,-7.3499,-7.3946,-7.3946,-7.433,-7.4965,-7.4458,-7.4255,-7.4255,-7.4255,-7.395,-7.3409,-7.2935,-7.2732,-7.2665,-7.2157,-7.1853,-7.165,-7.165,-7.1515,-7.1312,-7.1312,-7.1312,-7.1312,-7.1312,-7.1312,-7.1312,-7.1312,-7.1312,-7.1312,-7.1312,-7.0906,-7.0534,-7.0534,-7.0144,-7.0038,-7.092,-7.1539,-7.2152,-7.3006,-7.3588,-7.4102,-7.4573,-7.4645,-7.5261,-7.6855,-7.7289,-7.8086,-7.9752,-8.0151,-8.0513,-8.1056,-8.1128,-8.1128,-8.1128,-8.1128,-8.1128,-8.1128,-8.1346,-8.1853,-8.265,-8.3193,-8.3881,-8.4714,-8.5511,-8.5909,-8.5909,-8.5909,-8.5909,-8.5909,-8.5909,-8.5909,-8.5909,-8.5909,-8.5909,-8.5909,-8.5909,-8.5909,-8.5909,-8.5909,-8.5909,-8.5909,-7.6275,-7.6275,-7.6275,-7.6275,-7.6275,-7.5768,-7.4175,-7.4576,-7.4793,-7.3997,-7.5297,-7.6601,-7.7398,-7.8195,-7.9028,-7.9825,-7.9897,-8.0259,-8.1056,-8.0368,-7.9209,-7.7579,-7.6733,-7.5939,-7.5118,-7.4261,-7.3799,-7.3799,-7.3799,-7.3799,-7.3799,-7.3799,-7.4221,-7.5033,-7.5033,-7.4967,-7.4818,-7.4818,-7.4316,-7.351,-7.351,-7.351,-7.351,-7.351,-7.351,-7.351,-7.351,-7.351,-7.3477,-7.3477,-7.3003,-7.2394,-7.2394,-7.1921,-7.1312,-7.1312,-7.1312,-7.1312,-7.1312,-7.1312,-7.1312,-7.1312,-7.1312,-7.1312,-7.1312,-7.1312,-7.1312,-7.1312,-7.1302,-7.1095,-7.0338,-7.1573,-7.2441,-7.1631,-7.2832,-7.4468,-7.6058,-7.6311,-7.6891,-7.8521,-7.9426,-7.9897,-7.9897,-8.0621,-8.1128,-8.1128,-8.1128,-8.1128,-8.1128,-8.1128,-8.1128,-8.1128,-8.1889,-8.2686,-8.3483,-8.3483,-8.3881,-8.4714,-8.5511,-8.5909,-8.5909,-8.5909,-8.5909,-8.5909,-8.5909,-8.5909,-8.5909,-8.5909,-8.5909,-8.5909,-8.5909,-8.5909,-8.5909,-8.5909,-8.5909,-8.5909,-7.6275,-7.6275,-7.6275,-7.6275,-7.6275,-7.5949,-7.4866,-7.5442,-7.5659,-7.483,-7.5659,-7.6601,-7.7398,-7.7724,-7.8195,-7.8992,-7.9571,-8.0259,-8.1056,-8.0875,-8.0295,-7.9245,-7.7343,-7.6189,-7.5975,-7.4508,-7.4072,-7.4715,-7.4072,-7.4393,-7.5532,-7.4957,-7.5068,-7.5841,-7.6368,-7.6573,-7.6395,-7.6395,-7.6508,-7.6589,-7.6082,-7.5879,-7.5879,-7.5879,-7.554,-7.4965,-7.4458,-7.4289,-7.4187,-7.3646,-7.3341,-7.3071,-7.2563,-7.2259,-7.1988,-7.1447,-7.1312,-7.1312,-7.1312,-7.1312,-7.1312,-7.1312,-7.1312,-7.1312,-7.1312,-7.1312,-7.1312,-7.1312,-7.1287,-7.1392,-7.1756,-7.2188,-7.2699,-7.3019,-7.4004,-7.5119,-7.6159,-7.6799,-7.7724,-7.9354,-7.9752,-8.0114,-8.0694,-8.0984,-8.1128,-8.1128,-8.1128,-8.1128,-8.1128,-8.1128,-8.1382,-8.1925,-8.2143,-8.2939,-8.4316,-8.4316,-8.475,-8.5547,-8.5801,-8.5909,-8.5909,-8.5909,-8.5909,-8.5909,-8.5909,-8.5909,-8.5909,-8.5909,-8.5909,-8.5909,-8.5909,-8.5909,-8.5909,-8.5909,-8.5909,-8.5909,-7.6275,-7.6275,-7.6275,-7.6275,-7.6275,-7.6022,-7.5192,-7.5515,-7.5659,-7.5155,-7.5515,-7.613,-7.6927,-7.7036,-7.7362,-7.8159,-7.9245,-8.0259,-8.1056,-8.1128,-8.0875,-8.0404,-7.8675,-7.7559,-7.7236,-7.564,-7.5356,-7.6518,-7.5688,-7.5938,-7.7236,-7.6349,-7.6352,-7.713,-7.7228,-7.7194,-7.7085,-7.7085,-7.7124,-7.7029,-7.6589,-7.642,-7.642,-7.642,-7.6115,-7.5642,-7.5202,-7.5033,-7.4965,-7.4525,-7.4187,-7.3815,-7.3071,-7.2631,-7.2326,-7.1887,-7.1548,-7.1312,-7.1312,-7.1312,-7.1312,-7.1312,-7.1312,-7.1312,-7.1312,-7.1312,-7.1312,-7.1312,-7.1312,-7.1457,-7.196,-7.2279,-7.2666,-7.32,-7.4241,-7.5387,-7.6543,-7.7415,-7.8531,-8.0188,-8.0368,-8.0585,-8.1056,-8.1128,-8.1128,-8.1128,-8.1128,-8.1128,-8.1128,-8.1418,-8.178,-8.2287,-8.2903,-8.37,-8.4678,-8.5004,-8.5402,-8.5909,-8.5909,-8.5909,-8.5909,-8.5909,-8.5909,-8.5909,-8.5909,-8.5909,-8.5909,-8.5909,-8.5909,-8.5909,-8.5909,-8.5909,-8.5945,-8.6235,-8.6344,-8.638,-7.6167,-7.6239,-7.6275,-7.6275,-7.6275,-7.6058,-7.5334,-7.5192,-7.5192,-7.5192,-7.5192,-7.5515,-7.6203,-7.6275,-7.6565,-7.7326,-7.8847,-8.0151,-8.1056,-8.1128,-8.1128,-8.1128,-8.0404,-7.968,-7.8919,-7.7344,-7.7236,-7.8702,-7.7872,-7.791,-7.867,-7.7805,-7.7823,-7.8532,-7.7707,-7.7221,-7.7085,-7.7085,-7.6576,-7.5709,-7.5709,-7.5709,-7.5709,-7.5709,-7.5709,-7.5709,-7.5709,-7.5709,-7.5709,-7.5709,-7.527,-7.4593,-7.3815,-7.3138,-7.2563,-7.2428,-7.1921,-7.1413,-7.1345,-7.1312,-7.1312,-7.1312,-7.1312,-7.1312,-7.1312,-7.1312,-7.1312,-7.1312,-7.1312,-7.1312,-7.1312,-7.1917,-7.244,-7.2509,-7.3815,-7.5398,-7.7027,-7.7963,-7.9091,-8.0768,-8.0985,-8.1021,-8.1056,-8.1128,-8.1128,-8.1128,-8.1128,-8.1128,-8.1201,-8.1889,-8.236,-8.2505,-8.3917,-8.4714,-8.4786,-8.5511,-8.5909,-8.5909,-8.5909,-8.5909,-8.5909,-8.5982,-8.5982,-8.6018,-8.6054,-8.6054,-8.5982,-8.5982,-8.5945,-8.5909,-8.5909,-8.5909,-8.5982,-8.667,-8.6959,-8.7104,-7.537,-7.5877,-7.6275,-7.6275,-7.6275,-7.6239,-7.6058,-7.6022,-7.6022,-7.6022,-7.6022,-7.6094,-7.6275,-7.6275,-7.6348,-7.6529,-7.8014,-7.9571,-8.102,-8.1128,-8.1128,-8.1128,-8.0947,-8.0766,-8.0585,-7.9032,-7.8347,-7.8702,-7.7847,-7.7841,-7.8592,-7.7673,-7.7661,-7.8442,-7.8236,-7.7752,-7.7085,-7.7085,-7.6576,-7.5709,-7.5709,-7.5709,-7.5709,-7.5709,-7.5709,-7.5709,-7.5709,-7.5709,-7.5709,-7.5709,-7.5574,-7.5337,-7.4593,-7.4255,-7.3916,-7.2732,-7.2293,-7.2056,-7.1481,-7.1312,-7.1312,-7.1312,-7.1312,-7.1312,-7.1312,-7.1312,-7.1312,-7.1312,-7.1312,-7.1312,-7.1312,-7.1412,-7.176,-7.2337,-7.3301,-7.4537,-7.6068,-7.7005,-7.8125,-7.9875,-8.0061,-8.0361,-8.1021,-8.1128,-8.1128,-8.1128,-8.1128,-8.1382,-8.1998,-8.2179,-8.2867,-8.4135,-8.4497,-8.5004,-8.5619,-8.5801,-8.5909,-8.5909,-8.5909,-8.5909,-8.5909,-8.6525,-8.6778,-8.6815,-8.743,-8.7358,-8.6778,-8.6778,-8.6416,-8.5909,-8.5909,-8.5909,-8.5909,-8.609,-8.6525,-8.7032,-7.5083,-7.5152,-7.5297,-7.5659,-7.5732,-7.5877,-7.6239,-7.6275,-7.6275,-7.6275,-7.6275,-7.6275,-7.6275,-7.6275,-7.6601,-7.7362,-7.8195,-7.939,-8.102,-8.1128,-8.1128,-8.1128,-8.1128,-8.1128,-8.1128,-8.0295,-7.9647,-7.925,-7.8375,-7.8173,-7.8487,-7.7587,-7.7371,-7.7754,-7.7317,-7.6861,-7.6439,-7.6439,-7.6148,-7.5709,-7.5709,-7.5709,-7.5709,-7.5709,-7.5709,-7.5709,-7.5709,-7.5709,-7.5709,-7.5709,-7.5709,-7.5642,-7.5236,-7.4897,-7.4458,-7.368,-7.3206,-7.2766,-7.2022,-7.1819,-7.1751,-7.1413,-7.1312,-7.1312,-7.1312,-7.1312,-7.1312,-7.1312,-7.1312,-7.1312,-7.1312,-7.1312,-7.1548,-7.2293,-7.3073,-7.4189,-7.5775,-7.7047,-7.8271,-7.9569,-8.0137,-8.062,-8.1056,-8.1128,-8.1128,-8.1128,-8.1454,-8.1853,-8.2287,-8.3012,-8.3809,-8.4678,-8.5076,-8.5475,-8.5909,-8.5909,-8.5909,-8.5909,-8.5909,-8.609,-8.6452,-8.6851,-8.7213,-8.7573,-8.8007,-8.7718,-8.7032,-8.7032,-8.6561,-8.5909,-8.5909,-8.6126,-8.6416,-8.6416,-8.6923,-8.7537,-7.5083,-7.4682,-7.4537,-7.5189,-7.5334,-7.5551,-7.6203,-7.6275,-7.6275,-7.6275,-7.6275,-7.6275,-7.6275,-7.6275,-7.6891,-7.8376,-7.8629,-7.9318,-8.0802,-8.102,-8.1128,-8.1128,-8.1128,-8.1128,-8.1128,-8.1128,-8.0657,-7.9792,-7.9114,-7.8571,-7.8147,-7.758,-7.7263,-7.7075,-7.6288,-7.5913,-7.5913,-7.5805,-7.5709,-7.5709,-7.5709,-7.5709,-7.5709,-7.5709,-7.5709,-7.5709,-7.5709,-7.5709,-7.5709,-7.5709,-7.5709,-7.5709,-7.5709,-7.527,-7.4762,-7.4661,-7.4153,-7.351,-7.28,-7.2597,-7.2428,-7.1853,-7.1684,-7.1684,-7.1684,-7.1481,-7.1312,-7.1312,-7.1312,-7.1312,-7.1312,-7.1312,-7.1582,-7.2462,-7.3105,-7.407,-7.574,-7.7077,-7.8322,-7.9373,-8.0473,-8.1128,-8.1128,-8.1128,-8.1165,-8.1309,-8.1925,-8.2396,-8.2722,-8.3953,-8.475,-8.4895,-8.5547,-8.5909,-8.5909,-8.5909,-8.5909,-8.5909,-8.5909,-8.6308,-8.7032,-8.7141,-8.7648,-8.8444,-8.8553,-8.8082,-8.7213,-8.7213,-8.6706,-8.5909,-8.6054,-8.638,-8.6851,-8.6959,-8.7358,-8.779,-7.5083,-7.5587,-7.5985,-7.613,-7.613,-7.6167,-7.6275,-7.6275,-7.6275,-7.6275,-7.6275,-7.6275,-7.6275,-7.6275,-7.6674,-7.7579,-7.8303,-7.91,-8.0006,-8.073,-8.1128,-8.1128,-8.1128,-8.1128,-8.1128,-8.1128,-8.0657,-7.9792,-7.9614,-7.8746,-7.7308,-7.7934,-7.7805,-7.7085,-7.6985,-7.694,-7.685,-7.6054,-7.5709,-7.5709,-7.5709,-7.5709,-7.5709,-7.5709,-7.5709,-7.5709,-7.5709,-7.5709,-7.5709,-7.5709,-7.5709,-7.5709,-7.5709,-7.5642,-7.5439,-7.4796,-7.4559,-7.4289,-7.3544,-7.3341,-7.3308,-7.3206,-7.3206,-7.3206,-7.3206,-7.2225,-7.1312,-7.1312,-7.1312,-7.1312,-7.1312,-7.1312,-7.1751,-7.3105,-7.3409,-7.3997,-7.5526,-7.5939,-7.669,-7.8399,-8.0099,-8.1128,-8.1128,-8.1128,-8.1382,-8.207,-8.2215,-8.2903,-8.4279,-8.4569,-8.5004,-8.5728,-8.5837,-8.5909,-8.5909,-8.5909,-8.5909,-8.5909,-8.5909,-8.6308,-8.7032,-8.7718,-8.8481,-8.9277,-8.9966,-8.9422,-8.8007,-8.8007,-8.7213,-8.5945,-8.6597,-8.6525,-8.6126,-8.6778,-8.667,-8.6193,-7.5083,-7.5044,-7.5116,-7.5551,-7.5623,-7.5949,-7.6818,-7.6963,-7.7108,-7.7579,-7.7651,-7.7651,-7.7651,-7.7651,-7.7941,-7.8774,-7.9173,-7.9716,-8.0513,-8.0911,-8.1128,-8.1128,-8.1128,-8.1128,-8.1128,-8.1128,-8.0657,-7.9792,-7.9757,-7.9089,-7.7805,-7.8231,-7.8189,-7.784,-7.784,-7.7537,-7.7041,-7.6668,-7.6194,-7.5709,-7.5709,-7.5709,-7.5709,-7.5709,-7.5709,-7.5743,-7.6217,-7.6352,-7.642,-7.6826,-7.669,-7.6352,-7.6352,-7.6048,-7.5642,-7.5303,-7.5202,-7.5067,-7.4322,-7.4119,-7.4018,-7.3578,-7.3477,-7.3477,-7.3477,-7.3003,-7.2428,-7.1988,-7.1616,-7.1312,-7.1312,-7.1312,-7.1785,-7.324,-7.3477,-7.4018,-7.5473,-7.6148,-7.6951,-7.8273,-7.9562,-8.0541,-8.0936,-8.1453,-8.2106,-8.2903,-8.3374,-8.3953,-8.4642,-8.5112,-8.5511,-8.5873,-8.5909,-8.5909,-8.5909,-8.5909,-8.5909,-8.5909,-8.5909,-8.6308,-8.7032,-8.7826,-8.8662,-8.9422,-9.0255,-8.9929,-8.8843,-8.8408,-8.75,-8.6525,-8.6416,-8.6199,-8.5982,-8.6742,-8.618,-8.5064]},{"header":{"parameterUnit":"m.s-1","parameterCategory":1,"la1":30.6,"la2":28.766,"lo1":-90.7593,"lo2":-88.6598,"dx":0.0162,"dy":0.0183,"nx":116,"ny":114,"refTime":"2022-12-25T06:00:00:Z","depth":0,"parameterNumber":3,"parameterNumberName":"V-component_of_WINDS"},"data":[0.0,0.0,0.0,0.0,0.0,0.0,0.0,0.0,0.0,0.0,0.0,0.0,0.0,0.0,0.0,0.0,0.0,0.0,0.0,0.0,0.0,0.0,0.0,0.0,0.0,0.0,0.0,0.0,0.0,0.0,0.0,0.0,0.0,0.0,0.0,0.0,0.0,0.0,0.0,0.0,0.0,0.0,0.0,0.0,0.0,0.0,0.0,0.0,0.0,0.0,0.0,0.0,0.0,0.0,0.0,0.0,0.0,0.0,0.0,0.0,0.0,0.0,0.0,0.0,0.0,0.0,0.0,0.0,0.0,0.0,0.0,0.0,0.0,0.0,0.0,0.0,0.0,0.0,0.0,0.0,0.0,0.0,0.0,0.0,0.0,0.0,0.0,0.0,0.0,0.0,0.0,0.0,0.0,0.0,0.0,0.0,0.0,0.0,0.0,0.0,0.0,0.0,0.0,0.0,0.0,0.0,0.0,0.0,0.0,0.0,0.0,0.0,0.0,0.0,0.0,0.0,0.0,0.0,0.0,0.0,0.0,0.0,0.0,0.0,0.0,0.0,0.0,0.0,0.0,0.0,0.0,0.0,0.0,0.0,0.0,0.0,0.0,0.0,0.0,0.0,0.0,0.0,0.0,0.0,0.0,0.0,0.0,0.0,0.0,0.0,0.0,0.0,0.0,0.0,0.0,0.0,0.0,0.0,0.0,0.0,0.0,0.0,0.0,0.0,0.0,0.0,0.0,0.0,0.0,0.0,0.0,0.0,0.0,0.0,0.0,0.0,0.0,0.0,0.0,0.0,0.0,0.0,0.0,0.0,0.0,0.0,0.0,0.0,0.0,0.0,0.0,0.0,0.0,0.0,0.0,0.0,0.0,0.0,0.0,0.0,0.0,0.0,0.0,0.0,0.0,0.0,0.0,0.0,0.0,0.0,0.0,0.0,0.0,0.0,0.0,0.0,0.0,0.0,0.0,0.0,0.0,0.0,0.0,0.0,0.0,0.0,0.0,0.0,0.0,0.0,0.0,0.0,0.0,0.0,0.0,0.0,0.0,0.0,0.0,0.0,0.0,0.0,0.0,0.0,0.0,0.0,0.0,0.0,0.0,0.0,0.0,0.0,0.0,0.0,0.0,0.0,0.0,0.0,0.0,0.0,0.0,0.0,0.0,0.0,0.0,0.0,0.0,0.0,0.0,0.0,0.0,0.0,0.0,0.0,0.0,0.0,0.0,0.0,0.0,0.0,0.0,0.0,0.0,0.0,0.0,0.0,0.0,0.0,0.0,0.0,0.0,0.0,0.0,0.0,0.0,0.0,0.0,0.0,0.0,0.0,0.0,0.0,0.0,0.0,0.0,0.0,0.0,0.0,0.0,0.0,0.0,0.0,0.0,0.0,0.0,0.0,0.0,0.0,0.0,0.0,0.0,0.0,0.0,0.0,0.0,0.0,0.0,0.0,0.0,0.0,0.0,0.0,0.0,0.0,0.0,0.0,0.0,0.0,0.0,0.0,0.0,0.0,0.0,0.0,0.0,0.0,0.0,0.0,0.0,0.0,0.0,0.0,0.0,0.0,0.0,0.0,0.0,0.0,0.0,0.0,0.0,0.0,0.0,0.0,0.0,0.0,0.0,0.0,0.0,0.0,0.0,0.0,0.0,0.0,0.0,0.0,0.0,0.0,0.0,0.0,0.0,0.0,0.0,0.0,0.0,0.0,0.0,0.0,0.0,0.0,0.0,0.0,0.0,0.0,0.0,0.0,0.0,0.0,0.0,0.0,0.0,0.0,0.0,0.0,0.0,0.0,0.0,0.0,0.0,0.0,0.0,0.0,0.0,0.0,0.0,0.0,0.0,0.0,0.0,0.0,0.0,0.0,0.0,0.0,0.0,0.0,0.0,0.0,0.0,0.0,0.0,0.0,0.0,0.0,0.0,0.0,0.0,0.0,0.0,0.0,0.0,0.0,0.0,0.0,0.0,0.0,0.0,0.0,0.0,0.0,0.0,0.0,0.0,0.0,0.0,0.0,0.0,0.0,0.0,0.0,0.0,0.0,0.0,0.0,0.0,0.0,0.0,0.0,0.0,0.0,0.0,0.0,0.0,0.0,0.0,0.0,0.0,0.0,0.0,0.0,0.0,0.0,0.0,0.0,0.0,0.0,0.0,0.0,0.0,0.0,0.0,0.0,0.0,0.0,0.0,0.0,0.0,0.0,0.0,0.0,0.0,0.0,0.0,0.0,0.0,0.0,0.0,0.0,0.0,0.0,0.0,0.0,0.0,0.0,0.0,0.0,0.0,0.0,0.0,0.0,0.0,0.0,0.0,0.0,0.0,0.0,0.0,0.0,0.0,0.0,0.0,0.0,0.0,0.0,0.0,0.0,0.0,0.0,0.0,0.0,0.0,0.0,0.0,0.0,0.0,0.0,0.0,0.0,0.0,0.0,0.0,0.0,0.0,0.0,0.0,0.0,0.0,0.0,0.0,0.0,0.0,0.0,0.0,0.0,0.0,0.0,0.0,0.0,0.0,0.0,0.0,0.0,0.0,0.0,0.0,0.0,0.0,0.0,0.0,0.0,0.0,0.0,0.0,0.0,0.0,0.0,0.0,0.0,0.0,0.0,0.0,0.0,0.0,0.0,0.0,0.0,0.0,0.0,0.0,0.0,0.0,0.0,0.0,0.0,0.0,0.0,0.0,0.0,0.0,0.0,0.0,0.0,0.0,0.0,0.0,0.0,0.0,0.0,0.0,0.0,0.0,0.0,0.0,0.0,0.0,0.0,0.0,0.0,0.0,0.0,0.0,0.0,0.0,0.0,0.0,0.0,0.0,0.0,0.0,0.0,0.0,0.0,0.0,0.0,0.0,0.0,0.0,0.0,0.0,0.0,0.0,0.0,0.0,0.0,0.0,0.0,0.0,0.0,0.0,0.0,0.0,0.0,0.0,0.0,0.0,0.0,0.0,0.0,0.0,0.0,0.0,0.0,0.0,0.0,0.0,0.0,0.0,0.0,0.0,0.0,0.0,0.0,0.0,0.0,0.0,0.0,0.0,0.0,0.0,0.0,0.0,0.0,0.0,0.0,0.0,0.0,0.0,0.0,0.0,0.0,0.0,0.0,0.0,0.0,0.0,0.0,0.0,0.0,0.0,0.0,0.0,0.0,0.0,0.0,0.0,0.0,0.0,0.0,0.0,0.0,0.0,0.0,0.0,0.0,0.0,0.0,0.0,0.0,0.0,0.0,0.0,0.0,0.0,0.0,0.0,0.0,0.0,0.0,0.0,0.0,0.0,0.0,0.0,0.0,0.0,0.0,0.0,0.0,0.0,0.0,0.0,0.0,0.0,0.0,0.0,0.0,0.0,0.0,0.0,0.0,0.0,0.0,0.0,0.0,0.0,0.0,0.0,0.0,0.0,0.0,0.0,0.0,0.0,0.0,0.0,0.0,0.0,0.0,0.0,0.0,0.0,0.0,0.0,0.0,0.0,0.0,0.0,0.0,0.0,0.0,0.0,0.0,0.0,0.0,0.0,0.0,0.0,0.0,0.0,0.0,0.0,0.0,0.0,0.0,0.0,0.0,0.0,0.0,0.0,0.0,0.0,0.0,0.0,0.0,0.0,0.0,0.0,0.0,0.0,0.0,0.0,0.0,0.0,0.0,0.0,0.0,0.0,0.0,0.0,0.0,0.0,0.0,0.0,0.0,0.0,0.0,0.0,0.0,0.0,0.0,0.0,0.0,0.0,0.0,0.0,0.0,0.0,0.0,0.0,0.0,0.0,0.0,0.0,0.0,0.0,0.0,0.0,0.0,0.0,0.0,0.0,0.0,0.0,0.0,0.0,0.0,0.0,0.0,0.0,0.0,0.0,0.0,0.0,0.0,0.0,0.0,0.0,0.0,0.0,0.0,0.0,0.0,0.0,0.0,0.0,0.0,0.0,0.0,0.0,0.0,0.0,0.0,0.0,0.0,0.0,0.0,0.0,0.0,0.0,0.0,0.0,0.0,0.0,0.0,0.0,0.0,0.0,0.0,0.0,0.0,0.0,0.0,0.0,0.0,0.0,0.0,0.0,0.0,0.0,0.0,0.0,0.0,0.0,0.0,0.0,0.0,0.0,0.0,0.0,0.0,0.0,0.0,0.0,0.0,0.0,0.0,0.0,0.0,0.0,0.0,0.0,0.0,0.0,0.0,0.0,0.0,0.0,0.0,0.0,0.0,0.0,0.0,0.0,0.0,0.0,0.0,0.0,0.0,0.0,0.0,0.0,0.0,0.0,0.0,0.0,0.0,0.0,0.0,0.0,0.0,0.0,0.0,0.0,0.0,0.0,0.0,0.0,0.0,0.0,0.0,0.0,0.0,0.0,0.0,0.0,0.0,0.0,0.0,0.0,0.0,0.0,0.0,0.0,0.0,0.0,0.0,0.0,0.0,0.0,0.0,0.0,0.0,0.0,0.0,0.0,0.0,0.0,0.0,0.0,0.0,0.0,0.0,0.0,0.0,0.0,0.0,0.0,0.0,0.0,0.0,0.0,0.0,0.0,0.0,0.0,0.0,0.0,0.0,0.0,0.0,0.0,0.0,0.0,0.0,0.0,0.0,0.0,0.0,0.0,0.0,0.0,0.0,0.0,0.0,0.0,0.0,0.0,0.0,0.0,0.0,0.0,0.0,0.0,0.0,0.0,0.0,0.0,0.0,0.0,0.0,0.0,0.0,0.0,0.0,0.0,0.0,0.0,0.0,0.0,0.0,0.0,0.0,0.0,0.0,0.0,0.0,0.0,0.0,0.0,0.0,0.0,0.0,0.0,0.0,0.0,0.0,0.0,0.0,0.0,0.0,0.0,0.0,0.0,0.0,0.0,0.0,0.0,0.0,0.0,0.0,0.0,0.0,0.0,0.0,0.0,0.0,0.0,0.0,0.0,0.0,0.0,0.0,0.0,0.0,0.0,0.0,0.0,0.0,0.0,0.0,0.0,0.0,0.0,0.0,0.0,0.0,0.0,0.0,0.0,0.0,0.0,0.0,0.0,0.0,0.0,0.0,0.0,0.0,0.0,0.0,0.0,0.0,0.0,0.0,0.0,0.0,0.0,0.0,0.0,0.0,0.0,0.0,0.0,0.0,0.0,0.0,0.0,0.0,0.0,0.0,0.0,0.0,0.0,0.0,0.0,0.0,0.0,0.0,0.0,0.0,0.0,0.0,0.0,0.0,0.0,0.0,0.0,0.0,0.0,0.0,0.0,0.0,0.0,0.0,0.0,0.0,0.0,0.0,0.0,0.0,0.0,0.0,0.0,0.0,0.0,0.0,0.0,0.0,0.0,0.0,0.0,0.0,0.0,0.0,0.0,0.0,0.0,0.0,0.0,0.0,0.0,0.0,0.0,0.0,0.0,0.0,0.0,0.0,0.0,0.0,0.0,0.0,0.0,0.0,0.0,0.0,0.0,0.0,0.0,0.0,0.0,0.0,0.0,0.0,0.0,0.0,0.0,0.0,0.0,0.0,0.0,0.0,0.0,0.0,0.0,0.0,0.0,0.0,0.0,0.0,0.0,0.0,0.0,0.0,0.0,0.0,0.0,0.0,0.0,0.0,0.0,0.0,0.0,0.0,0.0,0.0,0.0,0.0,0.0,0.0,0.0,0.0,0.0,0.0,0.0,0.0,0.0,0.0,0.0,0.0,0.0,0.0,0.0,0.0,0.0,0.0,0.0,0.0,0.0,0.0,0.0,0.0,0.0,0.0,0.0,0.0,0.0,0.0,0.0,0.0,0.0,0.0,0.0,0.0,0.0,0.0,0.0,0.0,0.0,0.0,0.0,0.0,0.0,0.0,0.0,0.0,0.0,0.0,0.0,0.0,0.0,0.0,0.0,0.0,0.0,0.0,0.0,0.0,0.0,0.0,0.0,0.0,0.0,0.0,0.0,0.0,0.0,0.0,0.0,0.0,0.0,0.0,0.0,0.0,0.0,0.0,0.0,0.0,0.0,0.0,0.0,0.0,0.0,0.0,0.0,0.0,0.0,0.0,0.0,0.0,0.0,0.0,0.0,0.0,0.0,0.0,0.0,0.0,0.0,0.0,0.0,0.0,0.0,0.0,0.0,0.0,0.0,0.0,0.0,0.0,2.0584,0.0,0.0,0.0,0.0,0.0,0.0,0.0,0.0,0.0,0.0,0.0,0.0,0.0,0.0,0.0,0.0,0.0,0.0,0.0,0.0,0.0,0.0,0.0,0.0,0.962,0.9865,0.9865,0.9677,0.0,0.0,0.0,0.0,0.0,0.0,0.0,0.0,0.0,1.1385,1.2437,1.3105,1.4199,1.5684,1.4933,1.4082,1.3091,0.0,0.0,0.0,0.0,0.0,0.0,0.0,0.0,0.0,0.0,0.0,0.0,0.0,0.0,0.0,0.0,0.0,0.0,0.0,0.0,0.0,0.0,0.0,0.0,0.0,0.0,0.0,0.0,0.0,0.0,0.0,0.0,0.0,0.0,0.0,0.0,0.0,0.0,0.0,0.0,0.0,0.0,0.0,0.0,0.0,0.0,0.0,0.0,0.0,0.0,0.0,0.0,0.0,0.0,0.0,0.0,0.0,0.0,0.0,0.0,0.0,0.0,0.0,0.0,0.0,0.0,0.0,0.0,0.0,0.0,0.0,2.0605,0.0,0.0,0.0,0.0,0.0,0.0,0.0,0.0,0.0,0.0,0.0,0.0,0.0,0.0,0.0,0.0,0.0,0.0,0.0,0.0,0.0,1.0112,0.9715,1.0342,1.083,1.0903,1.0563,1.0461,1.0742,1.0312,0.0,0.0,0.0,0.0,0.0,1.2047,1.3139,1.4562,1.5712,1.6953,1.8218,1.8711,1.7832,0.0,0.0,0.0,0.0,0.0,0.0,0.0,0.0,0.0,0.0,0.0,0.0,0.0,0.0,0.0,0.0,0.0,0.0,0.0,0.0,0.0,0.0,0.0,0.0,0.0,0.0,0.0,0.0,0.0,0.0,0.0,0.0,0.0,0.0,0.0,0.0,0.0,0.0,0.0,0.0,0.0,0.0,0.0,0.0,0.0,0.0,0.0,0.0,0.0,0.0,0.0,0.0,0.0,0.0,0.0,0.0,0.0,0.0,0.0,0.0,0.0,0.0,0.0,0.0,0.0,2.312,2.3555,2.3301,2.3672,2.3828,2.3725,2.3008,2.2695,2.2656,2.166,0.0,0.0,0.0,0.0,0.0,0.0,0.0,0.0,0.0,0.0,0.0,0.0,0.0,0.0,0.0,0.0,0.0,0.0,0.0,1.0181,1.0284,1.0582,1.094,1.1282,1.1363,1.1733,1.2524,1.2106,0.0,0.0,0.0,0.0,1.3164,1.3281,1.4309,1.6356,0.0,2.041,2.1269,2.0664,2.0175,1.9744,1.767,0.0,0.0,0.0,0.0,0.0,0.0,0.0,0.0,0.0,0.0,0.0,0.0,0.0,0.0,0.0,0.0,0.0,0.0,0.0,0.0,0.0,0.0,0.0,0.0,0.0,0.0,0.0,0.0,0.0,0.0,0.0,0.0,0.0,0.0,0.0,0.0,0.0,0.0,0.0,0.0,0.0,0.0,0.0,1.7519,1.8344,0.0,0.0,0.0,0.0,0.0,0.0,0.0,0.0,0.0,0.0,0.0,0.0,0.0,2.2207,2.3262,2.3867,2.4446,2.5109,2.5703,2.6133,2.6426,2.6484,2.6504,2.6484,2.5996,0.0,2.3633,2.3828,0.0,0.0,0.0,0.0,0.0,0.0,0.0,0.0,0.0,0.0,0.0,0.0,0.0,0.0,0.0,0.0,0.0,0.0,0.0,0.0,0.0,1.2252,1.3119,1.3552,1.4091,1.4128,1.3434,1.3399,0.0,0.0,1.298,1.3578,1.4922,1.5195,1.659,1.9221,2.1113,2.2207,2.264,2.2484,2.2383,2.2366,2.1152,1.9414,1.7357,1.6594,0.0,0.0,0.0,0.0,0.0,0.0,0.0,0.0,0.0,0.0,0.0,0.0,0.0,0.0,0.0,0.0,0.0,0.0,0.0,0.0,0.0,0.0,0.0,0.0,0.0,0.0,0.0,0.0,0.0,0.0,0.0,0.0,0.0,0.0,0.0,0.0,0.0,0.0,0.0,1.7227,1.8223,1.957,1.9512,1.9514,0.0,0.0,0.0,0.0,0.0,0.0,0.0,0.0,0.0,2.3535,2.3633,2.418,2.5234,2.5664,2.5957,2.6113,2.6543,2.6836,2.7012,2.7012,2.7012,2.7012,2.709,2.668,2.5967,2.5391,2.4941,2.4551,0.0,0.0,0.0,0.0,2.3443,2.357,0.0,0.0,0.0,0.0,0.0,0.0,0.0,0.0,0.0,0.0,0.0,0.0,1.2121,1.3608,1.4934,1.57,1.6188,1.6114,1.5247,1.5223,0.0,0.0,1.4395,1.5004,1.6543,1.7539,1.928,2.1853,2.3237,2.4082,2.4362,2.4414,2.4512,2.459,2.3926,2.1797,1.8672,1.8457,1.7676,0.0,0.0,0.0,0.0,0.0,0.0,0.0,0.0,0.0,0.0,0.0,0.0,0.0,0.0,0.0,0.0,0.0,0.0,0.0,0.0,0.0,0.0,0.0,0.0,0.0,0.0,0.0,0.0,0.0,0.0,0.0,0.0,0.0,0.0,0.0,0.0,0.0,0.0,1.8262,1.9297,2.1016,2.1035,2.1211,0.0,0.0,0.0,0.0,0.0,0.0,2.2207,2.2812,2.375,2.5039,2.5293,2.5781,2.6543,2.6855,2.6914,2.6719,2.7031,2.7246,2.7344,2.7344,2.7344,2.7363,2.7676,2.7832,2.7754,2.668,2.623,2.6211,2.5996,2.5898,2.5859,2.5527,2.5506,2.5641,0.0,0.0,0.0,0.0,0.0,0.0,0.0,0.0,0.0,0.0,0.0,1.2541,1.283,1.3889,1.5261,1.6965,1.652,1.6949,1.8913,1.8251,1.7979,1.8329,1.7959,1.7818,1.791,2.0352,2.2305,2.3672,2.5391,2.6641,2.7474,2.6621,2.6465,2.6797,2.5527,2.3965,2.2207,2.1346,2.0469,1.9512,0.0,0.0,0.0,0.0,0.0,0.0,0.0,0.0,0.0,0.0,0.0,0.0,0.0,0.0,0.0,0.0,0.0,0.0,0.0,0.0,0.0,0.0,0.0,0.0,0.0,0.0,0.0,0.0,0.0,0.0,0.0,0.0,0.0,0.0,0.0,0.0,0.0,0.0,0.0,2.2769,2.3359,0.0,0.0,0.0,0.0,2.3003,2.3418,2.4023,2.4871,2.4969,2.5527,2.6836,2.6523,2.6543,2.6973,2.7012,2.7207,2.765,2.7669,2.7832,2.8223,2.8223,2.8223,2.8223,2.8262,2.8262,2.8223,2.7754,2.7611,2.7532,2.668,2.6348,2.6348,2.6328,2.6328,2.6387,0.0,0.0,0.0,0.868,0.9006,0.9169,0.8735,0.9247,0.9794,1.0073,1.1478,1.2819,1.3812,1.5524,1.7211,1.874,1.9363,1.9783,1.9943,1.9457,1.9173,1.9241,1.8352,1.8836,2.0839,2.2363,2.4023,2.5859,2.6484,2.7226,2.8066,2.7754,2.7559,2.7422,2.7004,2.5937,2.4446,2.3023,2.2036,2.1273,1.995,1.8745,0.0,0.0,0.0,0.0,0.0,0.0,0.0,0.0,0.0,0.0,0.0,0.0,0.0,0.0,0.0,0.0,0.0,0.0,0.0,0.0,0.0,0.0,0.0,0.0,0.0,0.0,0.0,0.0,0.0,0.0,0.0,0.0,0.0,0.0,0.0,0.0,0.0,2.375,2.4102,0.0,2.5148,2.4863,2.4434,2.3939,2.4582,2.5176,2.5488,2.5762,2.6387,2.7402,2.7285,2.7422,2.7832,2.7832,2.8047,2.8476,2.8476,2.8691,2.9121,2.9121,2.9121,2.9121,2.9121,2.9121,2.9101,2.9,2.8555,2.8047,2.7734,2.7617,2.7617,2.7617,2.7793,2.8047,0.0,0.9878,0.0,0.8475,0.877,0.8913,0.8431,0.907,0.9813,1.045,1.2004,1.3541,1.4907,1.7069,1.8817,1.9791,2.0944,2.1248,2.0503,2.0193,2.0105,2.0116,1.982,2.0924,2.3744,2.4512,2.5781,2.7656,2.7949,2.8379,2.8926,2.8926,2.8789,2.8496,2.8066,2.7402,2.6484,2.4902,2.3722,2.2853,2.1708,2.0641,1.965,0.0,0.0,0.0,0.0,0.0,0.0,0.0,0.0,0.0,0.0,0.0,0.0,0.0,0.0,0.0,0.0,0.0,0.0,0.0,0.0,0.0,0.0,0.0,0.0,0.0,0.0,0.0,0.0,0.0,0.0,0.0,0.0,0.0,0.0,0.0,2.2832,2.4258,2.4551,2.498,2.5879,2.5547,2.5176,2.4883,2.5664,2.623,2.6387,2.6934,2.7578,2.8335,2.8354,2.8437,2.873,2.873,2.8867,2.9141,2.9141,2.9297,2.9626,2.9626,2.9626,2.9626,2.9626,2.9626,2.9626,2.9626,2.9238,2.873,2.873,2.873,2.873,2.873,2.8906,2.9141,1.099,0.9878,0.8862,0.8475,0.8327,0.8341,0.8671,0.9033,0.9828,1.1431,1.3191,1.4808,1.611,1.8355,1.9836,2.0121,2.0883,2.1203,2.0763,2.067,2.0778,0.0,0.0,0.0,2.6387,2.6855,2.7695,2.8965,2.9785,3.0195,3.0215,3.0215,3.0215,3.0137,2.8887,2.832,2.8203,2.6953,2.5684,2.4355,2.2656,2.2207,2.2207,0.0,0.0,0.0,0.0,0.0,0.0,0.0,0.0,0.0,0.0,0.0,0.0,0.0,0.0,0.0,0.0,0.0,0.0,0.0,0.0,0.0,0.0,0.0,0.0,0.0,0.0,0.0,0.0,0.0,0.0,0.0,0.0,0.0,2.1264,2.236,2.3516,2.4375,2.4844,2.543,2.6309,2.6016,2.5732,2.5713,2.6543,2.7226,2.7708,2.8457,2.9101,2.9551,2.9626,2.9626,2.9626,2.9626,2.9626,2.9646,2.9646,2.9646,2.9665,2.9665,2.9665,2.9665,2.9665,2.9665,2.9665,2.9629,2.9629,2.9685,2.9646,2.9626,2.9626,2.9626,2.9626,2.959,1.0923,0.9644,0.8618,0.8802,0.8887,0.9047,0.9435,1.0043,1.0942,1.2351,1.3785,1.5338,1.7086,1.8137,1.9304,2.0779,2.0966,2.1197,2.1548,2.1098,2.1081,0.0,0.0,0.0,2.7285,2.8027,2.8867,2.9844,3.0078,3.0371,3.0703,3.0703,3.0527,3.0176,2.9512,2.8867,2.8262,2.7598,2.6914,2.6172,2.4933,2.3959,2.311,0.0,0.0,0.0,0.0,0.0,0.0,0.0,0.0,0.0,0.0,0.0,0.0,0.0,0.0,0.0,0.0,0.0,0.0,0.0,0.0,0.0,0.0,0.0,0.0,0.0,0.0,0.0,0.0,0.0,0.0,0.0,0.0,2.2165,2.2974,2.296,2.3655,2.5606,2.4993,2.4892,2.6278,2.6562,2.6543,2.623,2.6992,2.7676,2.8105,2.834,2.8809,2.9607,2.9626,2.9626,2.9626,2.9626,2.9726,3.0019,3.0019,3.0195,3.0527,3.0527,3.0527,3.0527,3.0527,3.0527,3.0547,3.0859,3.0976,3.0898,2.9941,2.9626,2.9626,2.9626,2.9766,3.0117,1.1189,0.9965,0.8987,0.9208,0.9238,0.9326,0.9549,1.0027,1.1033,1.2894,1.3803,1.5234,1.7907,1.866,1.9468,2.0671,2.0861,2.0836,2.0634,2.061,0.0,0.0,0.0,2.5829,2.7929,2.8423,2.8975,2.964,3.0238,3.0625,3.0898,3.0898,3.0742,3.0469,2.9844,2.9297,2.8789,2.8184,2.7676,2.7226,2.6595,2.5563,2.4303,2.3382,2.2431,2.1523,2.0547,2.0195,2.0098,1.9492,0.0,0.0,0.0,0.0,0.0,0.0,0.0,0.0,0.0,0.0,0.0,0.0,0.0,0.0,0.0,0.0,0.0,0.0,0.0,0.0,0.0,0.0,0.0,0.0,2.1916,2.272,2.3777,2.3587,2.3851,2.5286,2.474,2.492,2.6501,2.6397,2.6366,2.661,2.7441,2.8105,2.8535,2.8906,2.9414,3.0098,3.0117,3.0117,3.0117,3.0117,3.0254,3.0488,3.0488,3.0625,3.0898,3.1074,3.1152,3.1172,3.1348,3.1426,3.1445,3.168,3.1894,0.0,0.0,0.0,0.0,0.0,3.0547,3.0859,1.1606,1.051,0.9628,0.9723,0.9528,0.9384,0.9485,0.9637,1.0652,1.3214,1.3623,1.4985,1.8496,1.9431,1.9888,2.0235,2.0581,2.0266,1.8972,0.0,0.0,2.4289,2.4399,2.5622,2.8184,2.8352,2.8553,2.8847,3.0255,3.0898,3.0898,3.0898,3.0898,3.0859,2.9961,2.9626,2.9567,2.8652,2.8066,2.7787,2.7728,2.6914,2.5644,2.4102,2.3516,2.3257,2.1701,2.1153,2.1055,2.0156,0.0,0.0,0.0,0.0,0.0,0.0,0.0,0.0,0.0,0.0,0.0,0.0,0.0,0.0,0.0,0.0,0.0,0.0,0.0,0.0,0.0,0.0,0.0,0.0,2.2158,2.2904,2.3854,2.389,2.3909,2.4121,2.4368,2.5127,2.6647,2.5919,2.5748,2.684,2.7738,2.8397,2.8823,0.0,0.0,0.0,0.0,3.0898,3.0898,3.0937,3.0996,3.1035,3.1074,3.1133,3.1191,3.1562,3.1738,3.1758,3.2148,3.2305,3.2305,3.2363,3.2598,3.2851,3.2051,3.1699,3.166,3.166,3.1641,3.166,1.1663,1.051,0.9819,1.054,1.0119,0.9947,1.0656,1.0685,1.1431,1.3623,1.4283,1.573,1.8861,1.9079,1.9411,2.0495,2.0247,1.9902,0.0,0.0,2.1744,2.4287,2.4515,2.5595,2.7838,2.848,2.8682,2.8483,3.0102,3.0898,3.0898,3.0898,3.0898,3.0859,2.9961,2.9626,2.9567,2.8652,2.8242,2.8144,2.7865,2.7109,2.623,2.5898,2.5762,2.5625,2.4617,2.4434,2.4563,2.3711,2.3027,2.2461,2.2031,0.0,0.0,0.0,0.0,0.0,0.0,0.0,0.0,0.0,0.0,0.0,0.0,0.0,0.0,0.0,0.0,0.0,0.0,0.0,0.0,2.296,2.2912,2.2997,2.3202,2.263,2.2819,2.4307,2.41,2.4262,2.5445,2.5913,2.6244,2.6478,2.7271,2.7957,2.8364,2.9527,3.041,3.0879,3.0898,3.0898,3.0898,3.123,3.1582,3.1934,0.0,0.0,3.293,3.3027,3.3047,3.3066,3.3144,3.3184,3.3203,3.3555,3.375,3.3769,3.3262,3.2851,3.2539,3.2539,3.2324,3.2109,1.1934,1.1022,1.0382,1.0818,1.0574,1.042,1.0793,1.0752,1.1208,1.2799,1.3538,1.4835,1.7329,1.7735,1.83,1.9414,1.9547,1.9441,0.0,2.0252,2.2143,2.4855,2.4252,2.4948,2.7381,2.7771,2.7878,2.7683,2.9867,3.0898,3.0898,3.0898,3.0898,3.0859,3.0176,2.9766,2.9587,2.8887,2.8476,2.8281,2.8066,2.7715,2.7285,2.6875,2.6699,2.6621,2.5957,2.5879,2.5918,2.5039,2.4609,2.4336,2.3672,2.3027,2.2266,0.0,0.0,0.0,0.0,0.0,0.0,0.0,0.0,0.0,0.0,0.0,0.0,0.0,0.0,2.3353,0.0,0.0,2.316,2.2178,2.2228,2.2396,2.2396,2.2172,2.2441,2.3436,2.3198,2.349,2.4844,2.4968,2.5444,2.6738,2.7525,2.8436,2.9523,3.0393,3.1055,3.1523,3.1523,3.1523,3.1523,3.1953,3.2266,3.248,3.291,3.3223,3.3437,3.3652,3.375,3.375,3.3965,3.4062,3.4101,3.4551,3.4726,3.4726,3.4726,3.4062,3.3144,3.3359,3.3301,3.3144,1.2223,1.1638,1.1151,1.1151,1.1032,1.0867,1.0743,1.054,1.079,1.1855,1.2463,1.3573,1.5575,1.636,1.7071,1.7942,1.8814,0.0,0.0,2.012,2.2436,2.5245,2.4105,2.4561,2.7123,2.7056,2.7091,2.7262,2.9453,3.0645,3.0898,3.0898,3.084,3.0742,3.0273,2.9844,2.9414,2.8984,2.8594,2.8301,2.8301,2.8301,2.8223,2.7519,2.7266,2.7207,2.6797,2.6523,2.6269,2.5566,2.5449,2.544,2.4863,2.4434,2.3926,2.2734,2.2012,0.0,0.0,0.0,0.0,0.0,0.0,0.0,0.0,0.0,2.3386,2.2913,2.342,2.3709,2.2766,2.2703,2.2341,2.1131,2.1465,2.1913,2.1913,2.201,2.2149,2.2323,2.2371,2.2982,2.4396,2.3999,2.468,2.7071,2.7853,2.9006,3.0682,3.1326,3.1816,3.2209,3.2229,3.2229,3.2229,3.2656,3.2969,3.3047,3.3555,3.3848,3.3945,3.4297,3.4453,3.4473,3.4805,3.4961,3.498,3.5371,3.5508,3.5547,3.5879,3.5156,3.3965,3.4238,3.4277,3.4199,1.2281,1.2125,1.2047,1.2047,1.1649,1.128,1.1155,1.0728,1.079,1.1855,1.2069,1.295,1.5209,1.5773,1.6287,1.698,1.8434,0.0,1.835,2.012,2.2343,2.4868,2.4626,2.5449,2.7685,2.7257,2.7389,2.8272,2.8814,2.9726,3.0898,3.0898,3.0664,3.0254,2.9824,2.9394,2.8965,2.8535,2.834,2.8301,2.8301,2.8301,2.8281,2.8184,2.8144,2.8086,2.7676,2.7082,2.6367,2.6269,2.5742,2.5195,2.5488,2.5518,2.5284,2.4414,0.0,2.25,2.0703,1.962,1.9549,2.1934,2.2575,2.2915,0.0,0.0,2.6193,2.5061,2.4561,2.38,2.2176,2.1943,2.19,2.1707,2.1985,2.2237,2.2237,2.1714,2.1434,2.1729,2.2436,2.3181,2.3891,2.4154,2.5157,2.7305,2.7892,2.8773,3.0168,3.1424,3.217,3.2229,3.2229,3.2229,3.2229,3.2949,3.3555,3.3945,3.4766,3.5371,3.5723,3.5781,3.5801,3.5801,3.5859,3.5879,3.5879,3.5937,3.5957,3.5957,3.5996,3.5898,3.5684,3.5371,3.498,3.4629,1.2637,1.2617,1.2502,1.2191,1.1722,1.1352,1.1224,1.0744,1.0523,1.0857,1.1399,1.2173,1.3286,1.4402,1.5187,1.5492,1.7871,1.9105,1.8458,2.0557,2.2538,2.4181,2.3387,2.3997,2.6363,2.6596,2.7263,2.8315,2.9197,2.993,3.0488,3.0234,3.0019,2.9824,2.9704,2.9336,2.8906,2.873,2.8516,2.8301,2.8301,2.8144,2.793,2.793,2.793,2.7871,2.7441,2.6894,0.0,0.0,2.6133,2.5918,2.6348,2.6083,2.5518,2.4668,2.3984,0.0,2.2345,2.208,0.0,0.0,2.4529,2.4911,2.5057,2.5206,2.5181,2.4739,2.4085,2.3249,2.2346,2.2227,2.1971,0.0,2.1284,2.1511,2.1904,2.1682,2.1613,2.1935,2.2318,2.304,2.4261,2.3916,2.4748,2.7333,2.716,2.7587,2.9186,2.9771,3.0212,3.0447,3.1225,3.1797,3.2061,3.3463,3.4394,3.4844,3.5469,3.5859,3.6016,3.6016,3.6016,3.6016,3.6016,3.6016,3.6016,3.6016,3.5451,3.4853,3.5946,3.5885,3.5136,3.5559,3.5801,3.5801,1.2915,1.2774,1.2554,1.2184,1.1561,1.1089,1.099,1.0659,1.0348,1.0134,1.0711,1.1466,1.2191,1.3628,1.4465,1.4358,1.6749,1.8279,0.0,2.0241,2.2221,2.4018,2.2901,2.3287,2.552,2.5984,2.6772,2.8003,2.8975,2.9679,3.0019,2.9707,2.9512,2.9394,2.9394,2.916,2.875,2.875,2.8574,2.8281,2.8164,2.793,2.7728,2.7728,2.7415,2.6934,2.655,2.616,0.0,0.0,2.5564,2.5401,2.6209,2.5977,2.5226,2.4746,2.4036,2.3505,2.3866,0.0,0.0,2.4589,2.5097,2.5212,2.4809,2.4468,2.4224,2.4006,2.3451,2.2823,2.2142,2.2102,2.18,2.0847,2.0794,2.1057,2.1613,2.1701,2.1847,2.2257,2.2389,2.3126,2.4913,2.3944,2.4436,2.7227,2.6761,2.702,2.869,2.8755,2.8892,2.9182,3.0266,3.1244,3.1964,3.3473,3.4641,3.5391,3.582,3.6016,3.6016,3.5606,3.5177,3.4746,3.4746,3.4746,3.4765,3.4878,3.4293,3.3475,3.4948,3.5116,3.4637,3.5408,3.6216,3.6797,1.2915,1.248,1.2135,1.211,1.1175,1.0438,1.0429,1.0403,1.0348,1.0134,1.0126,1.0866,1.2759,1.3879,1.4383,1.4033,1.4937,1.6076,1.7423,1.8712,2.0995,2.4583,2.3983,2.4315,2.5949,2.5634,2.6039,2.7327,2.7545,2.8314,2.9646,2.9626,2.9355,2.8945,2.8945,2.8711,2.832,2.832,2.8301,2.8262,2.7904,2.7728,2.7728,2.7728,2.6671,2.5158,2.5014,0.0,0.0,0.0,2.3489,2.2732,2.4562,2.4824,0.0,2.4922,2.3895,2.3,2.505,0.0,2.0605,2.3436,2.3402,2.2679,2.2975,2.3877,2.4378,2.3295,2.303,2.2542,2.1059,2.104,2.1143,2.0779,2.0984,2.1306,2.1642,2.1701,2.192,2.2535,2.2886,2.3891,0.0,2.4581,2.455,2.6959,2.7105,2.7718,2.91,2.9165,2.9165,2.9182,2.9541,3.0478,3.1964,3.2753,3.3921,3.5391,3.582,3.6016,3.5947,3.454,3.3067,3.1649,3.1649,3.1649,3.1666,3.1973,3.2127,3.209,3.2484,3.3566,3.4882,3.4935,3.5953,3.7266,1.2915,1.2749,1.2406,1.1644,1.1175,1.0694,0.9976,0.9873,0.984,0.9787,1.0341,0.0,0.0,0.0,0.0,0.0,1.4998,1.6495,1.6586,1.8752,2.0559,2.1843,2.2186,2.3077,2.4702,2.5071,2.6041,2.7588,2.7634,2.7926,2.8354,2.8008,2.7793,2.7656,2.7656,2.7578,2.7441,2.7441,2.7441,2.7441,2.7285,2.6894,2.6445,2.7012,2.6328,2.5003,0.0,0.0,0.0,0.0,0.0,0.0,2.4237,2.4358,2.3955,2.3368,2.2922,2.2775,2.2978,2.2842,2.2754,2.3226,2.3673,2.3966,2.41,2.3855,2.3463,2.3087,2.2369,2.1672,2.1128,2.113,2.1174,2.1057,2.113,2.1393,2.195,2.2023,2.2257,2.2871,2.3237,0.0,0.0,0.0,0.0,2.6972,2.6301,2.5981,2.6435,2.6501,2.6543,2.6759,2.8742,2.9868,2.9881,3.1989,3.3011,3.28,3.2926,3.2979,3.2997,3.2773,3.2312,3.183,3.2087,3.2189,3.2189,3.2326,3.1722,3.1023,3.352,3.3513,3.244,3.4843,3.5393,3.5044,1.2915,1.2749,1.2382,1.1644,1.1326,0.0,0.0,0.0,0.0,0.0,0.0,0.0,0.0,0.0,0.0,0.0,0.0,1.5784,1.607,0.0,1.9246,1.9913,2.0188,2.1002,2.2524,2.3314,2.4427,2.5932,2.6136,2.6492,2.6973,2.6326,2.6191,2.6562,2.6562,2.6562,2.6562,2.6562,2.6641,2.6758,2.6269,2.5859,2.5527,2.5762,2.4961,0.0,0.0,0.0,0.0,0.0,0.0,2.1902,2.2973,2.3278,2.3093,2.257,2.2448,2.2448,2.2559,2.2808,2.3077,2.3039,2.3255,2.3463,2.3463,2.2862,2.2369,2.2369,2.1865,2.135,2.1233,2.1408,2.1525,2.1408,2.1481,2.1774,2.2418,2.2418,2.2579,2.3208,2.3574,2.3852,0.0,0.0,0.0,2.6285,2.5577,2.5119,2.5119,2.5119,2.5198,2.552,2.7463,2.862,2.8796,3.0732,3.1687,3.1713,3.1779,3.1561,3.1059,3.1237,3.1046,3.0551,3.0778,3.0891,3.0891,3.0947,3.0489,2.9787,3.2193,3.2267,3.1257,3.359,3.3751,3.3037,1.2915,1.2505,1.2116,0.0,0.0,0.0,0.0,0.0,0.0,0.0,0.0,0.0,0.0,0.0,0.0,0.0,0.0,0.0,1.5843,0.0,0.0,1.8889,1.8253,1.8463,1.973,2.0393,2.138,2.26,2.3154,2.4125,2.547,2.4624,2.4692,2.5557,2.5557,2.5557,2.5557,2.5557,2.584,2.6113,2.4824,2.4551,2.4805,2.4023,0.0,0.0,0.0,0.0,0.0,0.0,2.0149,1.9526,2.0954,2.165,2.2043,2.2569,2.225,2.2107,2.3586,2.2624,2.1489,2.2611,2.2059,2.1218,2.1233,2.1218,2.1218,2.1233,2.1467,2.1584,0.0,0.0,2.2037,2.1745,2.1964,2.2374,2.3003,2.2813,2.2871,0.0,0.0,0.0,0.0,0.0,0.0,2.5178,0.0,2.5149,2.5149,2.5163,2.5257,2.5593,2.597,2.6984,2.8735,2.8996,3.0033,3.182,3.2103,3.1465,3.0076,3.0092,2.9302,2.7903,2.7917,2.7917,2.7947,2.8253,2.8461,2.8491,2.8861,2.9881,3.1178,3.1255,3.1255,3.1408,0.0,0.0,0.0,0.0,0.0,0.0,0.0,0.0,0.0,0.0,0.0,0.0,0.0,0.0,0.0,0.0,0.0,0.0,0.0,0.0,0.0,0.0,0.0,0.0,0.0,0.0,0.0,0.0,0.0,2.1614,2.2504,2.2834,2.3274,2.3828,2.3828,2.3809,2.3764,2.3764,2.3822,2.3906,0.0,2.2505,2.1881,0.0,0.0,0.0,0.0,0.0,0.0,0.0,1.9562,1.9638,2.1162,2.1904,2.2113,2.1693,2.15,2.1466,2.2139,2.178,2.1319,2.1902,2.161,2.1276,2.1525,2.1379,2.1276,2.1525,2.1452,2.1306,0.0,0.0,0.0,2.1672,2.1759,0.0,2.2652,2.2681,0.0,2.3515,0.0,2.4276,2.4826,2.5169,0.0,0.0,2.5549,2.5403,2.5403,2.5637,2.6032,2.6603,2.7738,2.8289,2.8148,2.8178,2.8477,2.8925,2.9016,2.8912,2.8476,2.8715,2.8606,2.833,2.8549,2.8651,2.8651,2.8739,2.8769,2.8939,3.016,3.0191,2.9649,3.087,3.0577,2.9571,0.0,0.0,0.0,0.0,0.0,0.0,0.0,0.0,0.0,0.0,0.0,0.0,0.0,0.0,0.0,0.0,0.0,0.0,0.0,0.0,0.0,0.0,0.0,0.0,0.0,0.0,0.0,0.0,0.0,0.0,0.0,2.0342,2.0889,2.1553,2.1887,2.2012,2.2012,2.2012,0.0,0.0,0.0,0.0,0.0,0.0,0.0,0.0,0.0,0.0,0.0,0.0,0.0,2.0108,2.0972,2.1444,2.1547,2.1286,2.1115,2.1101,2.1569,2.1569,2.1467,2.1657,2.1554,2.1437,2.1467,2.1335,2.1262,2.1452,2.1335,2.1247,2.1393,2.154,0.0,0.0,0.0,0.0,2.2974,2.3047,2.3296,0.0,2.4305,0.0,2.509,2.5476,2.5813,0.0,2.5842,2.574,2.574,2.5915,2.631,2.6969,2.7768,2.8157,2.7874,2.802,2.8093,2.8093,2.83,2.8359,2.8373,2.8549,2.8637,2.8651,0.0,2.8886,2.8886,2.8886,2.8886,2.8964,2.9881,2.9649,2.9042,2.9881,2.9649,2.8886,0.0,0.0,0.0,0.0,0.0,0.0,0.0,0.0,0.0,1.4007,1.3422,0.0,0.0,0.0,0.0,0.0,0.0,0.0,0.0,0.0,0.0,0.0,0.0,0.0,0.0,0.0,0.0,0.0,0.0,0.0,0.0,0.0,0.0,0.0,0.0,0.0,0.0,0.0,0.0,0.0,0.0,0.0,0.0,0.0,0.0,0.0,0.0,0.0,0.0,0.0,1.9583,2.0659,2.0718,2.0794,2.0837,2.113,2.1042,2.0984,2.1598,2.1759,2.1759,2.1759,2.1759,2.1672,2.1291,2.1203,2.1203,2.1159,2.1072,2.113,2.1496,2.173,2.192,2.2096,0.0,2.3018,2.3471,2.353,2.3793,2.4496,2.4929,2.5163,2.5183,2.5725,2.6091,2.6149,2.6149,2.612,2.6076,2.612,2.6442,2.71,2.7203,2.751,2.799,2.8359,2.8505,2.8505,2.8769,2.8886,2.8886,2.8886,2.8886,2.8886,2.8886,2.8886,2.8886,2.8886,2.8886,2.8886,2.8886,2.8886,2.8886,2.8886,2.8886,2.8886,0.0,0.0,0.0,0.0,0.0,0.0,0.0,0.0,0.0,0.0,1.5864,1.4828,0.0,0.0,0.0,0.0,0.0,0.0,0.0,0.0,0.0,0.0,0.0,0.0,0.0,0.0,0.0,0.0,0.0,0.0,0.0,0.0,0.0,0.0,0.0,0.0,0.0,0.0,0.0,0.0,0.0,0.0,0.0,0.0,0.0,0.0,0.0,0.0,0.0,0.0,1.9234,2.0378,2.0911,2.113,2.113,2.1189,2.1364,2.1613,2.1993,2.2096,2.2096,2.2096,2.2096,2.195,2.135,2.1203,0.0,2.0867,2.0384,2.0194,2.0779,2.0501,2.053,2.1613,2.1642,2.192,2.3032,2.3193,2.353,0.0,0.0,0.0,0.0,0.0,0.0,0.0,2.6822,2.6705,2.6442,2.6676,2.7115,2.7684,2.8286,2.8608,2.8725,2.8783,2.8812,2.8812,2.8871,2.8886,2.8886,2.8886,2.8886,2.8886,2.8886,0.0,2.8886,2.8886,2.8886,2.8886,2.8886,2.8886,2.8886,2.8886,2.8886,2.8886,0.0,0.0,0.0,0.0,0.0,0.0,0.0,1.7227,1.7681,1.9416,1.8929,1.7852,1.6309,1.5137,1.4297,0.0,0.0,0.0,0.0,0.0,0.0,0.0,0.0,0.0,0.0,0.0,0.0,0.0,0.0,0.0,0.0,0.0,0.0,0.0,0.0,0.0,0.0,0.0,0.0,0.0,0.0,0.0,0.0,0.0,0.0,0.0,0.0,0.0,0.0,0.0,1.9277,2.0131,2.0911,2.132,2.1393,2.1057,2.1306,2.173,2.1891,2.2052,2.2213,2.2374,2.2301,2.2052,2.1569,0.0,0.0,2.0518,2.0091,1.9911,2.0164,0.0,0.0,2.0837,2.1379,2.1935,2.2535,0.0,0.0,0.0,0.0,0.0,0.0,0.0,0.0,2.6969,2.6983,2.6925,2.6764,2.7217,2.77,2.8107,2.8651,2.8886,2.8886,2.8886,2.8886,2.8886,2.8886,2.8886,2.8886,2.8886,2.8886,2.8886,2.8886,0.0,2.8886,2.8886,2.8886,2.8886,2.8886,2.8886,2.8886,2.8886,2.8886,2.8886,0.0,0.0,0.0,0.0,0.0,0.0,0.0,1.9062,1.9455,2.1483,2.1502,2.0566,1.8437,1.666,1.5254,0.0,0.0,0.0,0.0,0.0,0.0,0.0,0.0,0.0,0.0,0.0,0.0,0.0,0.0,0.0,0.0,0.0,0.0,0.0,0.0,0.0,0.0,0.0,0.0,0.0,0.0,0.0,0.0,0.0,0.0,0.0,0.0,0.0,0.0,0.0,1.8909,1.9432,2.0496,2.1072,2.1306,2.094,2.1233,2.1715,2.1789,2.2081,2.2403,2.2506,2.2462,2.2228,2.1628,2.1291,2.0867,1.9949,1.9506,1.9286,1.9433,0.0,1.9672,0.0,0.0,0.0,0.0,0.0,0.0,0.0,0.0,0.0,0.0,0.0,0.0,2.6969,2.6983,2.7027,2.7086,2.7642,2.802,2.8432,2.8739,2.8886,2.8886,2.8886,2.8886,2.8886,2.8886,2.8886,2.8886,2.8886,2.8886,2.8886,2.8886,0.0,0.0,2.8886,2.8886,2.8886,2.8886,2.8886,2.8886,2.8886,2.8886,2.8886,0.0,0.0,0.0,0.0,0.0,0.0,0.0,1.9492,2.0273,2.3184,2.2539,2.1582,2.0917,1.928,1.7291,0.0,0.0,0.0,0.0,0.0,0.0,0.0,0.0,0.0,0.0,0.0,0.0,0.0,0.0,0.0,0.0,0.0,0.0,0.0,0.0,0.0,0.0,0.0,0.0,0.0,0.0,0.0,0.0,0.0,0.0,0.0,0.0,0.0,0.0,0.0,0.0,1.7743,1.9074,1.9872,2.0472,2.1013,2.1423,2.1759,2.2052,2.2579,2.2901,2.2359,2.2623,2.2637,2.1145,2.0794,2.0325,1.8789,1.7984,1.7735,1.8321,1.7969,0.0,0.0,0.0,0.0,0.0,0.0,0.0,0.0,0.0,0.0,0.0,0.0,0.0,2.6969,2.6983,2.7115,2.7422,2.7759,2.802,2.8432,2.8739,2.8886,2.8886,2.8886,2.8886,2.8886,2.8886,2.8886,2.8886,2.8886,2.8886,2.8886,2.8886,0.0,0.0,2.8886,2.8886,2.8886,2.8886,2.8886,2.8886,2.8886,2.8886,2.8886,0.0,0.0,0.0,0.0,0.0,0.0,2.0118,1.9902,2.0469,2.373,2.3496,2.2773,2.207,2.1152,1.9121,1.5488,0.0,0.0,0.0,0.0,0.0,0.0,0.0,0.0,0.0,0.0,0.0,1.3385,0.0,0.0,0.0,0.0,0.0,0.0,0.0,0.0,0.0,0.0,0.0,0.0,0.0,0.0,0.0,0.0,0.0,0.0,0.0,0.0,1.574,1.6742,0.0,0.0,1.8116,1.8847,0.0,2.0369,2.113,2.173,2.1862,2.2345,2.2798,2.2754,2.2491,2.2037,2.1203,2.0413,1.9506,1.8262,1.7501,1.7062,1.7121,1.7399,0.0,0.0,0.0,0.0,0.0,0.0,0.0,0.0,0.0,0.0,0.0,0.0,2.6427,2.6954,2.6983,2.7217,2.773,2.7801,2.8183,2.8695,2.8827,2.8886,2.8886,2.8886,2.8886,2.8886,2.8886,2.8886,2.8886,2.8886,2.8886,2.8886,2.8886,0.0,0.0,2.8886,2.8886,2.8886,2.8886,2.8886,2.8886,2.8886,2.8886,2.8886,0.0,0.0,0.0,0.0,0.0,1.668,2.0469,2.0156,2.0566,2.3633,2.3906,2.3418,2.2441,2.1836,1.9961,1.6102,1.5293,0.0,0.0,0.0,0.0,0.0,0.0,0.0,0.0,0.0,1.3281,1.3665,1.3442,1.3773,0.0,0.0,0.0,0.0,0.0,0.0,0.0,0.0,0.0,0.0,0.0,0.0,0.0,0.0,0.0,0.0,0.0,0.0,0.0,0.0,0.0,0.0,0.0,0.0,0.0,0.0,2.0794,2.1467,2.1759,2.2228,2.2681,2.2901,2.233,2.1554,2.1042,1.9916,1.8686,1.7604,1.696,1.6506,1.6316,1.6872,1.7486,0.0,0.0,0.0,0.0,0.0,0.0,0.0,0.0,2.5213,0.0,2.6061,2.65,2.6954,2.6983,2.7276,2.7844,2.7874,2.8242,2.8871,2.8886,2.8886,2.8886,2.8886,2.8886,2.8886,2.8886,2.8886,2.8886,2.8886,2.8886,2.8886,2.8886,0.0,0.0,2.8886,2.8886,2.8886,2.8886,2.8886,2.8886,2.8886,2.8886,2.8886,0.0,0.0,0.0,0.0,0.0,0.0,2.0077,2.0195,2.0684,2.2934,2.358,2.3301,2.2031,2.1153,1.9531,1.6921,1.5888,0.0,0.0,0.0,0.0,0.0,0.0,0.0,0.0,0.0,1.3685,1.4094,1.4551,1.4551,1.4133,1.4972,1.5176,1.4785,0.0,0.0,0.0,0.0,0.0,0.0,0.0,0.0,1.5023,0.0,0.0,0.0,0.0,0.0,0.0,0.0,0.0,0.0,0.0,1.7091,1.7673,0.0,2.0416,2.094,2.192,2.2389,2.2623,2.2623,2.2154,2.1437,2.0472,1.9242,1.794,1.6697,1.614,1.5921,1.5921,1.617,1.6696,0.0,0.0,0.0,0.0,0.0,0.0,0.0,0.0,2.5315,2.5944,2.6603,2.6983,2.6983,2.6983,0.0,2.7844,2.7874,2.8242,2.8871,2.8886,2.8886,2.8886,2.8886,2.8886,2.8886,2.8886,2.8886,2.8886,2.8886,2.8886,2.8886,0.0,0.0,0.0,2.8886,2.8886,2.8886,2.8886,2.8886,2.8886,2.8886,2.8886,2.8886,0.0,0.0,0.0,0.0,0.0,0.0,0.0,1.8281,1.8848,2.0703,2.1309,2.1466,2.1075,2.0253,1.8887,1.6882,1.5888,0.0,0.0,0.0,0.0,0.0,0.0,0.0,0.0,0.0,1.427,1.5888,1.6024,1.6453,1.7174,1.7447,1.7038,1.6113,1.6113,0.0,0.0,0.0,0.0,0.0,0.0,1.5007,1.5769,0.0,0.0,0.0,0.0,0.0,0.0,0.0,0.0,0.0,0.0,0.0,0.0,1.8277,1.9395,2.0402,2.0764,2.1247,2.1598,2.1379,2.0676,1.9842,1.9081,1.8086,1.7123,1.6228,1.5804,1.5542,1.5542,1.6199,1.6991,1.7691,0.0,0.0,0.0,0.0,0.0,0.0,2.492,2.5549,0.0,0.0,2.6749,2.6969,2.6983,2.7276,2.7844,2.7874,2.8242,2.8871,2.8886,2.8886,2.8886,2.8886,2.8886,2.8886,2.8886,2.8886,2.8886,2.8886,2.8886,0.0,0.0,0.0,0.0,2.8886,2.8886,2.8886,2.8886,2.8886,2.8886,2.8886,2.8886,2.8886,0.0,0.0,0.0,0.0,0.0,0.0,0.0,1.72,1.7812,1.9043,1.9707,2.0175,2.0331,1.9414,1.8242,1.6824,1.5751,0.0,0.0,0.0,0.0,0.0,0.0,0.0,0.0,1.4219,1.5293,1.6941,1.7793,1.834,1.8617,1.928,1.8812,1.7408,1.7252,1.6785,0.0,0.0,0.0,0.0,1.4837,1.5457,1.6551,0.0,0.0,0.0,0.0,0.0,0.0,0.0,0.0,0.0,0.0,0.0,0.0,0.0,1.8247,1.938,1.993,2.0355,2.0647,2.0559,1.9711,1.8774,1.8233,1.7282,1.636,1.5833,1.5528,1.5425,1.5557,1.6287,1.7196,1.8043,1.8628,0.0,0.0,0.0,0.0,2.4335,0.0,0.0,0.0,2.65,2.6778,2.6969,2.6983,2.7217,2.7744,2.7815,2.8183,2.871,2.8827,2.8886,2.8886,2.8886,2.8886,2.8886,2.8886,2.8886,2.8886,2.8886,2.8886,0.0,0.0,0.0,0.0,2.8886,2.8886,2.8886,2.8886,2.8886,2.8886,2.8886,2.8886,2.89,0.0,0.0,0.0,0.0,0.0,0.0,0.0,1.6692,1.7344,1.7734,1.8496,1.9141,1.9512,1.8496,1.7408,1.659,0.0,0.0,0.0,0.0,0.0,0.0,0.0,0.0,1.4231,1.5508,1.6672,1.765,1.9686,2.0078,1.8968,2.0605,2.045,1.8773,1.8383,1.793,1.7285,0.0,0.0,0.0,1.5365,1.6027,0.0,0.0,0.0,0.0,0.0,0.0,0.0,0.0,0.0,0.0,0.0,0.0,0.0,0.0,0.0,0.0,0.0,1.9647,1.9725,1.9989,1.914,1.8145,1.7823,1.6813,0.0,1.5555,1.544,1.5528,1.5891,1.6506,1.7402,1.8584,1.9096,0.0,0.0,0.0,0.0,0.0,2.5447,0.0,2.65,2.6808,2.6983,2.6983,2.6983,2.713,2.7466,2.7773,2.802,2.8432,2.8739,2.8886,2.8886,2.8886,2.8886,2.8886,2.8886,2.8886,2.8886,2.8886,2.8886,0.0,0.0,0.0,0.0,2.8886,2.8886,2.8886,2.8886,2.8886,2.8886,2.8886,2.8886,2.8944,0.0,0.0,0.0,0.0,0.0,0.0,0.0,0.0,0.0,0.0,1.5996,1.625,1.6016,1.5723,1.5332,0.0,0.0,0.0,0.0,0.0,0.0,0.0,0.0,0.0,1.5615,1.6594,1.8003,1.9862,2.1036,2.1758,2.2109,2.2852,2.2266,2.0586,2.0489,1.9316,1.7363,1.6953,0.0,0.0,1.6741,1.7218,0.0,0.0,0.0,0.0,1.6472,1.5753,0.0,0.0,0.0,0.0,0.0,0.0,0.0,0.0,1.6184,1.6477,1.7018,0.0,1.8599,1.8423,1.7969,1.7472,0.0,1.6697,0.0,0.0,0.0,0.0,0.0,1.7194,1.8145,1.8701,0.0,2.0369,2.1437,0.0,0.0,2.487,2.5579,2.6237,2.6822,2.6939,2.6983,2.6983,2.6983,2.713,2.7466,2.7773,2.802,2.8432,2.8739,2.8886,2.8886,2.8886,2.8886,2.8886,2.8886,2.8886,2.8886,2.8886,2.8886,0.0,0.0,0.0,2.8886,2.8886,2.8886,2.8886,2.8886,2.8886,2.8886,2.8886,2.8886,2.8944,0.0,0.0,0.0,0.0,0.0,0.0,0.0,0.0,0.0,0.0,0.0,0.0,0.0,0.0,0.0,0.0,0.0,0.0,0.0,0.0,0.0,0.0,0.0,0.0,1.6672,1.791,1.9316,2.0879,2.2324,2.3086,2.3227,2.3789,2.3262,2.1736,2.0937,1.9629,1.793,1.7559,1.7363,1.7291,1.7363,0.0,0.0,0.0,0.0,0.0,1.6906,1.6123,0.0,1.5471,1.5413,1.5266,0.0,0.0,0.0,0.0,1.5804,1.595,1.6111,1.6887,1.7589,1.7413,1.7238,1.7106,1.7077,0.0,0.0,0.0,0.0,0.0,0.0,0.0,0.0,0.0,2.012,0.0,0.0,0.0,0.0,2.5213,2.5974,2.6603,0.0,2.6983,2.6983,2.6983,2.6983,2.7071,2.7247,2.7554,2.7876,2.8122,2.852,2.8754,2.8886,2.8886,2.8886,2.8886,2.8886,2.8886,2.8886,2.8886,2.8886,0.0,0.0,0.0,2.8886,2.8886,2.8886,2.8886,2.8886,2.8886,2.8886,2.8886,2.8988,2.9164,0.0,0.0,0.0,0.0,0.0,0.0,0.0,0.0,0.0,0.0,0.0,0.0,0.0,0.0,0.0,0.0,0.0,0.0,0.0,0.0,0.0,0.0,0.0,1.7129,1.7754,1.9434,2.0703,2.158,2.3691,2.4355,2.3717,2.4375,2.3965,2.2539,2.0781,1.9531,1.8637,1.7832,1.7695,1.7988,1.7617,0.0,0.0,0.0,0.0,0.0,0.0,0.0,0.0,1.5966,1.6032,1.5901,1.5794,0.0,0.0,0.0,0.0,0.0,1.5965,1.6448,1.6991,1.7035,1.7094,1.7211,1.7486,0.0,0.0,0.0,0.0,0.0,0.0,1.914,0.0,0.0,0.0,0.0,2.2608,0.0,0.0,2.5593,2.6383,0.0,2.7056,2.7013,2.6983,2.6983,2.6983,2.6983,2.6983,2.7305,2.7627,2.7859,2.8271,2.8578,2.8886,2.8886,2.8886,2.8886,2.8886,2.8886,2.8886,2.8886,2.8886,2.8886,0.0,0.0,2.8886,2.8886,2.8886,2.8886,2.8886,2.8886,2.89,2.8944,2.9134,2.9427,0.0,0.0,0.0,0.0,0.0,0.0,0.0,0.0,0.0,0.0,0.0,0.0,0.0,0.0,0.0,0.0,0.0,0.0,0.0,0.0,0.0,0.0,1.6953,1.7988,1.9492,2.123,2.2539,2.3398,2.5195,2.6016,2.5898,2.6035,2.5,2.3032,2.129,2.0018,1.9121,1.8281,1.7949,1.8008,1.7949,0.0,0.0,0.0,0.0,0.0,0.0,0.0,0.0,1.588,1.5697,1.5076,1.5057,0.0,0.0,0.0,0.0,0.0,1.6155,1.6769,1.7326,1.7604,1.7882,1.816,1.8496,0.0,0.0,0.0,0.0,0.0,0.0,2.0516,2.1291,0.0,0.0,2.2593,0.0,0.0,2.5022,2.5842,0.0,2.6793,2.7349,2.7159,2.6983,2.6983,2.6983,2.6983,2.6983,2.7305,2.7627,2.7859,2.8271,2.8578,2.8886,2.8886,2.8886,2.8886,2.8886,2.8886,2.8886,2.8886,2.8886,2.8886,0.0,2.8886,2.8886,2.8886,2.8886,2.8886,2.8886,2.8886,2.8915,2.9193,2.9339,2.9456,0.0,0.0,0.0,0.0,0.0,0.0,0.0,0.0,0.0,0.0,0.0,0.0,0.0,0.0,0.0,0.0,0.0,0.0,0.0,0.0,0.0,0.0,1.8184,1.9102,2.0566,2.209,2.3281,2.4121,2.541,2.6152,2.6387,2.5898,2.4832,2.3149,2.1602,2.0449,1.957,1.8676,1.8223,1.8008,0.0,0.0,0.0,0.0,0.0,0.0,0.0,0.0,0.0,0.0,1.5904,1.5245,1.5639,0.0,0.0,0.0,0.0,0.0,1.6551,1.7106,1.7794,1.8657,1.9111,1.9389,1.9535,0.0,0.0,0.0,0.0,0.0,0.0,0.0,2.1613,2.2154,0.0,2.3706,2.4525,2.5359,2.6047,0.0,0.0,2.7086,2.7203,2.7086,2.6983,2.6983,2.6983,2.6983,2.6983,2.713,2.7437,2.7859,2.802,2.8403,2.8886,2.8886,2.8886,2.8886,2.8886,2.8886,2.8886,2.8886,2.8886,2.8886,0.0,2.8886,2.8886,2.8886,2.8886,2.8886,2.8886,2.9003,2.9208,2.972,2.991,3.0049,0.0,0.0,0.0,0.0,0.0,0.0,0.0,0.0,0.0,0.0,0.0,0.0,0.0,0.0,0.0,0.0,0.0,0.0,0.0,0.0,1.5898,1.8344,0.0,2.0332,2.1912,2.3144,2.4238,2.5176,2.6055,2.6504,2.6523,2.5742,2.4695,2.3306,2.207,2.0996,2.0,1.9007,1.8422,1.8144,0.0,0.0,0.0,0.0,0.0,0.0,0.0,0.0,0.0,0.0,0.0,0.0,0.0,0.0,0.0,1.6052,1.6243,1.6652,1.6947,1.7604,1.8555,1.9696,0.0,0.0,0.0,0.0,0.0,0.0,0.0,0.0,0.0,2.1335,0.0,2.3164,2.3823,2.451,2.5403,2.631,2.6881,2.6881,2.7159,2.7261,2.7013,2.6983,2.6983,2.6983,2.6983,2.6983,2.6983,2.6983,2.7291,2.7859,2.7874,2.8256,2.8886,2.8886,2.8886,2.8886,2.8886,2.8886,2.8886,2.8886,2.8886,2.8886,2.8886,2.8886,2.8886,2.8886,2.8886,2.89,2.8973,2.9251,2.9661,3.0255,3.0475,3.0495,0.0,0.0,0.0,0.0,0.0,0.0,0.0,0.0,0.0,0.0,0.0,0.0,0.0,0.0,0.0,0.0,0.0,0.0,1.4016,1.4531,1.5762,1.7949,0.0,0.0,2.4141,2.5031,2.6172,2.7493,2.8281,2.8105,2.6953,2.6504,2.5391,2.3711,2.2812,2.1719,2.0468,1.9143,1.8578,1.852,1.813,0.0,0.0,0.0,0.0,0.0,0.0,0.0,0.0,0.0,0.0,0.0,0.0,0.0,1.5979,1.5921,1.6505,1.722,1.7235,1.8438,1.9784,2.0486,2.0442,0.0,2.1379,2.1628,0.0,2.1189,0.0,0.0,0.0,2.2988,2.3559,2.3954,2.4305,2.4774,2.5432,0.0,2.6544,2.6544,2.6822,2.7013,2.6998,2.6983,2.6983,2.6983,2.6983,2.6983,2.6983,2.6983,2.7291,2.7859,2.7874,2.8256,2.8886,2.8886,2.8886,2.8886,2.8886,2.8886,2.8886,2.8886,2.8886,2.8886,2.8886,2.8886,2.8886,2.8886,2.8886,2.8915,2.9222,2.972,3.0372,3.0416,3.0539,3.0788,0.0,0.0,0.0,0.0,0.0,0.0,0.0,0.0,0.0,0.0,0.0,0.0,0.0,0.0,0.0,0.0,0.0,0.0,1.4075,1.4757,1.625,1.8691,1.9668,2.1758,2.5109,2.584,2.6777,2.8047,2.8379,2.8008,2.7012,2.6582,2.5586,2.4141,2.3237,2.2187,2.0918,1.9826,1.9085,1.8598,1.8422,1.807,0.0,0.0,0.0,0.0,0.0,0.0,0.0,0.0,1.567,1.5287,1.5828,1.6274,1.6535,1.674,1.734,1.8072,1.8672,1.9433,2.0311,2.1364,2.154,0.0,0.0,2.2462,2.2681,2.1964,2.2242,0.0,0.0,0.0,2.3662,2.4803,2.4744,2.4935,2.5988,2.6354,2.6574,2.6778,2.691,2.6983,2.6983,2.6983,2.6983,2.6983,2.6983,2.6983,2.6983,2.6983,2.7203,2.7642,2.7847,2.8093,2.8608,2.8798,2.8886,2.8886,2.8886,2.8886,2.8886,2.8886,2.8886,2.8886,2.8886,2.8886,2.89,2.9105,2.9193,2.9251,2.9778,3.0211,3.046,3.0568,3.0715,3.0817,0.0,0.0,0.0,0.0,0.0,0.0,0.0,0.0,0.0,0.0,0.0,0.0,0.0,0.0,0.0,0.0,0.0,0.0,1.4289,1.5245,1.6797,1.8984,1.9883,2.1795,2.5011,2.6074,2.7207,2.8496,2.8223,2.7656,2.6797,2.623,2.5488,2.457,0.0,0.0,2.1541,0.0,0.0,1.8987,1.8715,1.8282,0.0,0.0,0.0,0.0,0.0,0.0,0.0,0.0,1.5189,1.4952,1.5802,1.6242,1.6521,1.715,1.794,1.876,1.9485,2.0223,2.1057,2.1964,0.0,0.0,2.2608,2.3047,2.3223,2.2476,2.2813,0.0,2.3691,0.0,0.0,0.0,2.5183,2.5374,2.6369,2.6588,2.6735,2.6969,2.6983,2.6983,2.6983,2.6983,2.6983,2.6983,2.6983,2.6983,2.6983,2.6983,2.7144,2.7466,2.7788,2.8034,2.8432,2.8739,2.8886,2.8886,2.8886,2.8886,2.8886,2.8886,2.8886,2.8886,2.8886,2.8944,2.9061,2.9281,2.95,2.9734,3.0255,3.0407,3.0525,3.0744,3.0817,3.0817,0.0,0.0,0.0,0.0,0.0,0.0,0.0,0.0,0.0,0.0,0.0,0.0,0.0,0.0,0.0,0.0,0.0,0.0,1.4793,1.6016,1.7272,1.8539,2.0255,2.2031,2.375,2.5898,2.7637,2.8906,2.8086,2.7226,2.6367,2.5536,0.0,0.0,0.0,0.0,0.0,0.0,0.0,1.9806,1.8948,1.8173,1.7387,0.0,0.0,0.0,0.0,0.0,0.0,0.0,1.4903,1.4773,1.5643,1.5701,1.5644,1.6928,1.8262,1.9338,1.9353,2.072,2.2198,0.0,0.0,0.0,2.3515,2.334,2.3018,2.2696,2.3676,2.4481,2.4159,2.4876,0.0,2.5193,2.5608,2.6135,2.6457,2.6793,2.6983,2.6983,2.6983,2.6983,2.6983,2.6983,2.6983,2.6983,2.6983,2.6983,2.6983,2.6983,2.7144,2.7466,2.7788,2.8034,2.8355,2.8739,2.8886,2.8886,2.8886,2.8886,2.8886,2.8886,2.8886,2.89,2.89,2.9076,2.9383,2.9383,2.9764,3.0431,3.0431,3.0554,3.0817,3.0817,3.0817,3.0817,0.0,0.0,0.0,0.0,0.0,0.0,0.0,0.0,0.0,0.0,0.0,0.0,0.0,0.0,0.0,0.0,0.0,0.0,1.4785,1.6289,1.7617,1.8559,1.967,2.1269,2.3345,2.5176,2.6894,2.8476,2.8516,2.7812,2.6387,2.6426,0.0,2.459,0.0,0.0,0.0,0.0,0.0,1.9462,1.9504,1.8688,1.7458,0.0,0.0,0.0,0.0,0.0,0.0,0.0,0.0,0.0,1.5792,1.6155,1.6727,1.7969,1.9272,2.0442,2.113,2.2067,0.0,2.312,0.0,0.0,0.0,2.3354,0.0,0.0,2.4496,2.5213,2.5125,0.0,0.0,2.6325,2.6193,2.6208,2.6764,2.6925,2.6983,2.6983,2.6983,2.6983,2.6983,2.6983,2.6983,2.6983,2.6983,2.6983,0.0,2.6983,2.7042,2.713,2.7671,2.7917,2.802,2.8622,2.8886,2.8886,2.8886,2.8886,2.8886,2.8886,2.9017,2.9237,2.9237,2.9412,2.9734,3.0049,3.0305,3.0685,3.0685,3.0744,3.0817,3.0817,3.0817,3.0861,0.0,0.0,0.0,0.0,0.0,0.0,0.0,0.0,1.2915,1.2915,1.2915,1.2915,0.0,0.0,0.0,1.2915,1.4069,1.4891,1.5019,1.666,1.793,1.8578,1.9629,2.1113,2.3169,2.4355,2.5644,2.7012,2.7617,2.7207,2.5879,0.0,0.0,2.4687,0.0,0.0,0.0,0.0,0.0,2.0542,2.0294,1.9658,1.8882,0.0,0.0,0.0,0.0,0.0,0.0,0.0,0.0,0.0,1.5578,1.6155,1.6991,1.8364,1.9711,2.094,2.192,2.2725,0.0,2.3545,2.3691,2.3764,2.3706,0.0,0.0,0.0,2.514,2.5725,2.5725,2.593,0.0,2.672,2.6574,2.6544,2.6939,2.6983,2.6983,2.6983,2.6983,2.6983,2.6983,2.6983,2.6983,2.6983,2.6983,0.0,0.0,2.6983,2.6983,2.6983,2.7613,2.7874,2.7874,2.8578,2.8886,2.8886,2.8886,2.8959,2.909,2.909,2.9193,2.9398,2.9647,2.9881,3.0086,3.0407,3.0656,3.0817,3.0817,3.0817,3.0817,3.0817,3.0905,3.1051,0.0,0.0,0.0,0.0,0.0,0.0,0.0,1.2915,1.2915,1.2915,1.2915,1.2915,0.0,0.0,0.0,1.2915,1.4109,1.498,1.5332,1.7031,1.8149,1.852,1.9824,2.131,2.2934,2.334,2.3984,2.4891,2.584,2.5898,0.0,0.0,2.5898,2.5067,0.0,2.498,0.0,0.0,0.0,2.2217,2.0994,2.0605,2.0601,1.8787,0.0,0.0,0.0,0.0,0.0,0.0,0.0,0.0,1.5262,1.5906,1.6771,1.8291,1.9711,2.0969,2.192,2.2901,0.0,2.3603,2.3837,0.0,2.4569,2.4423,2.4379,2.5002,0.0,2.6047,2.6018,2.6559,2.6896,2.6603,2.6793,2.6983,2.6983,2.6983,2.6983,2.6983,2.6983,2.6983,2.6983,2.6983,2.6983,2.6983,0.0,0.0,2.6983,2.6983,2.6998,2.7027,2.7627,2.7888,2.7917,2.8593,2.89,2.893,2.893,2.9105,2.9427,2.9383,2.9412,2.95,3.0129,3.0475,3.0504,3.07,3.0817,3.0817,3.0817,3.0817,3.0832,3.0861,3.1051,3.1315,0.0,0.0,0.0,0.0,0.0,0.0,1.2915,1.2915,1.2915,1.2915,1.2915,1.2915,1.2915,1.2915,0.0,1.2915,1.4355,1.5176,1.4941,1.6855,1.8047,1.8144,1.9375,2.0391,2.1153,2.1562,2.2207,2.3066,2.4961,2.5605,0.0,0.0,0.0,2.457,0.0,2.4687,0.0,0.0,2.1713,2.0936,1.9981,1.8884,1.7799,1.766,1.7015,0.0,0.0,0.0,0.0,0.0,0.0,0.0,1.5693,1.6243,1.702,1.8086,1.9681,2.1262,2.1993,2.3062,0.0,0.0,2.3837,2.4305,2.514,2.5271,2.5183,2.5081,2.5769,2.6325,2.6061,2.6559,2.6969,2.6896,2.6939,2.6983,2.6983,2.6983,2.6983,2.6983,2.6983,2.6983,2.6983,2.6983,2.6983,0.0,0.0,0.0,2.6983,2.6983,2.7115,2.7364,2.7744,2.799,2.8253,2.871,2.9017,0.0,2.9266,2.9442,2.9749,2.95,2.9661,3.0159,3.0554,3.0715,3.0729,3.0803,3.0817,3.0817,3.0817,3.0817,3.0861,3.111,3.1256,3.1388,0.0,0.0,0.0,0.0,0.0,0.0,0.0,0.0,1.3105,1.2935,1.2915,1.2915,1.2915,1.2915,0.0,0.0,1.4153,1.4961,1.54,1.666,1.7642,1.8247,1.8909,1.9512,1.9979,2.0371,2.0995,2.1853,2.3242,2.3984,0.0,0.0,0.0,2.416,0.0,2.4902,0.0,0.0,2.1845,2.1404,2.0264,1.9489,1.8972,1.913,1.8617,1.7752,1.7888,0.0,0.0,0.0,0.0,0.0,0.0,0.0,1.8016,1.8529,1.9834,2.1253,2.1994,0.0,0.0,2.3749,0.0,2.4525,2.5344,2.5652,2.5754,2.5754,2.6149,2.65,2.6486,2.6764,2.6983,2.6983,2.6983,2.6983,2.6983,2.6983,2.6983,2.6983,2.6983,2.6983,2.6983,2.6983,0.0,0.0,0.0,2.6983,2.6983,2.6983,2.7071,2.7232,2.77,2.7961,2.8122,2.8666,2.9047,2.9383,2.9383,2.9632,3.0086,2.9925,3.0115,3.0583,3.0759,3.0817,3.0817,3.0817,3.0817,3.0846,3.0993,3.1051,3.1095,3.1417,3.1637,3.1827,0.0,0.0,0.0,0.0,0.0,0.0,0.0,0.0,0.0,1.2954,1.2915,1.2935,1.3013,1.2988,1.3164,0.0,0.0,0.0,1.5909,1.6504,1.7311,1.8442,1.85,1.8695,1.916,1.9512,2.0079,2.0976,2.1445,0.0,0.0,0.0,0.0,2.3848,0.0,0.0,0.0,0.0,0.0,2.2234,2.08,2.0534,2.0985,2.0907,2.0235,1.9304,1.9316,1.8589,1.7665,1.8003,0.0,0.0,0.0,0.0,1.8902,1.8936,1.9803,2.0962,2.1713,0.0,2.3018,2.4013,2.4408,0.0,2.5388,2.5783,2.6105,2.6442,2.6544,2.6676,2.6939,2.6983,2.6983,2.6983,2.6983,2.6983,2.6983,2.6983,2.6983,2.6983,2.6983,2.6983,2.6983,0.0,0.0,0.0,0.0,2.6983,2.6983,2.6983,2.7042,2.7159,2.7671,2.7932,2.8034,2.8681,2.9134,2.9456,2.9573,2.991,3.0437,3.0437,3.0568,3.0817,3.0817,3.0788,3.0744,3.0861,3.0876,3.0861,3.1242,3.1402,3.1432,3.1754,3.2046,3.2295,0.0,0.0,0.0,0.0,0.0,0.0,0.0,0.0,0.0,0.0,1.2915,1.3052,1.3379,1.3418,1.3594,1.3977,1.4757,1.5312,1.5488,0.0,0.0,1.8066,1.8086,1.8247,1.8676,1.8734,1.9182,2.006,2.0527,0.0,0.0,0.0,0.0,0.0,0.0,0.0,0.0,0.0,0.0,0.0,0.0,0.0,0.0,0.0,0.0,1.8924,1.919,1.88,1.8141,1.8439,1.8089,0.0,0.0,0.0,1.8549,1.837,1.902,1.9946,0.0,0.0,2.3706,0.0,2.4744,2.4744,0.0,0.0,2.6105,0.0,2.672,2.6939,2.6983,2.6983,2.6983,2.6983,2.6983,2.6983,2.6983,2.6983,2.6983,2.6983,2.6983,2.6983,0.0,0.0,0.0,0.0,2.6983,2.6983,2.6983,2.6983,2.7247,2.7728,2.783,2.8212,2.8754,2.9134,2.9471,2.9807,3.0364,3.0671,3.0759,3.0759,3.0788,3.0817,3.0817,3.0671,3.0451,3.1007,3.1081,3.089,3.149,3.1739,3.1768,3.2105,3.2251,3.2324,0.0,0.0,0.0,0.0,0.0,0.0,0.0,0.0,0.0,0.0,0.0,1.3529,1.3516,1.3685,1.3899,1.4094,1.4707,1.5254,1.5772,1.6562,1.7109,1.7252,1.7252,1.75,1.793,1.8164,1.8711,1.9551,2.0273,0.0,0.0,2.3574,2.3965,0.0,0.0,0.0,0.0,0.0,0.0,0.0,0.0,0.0,0.0,0.0,0.0,0.0,0.0,2.1634,2.0805,2.0009,1.9639,1.9485,1.8913,0.0,0.0,0.0,1.8572,0.0,2.0352,2.2125,2.3735,0.0,2.4818,2.5183,2.5461,0.0,2.6325,2.6471,2.6764,2.6983,2.6983,2.6983,2.6983,2.6983,2.6983,2.6983,2.6983,2.6983,2.6983,2.6983,2.6983,0.0,0.0,0.0,0.0,0.0,2.6983,2.6983,2.6983,2.6983,2.7203,2.7671,2.7861,2.8256,2.8886,2.9208,2.9632,3.0225,3.0598,3.0817,3.0817,3.0642,3.0656,3.0817,3.0627,3.0583,3.0627,3.0729,3.0905,3.1124,3.1417,3.1754,3.209,3.2237,3.2398,3.2573,0.0,0.0,0.0,0.0,0.0,0.0,0.0,0.0,0.0,0.0,0.0,1.4192,1.3977,0.0,0.0,0.0,1.498,1.542,1.6046,1.6484,1.6707,1.6707,1.6707,1.6863,1.7207,1.7637,1.8223,1.8965,0.0,0.0,2.2539,2.3281,2.3809,0.0,2.4238,0.0,0.0,0.0,0.0,0.0,0.0,0.0,0.0,0.0,0.0,0.0,0.0,0.0,2.3538,2.2038,2.14,2.0998,1.9823,1.9225,0.0,0.0,0.0,0.0,0.0,0.0,2.3252,0.0,0.0,0.0,0.0,0.0,2.6252,0.0,2.6574,2.6866,2.6866,2.6939,2.6983,2.6983,2.6983,2.6983,2.6983,2.6983,2.6983,2.6983,0.0,0.0,0.0,0.0,0.0,0.0,2.6983,2.6983,2.6983,2.6983,2.7144,2.7466,2.7861,2.8344,2.8886,2.9383,2.991,3.0466,3.0715,3.0773,3.07,3.0539,3.0554,3.0685,3.0451,3.0481,3.07,3.0627,3.0832,3.1212,3.1461,3.1856,3.2295,3.2383,3.2559,3.2778,0.0,0.0,0.0,0.0,0.0,0.0,0.0,0.0,0.0,0.0,0.0,1.4883,1.5273,1.5733,1.6133,1.6531,1.623,1.6046,1.6085,1.6484,1.6707,1.6707,1.6707,0.0,1.6746,1.7187,1.7637,0.0,0.0,0.0,2.2519,2.2988,2.3893,2.5067,2.5449,2.4584,2.2942,0.0,0.0,0.0,0.0,0.0,0.0,0.0,0.0,0.0,0.0,0.0,2.5421,2.4524,2.2859,2.1016,2.014,1.9021,0.0,0.0,0.0,0.0,0.0,0.0,0.0,0.0,0.0,0.0,0.0,0.0,0.0,2.5579,2.6091,2.653,2.653,2.6778,2.6983,2.6983,2.6983,2.6983,2.6983,2.6983,2.6983,0.0,0.0,0.0,0.0,0.0,0.0,0.0,2.6983,2.6983,2.6983,2.6983,2.7144,2.7466,2.8081,2.8564,2.8886,2.9822,3.0466,3.0803,3.0817,3.0671,3.0475,3.0671,3.0642,3.046,3.0446,3.0446,3.0422,3.1007,3.1095,3.0934,3.1871,3.2251,3.2324,3.2632,3.2749,3.2778,0.0,0.0,0.0,0.0,0.0,0.0,0.0,0.0,0.0,0.0,0.0,0.0,0.0,1.623,1.6445,1.6309,1.6183,1.6085,1.6085,1.5957,1.5879,1.5879,1.5879,1.6016,1.6289,1.6496,0.0,0.0,0.0,1.9727,2.2109,2.2539,2.3281,2.4277,2.5,2.4772,2.3897,2.4755,0.0,0.0,0.0,0.0,0.0,0.0,0.0,0.0,0.0,0.0,0.0,2.322,2.2439,2.1798,2.0457,0.0,0.0,0.0,0.0,0.0,0.0,0.0,0.0,0.0,0.0,0.0,0.0,2.4847,2.5535,2.5535,2.6208,2.6822,2.6822,2.691,2.6983,2.6983,2.6983,2.6983,2.6983,2.6983,0.0,0.0,0.0,0.0,0.0,0.0,0.0,0.0,0.0,2.6983,2.6983,2.6983,2.7144,2.7466,2.8095,2.8886,2.9822,3.0378,3.0715,3.0817,3.0817,3.0759,3.0656,3.0554,3.0568,3.0656,3.0656,3.0773,3.0964,3.0993,3.13,3.1783,3.1915,3.2222,3.2588,3.2485,3.2588,3.2778,0.0,0.0,0.0,0.0,0.0,0.0,0.0,0.0,0.0,0.0,0.0,0.0,0.0,0.0,1.7363,1.6809,1.6613,1.6418,1.6105,1.5831,1.5566,1.541,1.541,1.5547,1.587,1.6026,0.0,0.0,0.0,0.0,0.0,2.1816,2.2539,2.3398,2.4258,2.4473,0.0,0.0,0.0,2.5381,0.0,0.0,2.6672,0.0,0.0,0.0,0.0,0.0,0.0,0.0,0.0,0.0,0.0,0.0,0.0,0.0,0.0,0.0,0.0,0.0,0.0,0.0,0.0,0.0,0.0,0.0,2.5213,2.5213,2.5988,2.6661,2.6661,2.6852,2.6983,2.6983,2.7086,2.7115,2.7013,0.0,0.0,0.0,0.0,0.0,0.0,0.0,0.0,0.0,0.0,0.0,2.6983,2.6983,2.7291,2.7934,2.8476,2.9325,3.0495,3.0715,3.0817,3.0817,3.0817,3.0773,3.0656,3.0554,3.0627,3.0832,3.0934,3.111,3.13,3.1198,3.1534,3.2105,3.2002,3.2222,3.2602,3.2485,3.2588,3.2778,0.0,0.0,0.0,0.0,0.0,0.0,0.0,0.0,0.0,0.0,0.0,0.0,0.0,0.0,0.0,1.8105,1.7637,1.7063,1.6183,1.6105,1.5909,1.5449,1.541,1.541,1.541,0.0,0.0,0.0,0.0,0.0,0.0,0.0,2.16,0.0,2.3359,2.375,2.3828,0.0,2.4936,2.4641,0.0,2.485,2.5104,0.0,0.0,0.0,2.7991,2.9469,0.0,3.0975,0.0,0.0,0.0,0.0,0.0,0.0,0.0,0.0,0.0,0.0,0.0,0.0,0.0,0.0,2.3749,0.0,2.4554,2.4583,2.5344,2.6018,2.6018,2.6559,2.6983,2.6983,2.7261,2.7378,2.7056,0.0,0.0,0.0,0.0,0.0,0.0,0.0,0.0,0.0,2.6983,2.6983,2.6983,2.6998,2.7583,2.8856,2.9208,2.9837,3.0817,3.0817,3.0817,3.0817,3.0817,3.0671,3.0475,3.07,3.0846,3.0876,3.1198,3.1344,3.1359,3.1681,3.1812,3.1856,3.2178,3.2295,3.2339,3.2646,3.2778,3.2778,0.0,0.0,0.0,0.0,0.0,1.7168,1.7598,1.7754,1.8203,0.0,0.0,0.0,0.0,0.0,0.0,1.8481,1.8086,1.7598,1.7083,1.6457,1.6046,1.5909,1.5586,1.541,1.541,0.0,0.0,0.0,0.0,0.0,0.0,0.0,0.0,0.0,2.2168,2.2754,2.3393,2.5254,0.0,0.0,2.6973,2.7454,0.0,0.0,0.0,0.0,0.0,2.6171,2.6648,0.0,2.5945,2.5059,0.0,0.0,0.0,0.0,0.0,0.0,1.6433,0.0,0.0,0.0,0.0,0.0,0.0,0.0,0.0,2.4899,2.5505,2.6018,2.6018,2.6559,2.691,2.6676,2.7115,2.7525,0.0,0.0,0.0,0.0,0.0,0.0,0.0,0.0,0.0,0.0,2.6983,2.6983,2.6983,2.7217,2.7817,2.8856,2.9208,2.9837,3.0817,3.0817,3.0817,3.0817,3.0817,3.0905,3.1051,3.1139,3.13,3.1549,3.1871,3.2017,3.2017,3.212,3.228,3.2515,3.2602,3.2632,3.2646,3.2734,3.2778,3.2778,0.0,0.0,1.6809,1.6672,1.7187,1.791,1.8691,1.8965,1.9473,0.0,0.0,0.0,0.0,0.0,0.0,0.0,1.9043,1.8477,1.7695,1.7168,1.6672,1.6124,1.585,1.5586,1.5381,1.541,0.0,0.0,0.0,0.0,0.0,0.0,0.0,0.0,0.0,0.0,0.0,0.0,0.0,0.0,2.6767,0.0,0.0,2.5833,2.6761,0.0,0.0,0.0,2.8142,2.7995,2.6968,0.0,0.0,0.0,0.0,0.0,0.0,0.0,0.0,0.0,0.0,0.0,0.0,0.0,0.0,0.0,0.0,0.0,2.5257,2.5652,2.5783,2.612,2.6413,2.6486,2.6939,0.0,0.0,0.0,0.0,0.0,0.0,0.0,0.0,2.7671,2.7598,2.7408,2.7261,2.713,2.6998,2.7422,2.8052,2.8871,2.9339,2.9983,3.0817,3.0817,3.0817,3.0817,3.0817,3.0993,3.1315,3.1315,3.1563,3.2017,3.2207,3.2368,3.2471,3.2339,3.2471,3.2778,3.2778,3.2778,3.2778,3.2778,3.2778,3.2778,0.0,0.0,1.6555,1.7305,1.793,1.8672,1.9805,2.043,2.1114,0.0,0.0,0.0,0.0,0.0,0.0,0.0,2.0352,1.9609,1.8379,1.8164,1.7559,1.6437,1.6202,1.5909,1.5488,1.543,0.0,0.0,0.0,0.0,0.0,0.0,0.0,0.0,2.0605,2.1973,0.0,0.0,0.0,2.539,2.5587,2.5731,0.0,0.0,2.6664,3.0273,2.9364,3.049,3.2316,3.2253,2.9513,0.0,0.0,0.0,0.0,0.0,1.856,0.0,0.0,0.0,0.0,0.0,0.0,0.0,0.0,0.0,0.0,0.0,2.4583,2.4891,2.5242,2.5344,2.5579,2.6193,0.0,0.0,0.0,0.0,0.0,0.0,0.0,0.0,2.7917,2.7888,2.7874,2.7874,2.7656,2.7349,2.7056,2.7613,2.8227,2.8812,2.95,3.0159,3.0759,3.0803,3.0817,3.0817,3.0861,3.1051,3.1373,3.1402,3.1754,3.2339,3.2295,3.2456,3.269,3.2368,3.2441,3.2763,3.2734,3.2734,3.2778,3.2778,3.2778,3.2778,1.6144,1.6946,1.7676,1.7852,1.9102,2.0194,2.0449,2.1406,2.2324,0.0,0.0,0.0,0.0,0.0,0.0,0.0,0.0,2.1094,2.0175,1.9082,1.8364,1.811,1.6797,1.6046,1.5968,1.5586,0.0,0.0,0.0,0.0,0.0,0.0,0.0,0.0,0.0,0.0,0.0,0.0,0.0,2.6774,2.8437,0.0,2.5624,2.6509,2.6858,2.7001,2.7059,2.7387,2.7967,2.9328,2.7637,2.508,0.0,0.0,0.0,2.0229,0.0,0.0,0.0,0.0,0.0,0.0,0.0,0.0,0.0,2.1554,0.0,0.0,2.3047,2.3281,2.3866,2.4188,2.4496,0.0,0.0,0.0,0.0,0.0,0.0,0.0,0.0,0.0,2.8286,2.8034,2.7874,2.7874,2.7656,2.7452,2.7378,2.7744,2.8049,2.8505,2.9398,3.0056,3.0437,3.07,3.0817,3.0832,3.1095,3.1388,3.171,3.1973,3.231,3.2661,3.2398,3.2324,3.2354,3.2032,3.2237,3.2749,3.2485,3.2544,3.2778,3.2778,3.2778,3.2778,1.6445,1.7266,1.8281,1.9141,2.0038,2.0977,2.2012,2.2539,2.3003,0.0,0.0,0.0,0.0,0.0,0.0,0.0,0.0,0.0,2.1602,2.0937,2.0138,1.928,1.8027,1.7148,1.677,1.6289,1.6141,0.0,0.0,0.0,0.0,0.0,0.0,0.0,0.0,0.0,0.0,0.0,2.5197,2.6787,2.7142,0.0,2.5722,2.6178,2.6664,2.7153,2.7488,2.7611,2.766,2.7573,2.6442,0.0,0.0,2.4147,2.2184,0.0,2.0033,1.9096,0.0,0.0,0.0,1.8174,0.0,0.0,0.0,0.0,2.1628,2.2271,2.2403,2.255,2.3018,0.0,0.0,0.0,0.0,0.0,0.0,0.0,0.0,0.0,0.0,0.0,2.8093,2.7976,2.7874,2.7874,2.7949,2.7817,2.7495,2.7934,2.8271,2.8355,2.9208,2.9851,3.0431,3.051,3.0671,3.0832,3.1154,3.1476,3.1812,3.2134,3.2368,3.2515,3.2354,3.2193,3.2017,3.1695,3.1944,3.2515,3.2354,3.2383,3.2544,3.2705,3.2778,3.2778,1.6882,1.7447,1.8555,2.0312,2.0742,2.1505,2.3379,2.3574,2.3828,0.0,0.0,0.0,0.0,0.0,0.0,0.0,0.0,0.0,0.0,2.2969,2.2324,2.1094,1.9689,1.873,1.8144,1.7383,1.6863,1.6707,0.0,0.0,0.0,0.0,0.0,0.0,0.0,0.0,0.0,0.0,0.0,2.656,0.0,2.5612,2.6496,2.5741,2.6601,2.8185,2.8687,2.8908,2.8719,2.7529,2.6553,2.5696,2.5375,2.4266,0.0,0.0,0.0,0.0,0.0,0.0,0.0,0.0,0.0,1.9067,0.0,0.0,0.0,0.0,0.0,0.0,0.0,0.0,0.0,0.0,0.0,0.0,0.0,0.0,0.0,0.0,0.0,0.0,0.0,2.8052,2.8122,2.8139,2.8432,2.8315,2.7598,2.8125,2.8326,2.8344,2.9017,2.9661,3.0328,3.0401,3.0539,3.092,3.1256,3.1578,3.19,3.2222,3.2339,3.228,3.2222,3.2002,3.1681,3.1417,3.1622,3.2105,3.2163,3.2266,3.2412,3.2676,3.2778,3.2778,1.7539,1.7695,1.8555,2.0312,2.1251,2.207,2.3129,2.4206,0.0,0.0,0.0,0.0,0.0,0.0,0.0,0.0,0.0,0.0,2.5401,0.0,0.0,2.5011,2.2031,2.0488,2.0761,1.8831,1.7467,1.6707,0.0,0.0,0.0,0.0,0.0,0.0,2.3466,0.0,0.0,0.0,2.7647,0.0,2.7052,2.7554,0.0,2.7191,2.7144,2.7702,2.8794,2.9186,2.9361,0.0,2.9201,2.6921,0.0,2.6565,2.4847,2.3047,0.0,0.0,0.0,0.0,0.0,0.0,1.9008,0.0,0.0,0.0,1.9169,1.9535,0.0,0.0,0.0,0.0,0.0,0.0,0.0,0.0,0.0,0.0,0.0,0.0,0.0,0.0,0.0,2.8373,2.909,2.8798,2.909,2.8871,2.7949,2.8165,2.8224,2.7947,2.89,2.9544,2.991,3.0284,3.0656,3.1256,3.1593,3.1915,3.2237,3.2573,3.2559,3.2266,3.1973,3.1666,3.1359,3.1329,3.1359,3.1446,3.1739,3.2207,3.2719,3.2763,3.2778,3.2778,1.7949,1.8477,1.959,2.1074,2.1836,2.2695,2.4108,2.5204,0.0,0.0,0.0,0.0,0.0,0.0,0.0,0.0,0.0,2.8437,2.7637,0.0,0.0,2.6133,2.375,2.2285,2.1951,2.0605,1.9336,1.8223,1.8633,0.0,0.0,0.0,0.0,0.0,2.3253,0.0,2.5684,0.0,2.728,0.0,0.0,0.0,0.0,2.7787,2.6632,2.6983,2.768,2.7913,2.8072,0.0,2.8228,0.0,0.0,0.0,0.0,0.0,0.0,0.0,0.0,0.0,0.0,0.0,0.0,0.0,1.974,0.0,1.9286,0.0,0.0,0.0,0.0,0.0,0.0,0.0,2.0252,0.0,0.0,0.0,0.0,0.0,0.0,0.0,0.0,0.0,0.0,0.0,2.8886,2.8959,2.7932,2.8432,2.8564,2.8165,2.8798,2.9339,2.9851,2.9807,3.029,3.1315,3.1446,3.1783,3.2295,3.2617,3.2485,3.2002,3.2061,3.1681,3.1037,3.1227,3.1315,3.1329,3.1461,3.1915,3.2485,3.2485,3.2719,3.3041,1.873,0.0,2.0332,2.166,2.2227,2.3086,2.4851,2.582,2.6484,0.0,0.0,0.0,2.9082,2.8965,2.9258,0.0,3.0409,3.0156,2.9824,0.0,2.8789,2.834,2.6094,2.4609,2.4102,2.275,2.1348,1.9824,0.0,0.0,0.0,0.0,0.0,0.0,0.0,2.452,2.6729,0.0,2.7933,3.0513,2.8408,2.9201,3.1367,2.7825,2.673,2.7173,2.7503,2.7563,2.7533,2.7803,2.7718,0.0,2.7203,0.0,0.0,0.0,0.0,0.0,2.3398,0.0,0.0,0.0,0.0,0.0,0.0,0.0,0.0,0.0,0.0,0.0,0.0,0.0,0.0,0.0,0.0,0.0,0.0,0.0,0.0,0.0,0.0,0.0,0.0,0.0,0.0,0.0,0.0,2.8856,2.7917,2.8476,2.8666,2.8447,2.8739,2.9164,2.972,2.9588,3.0071,3.1183,3.1359,3.1739,3.2295,3.2617,3.2412,3.1812,3.2046,3.1651,3.0846,3.1183,3.1315,3.1315,3.1402,3.1739,3.2163,3.2251,3.2529,3.288,2.0117,1.9883,2.0332,2.166,2.2227,2.3086,2.4851,2.582,2.668,2.7571,0.0,2.9082,3.1191,3.0644,3.082,3.2539,3.2324,3.209,3.2131,3.1269,3.1523,3.3125,2.957,2.7715,2.8105,2.5625,2.3237,2.1132,0.0,0.0,0.0,0.0,0.0,0.0,0.0,2.6723,2.9558,3.0915,3.0996,3.0276,3.1026,2.947,2.682,0.0,2.8246,2.8773,2.9052,0.0,0.0,2.9771,2.8967,0.0,0.0,0.0,0.0,0.0,0.0,0.0,0.0,0.0,0.0,2.3457,0.0,0.0,0.0,0.0,2.0135,0.0,0.0,0.0,0.0,0.0,0.0,0.0,0.0,0.0,0.0,0.0,0.0,0.0,0.0,0.0,0.0,0.0,0.0,0.0,0.0,0.0,2.7903,2.8195,2.8447,2.8432,2.8739,2.9047,2.9383,2.969,3.0188,3.0846,3.1476,3.1959,3.2295,3.2617,3.2412,3.1798,3.1812,3.1432,3.0846,3.1183,3.1315,3.1344,3.1666,3.1798,3.1856,3.2163,3.2105,3.1929,0.0,0.0,2.0976,2.1758,2.2461,2.3613,2.5625,2.6426,2.7207,2.834,2.9375,3.0605,3.2187,3.2344,3.2793,3.3965,3.3672,3.3501,3.3501,3.2891,3.2695,3.2988,3.0391,2.873,2.8301,2.6328,2.4192,0.0,0.0,0.0,0.0,0.0,0.0,0.0,0.0,2.5935,0.0,0.0,0.0,0.0,0.0,3.0794,2.8551,0.0,0.0,2.9392,3.0662,3.1237,0.0,3.1845,3.0956,2.9694,2.9462,2.8505,2.7349,2.6822,2.6281,0.0,0.0,0.0,2.5549,2.5008,0.0,0.0,0.0,0.0,0.0,0.0,0.0,0.0,0.0,0.0,0.0,0.0,0.0,0.0,0.0,0.0,0.0,0.0,0.0,0.0,0.0,0.0,0.0,0.0,0.0,0.0,0.0,2.8447,2.8739,2.8739,2.9047,2.9266,2.9383,2.9486,2.9968,3.0832,3.1051,3.1549,3.228,3.2398,3.2207,3.1812,3.2017,3.1622,3.0861,3.1402,3.1505,3.1329,3.1432,3.1476,3.152,3.1841,3.2032,3.2207,2.1212,2.1387,2.1777,2.2051,2.3066,2.4453,2.6328,2.7226,2.8086,2.9219,3.0664,3.1811,3.2396,3.2562,3.3039,3.4032,3.3593,3.3796,3.4961,3.416,3.3867,3.4375,3.2031,3.0527,3.0117,2.8144,0.0,0.0,0.0,2.2949,0.0,0.0,0.0,0.0,0.0,0.0,2.641,0.0,2.7987,0.0,0.0,3.0042,0.0,0.0,3.0359,2.9761,0.0,3.1241,3.0917,3.1048,3.0516,2.9774,2.9557,2.9196,2.8597,2.76,2.7524,2.7545,2.6997,2.6837,0.0,2.6179,2.5944,0.0,2.4554,0.0,0.0,0.0,0.0,0.0,0.0,0.0,0.0,0.0,0.0,0.0,0.0,0.0,0.0,0.0,0.0,0.0,0.0,0.0,0.0,0.0,0.0,0.0,0.0,0.0,2.871,2.9047,2.9149,2.9266,2.9383,2.9486,2.9807,3.032,3.0773,3.1329,3.1944,3.2178,3.2105,3.1812,3.2017,3.1695,3.1037,3.1446,3.1563,3.149,3.149,3.1417,3.1329,3.1549,3.1827,3.2149,2.2227,2.2324,2.2617,2.2656,2.4043,2.5566,2.6875,2.8091,2.9167,3.0062,3.1578,3.2371,3.1807,3.1458,3.1797,3.3015,3.2459,3.3348,3.6454,3.5078,0.0,0.0,3.4414,3.3008,3.3379,0.0,0.0,0.0,0.0,0.0,0.0,0.0,0.0,0.0,2.4821,0.0,2.9186,2.8365,2.8096,2.8142,2.7094,2.7655,2.9201,2.9736,3.0025,3.0089,3.0425,2.94,2.7955,2.8116,2.8205,2.8115,2.8039,2.9062,2.9927,2.8386,2.8834,2.9456,2.794,2.7056,2.6661,2.6925,0.0,0.0,0.0,0.0,2.4642,0.0,0.0,0.0,0.0,0.0,0.0,0.0,0.0,0.0,0.0,0.0,0.0,0.0,0.0,0.0,0.0,0.0,0.0,0.0,0.0,0.0,0.0,0.0,2.8432,2.9325,2.9061,2.9061,2.9354,2.969,2.9705,2.9398,3.0685,3.1315,3.1359,3.1988,3.212,3.1827,3.1827,3.1637,3.1329,3.1344,3.1549,3.1827,3.1827,3.1607,3.1315,3.13,3.1476,3.171,2.3359,2.3633,2.4141,2.4738,2.5547,2.6484,2.7773,2.7895,2.8383,2.9911,3.0095,3.0236,3.0693,3.2169,3.3266,3.3596,3.4388,0.0,0.0,0.0,0.0,3.6309,3.4355,3.3164,3.2969,3.0742,2.8941,2.75,0.0,0.0,2.3945,0.0,0.0,0.0,0.0,0.0,2.6884,2.7248,2.7374,2.7383,2.8162,2.9127,0.0,0.0,3.3165,3.2396,3.2423,3.3095,3.3787,3.2601,3.2076,3.1712,3.0454,2.9395,2.8462,2.8025,2.8354,2.8655,2.7966,2.7891,2.7788,2.7144,2.7159,2.7188,0.0,0.0,0.0,0.0,0.0,0.0,0.0,0.0,0.0,0.0,0.0,0.0,0.0,0.0,0.0,0.0,0.0,0.0,0.0,0.0,0.0,0.0,0.0,0.0,0.0,0.0,0.0,2.9017,2.9164,2.9178,2.9017,2.9573,2.9705,2.9398,3.0685,3.1432,3.1695,3.2105,3.2237,3.2163,3.2163,3.1973,3.1695,3.1929,3.209,3.2163,3.2163,3.1812,3.1285,3.1037,3.1007,3.1095,2.4394,2.4687,2.5332,2.6387,2.7402,2.8145,2.8294,2.8729,2.9328,3.0154,3.0336,0.0,2.9887,3.16,3.2717,3.2539,3.3848,0.0,3.6201,0.0,0.0,3.6543,3.5098,3.4258,3.4199,3.2266,0.0,2.9082,0.0,0.0,2.4707,0.0,0.0,0.0,0.0,2.7098,0.0,2.7156,2.7439,2.7913,2.8114,0.0,0.0,3.2662,3.3322,3.3426,3.3351,3.4087,3.4954,3.4053,3.3597,3.3218,3.1561,3.0751,3.0124,2.8578,2.8743,2.926,2.8188,2.8107,2.8242,2.7408,2.7583,2.7698,2.7086,2.6793,2.6691,0.0,2.5944,0.0,0.0,0.0,0.0,0.0,0.0,0.0,0.0,0.0,0.0,0.0,0.0,0.0,0.0,0.0,0.0,0.0,0.0,0.0,0.0,0.0,0.0,2.909,2.9281,2.9281,2.9105,2.9881,2.9983,2.9383,3.0554,3.1271,3.1593,3.1929,3.2149,3.228,3.228,3.2178,3.2017,3.2207,3.2368,3.2485,3.2339,3.1973,3.149,3.1154,3.0949,3.0846,2.5391,2.5644,2.6328,2.7728,2.9108,2.9659,2.8655,2.987,0.0,3.0306,0.0,3.0673,2.901,3.0233,3.102,3.0715,3.2203,3.4109,3.6178,3.5772,3.5918,3.707,3.6016,3.5566,3.5937,3.4336,3.2734,0.0,0.0,0.0,0.0,0.0,0.0,0.0,0.0,0.0,0.0,2.7736,2.7925,2.8831,2.783,2.9425,3.2244,3.1703,3.2559,3.4053,3.4383,3.4273,3.396,3.3734,3.3809,3.3751,3.2081,3.2538,3.3079,3.0007,3.0067,3.0732,2.8837,2.8517,2.8515,2.776,2.7773,2.7859,2.7671,2.7598,2.7686,2.7964,2.7305,2.6954,0.0,0.0,0.0,0.0,0.0,0.0,0.0,0.0,0.0,0.0,0.0,0.0,0.0,0.0,0.0,0.0,0.0,0.0,0.0,0.0,0.0,2.9164,2.9266,2.9339,2.9383,0.0,3.0334,2.9515,3.0437,3.1051,3.1388,3.171,3.2046,3.2354,3.2354,3.2354,3.2354,3.2354,3.2515,3.2749,3.2456,3.2149,3.1827,3.1549,3.1227,3.0949,2.6621,2.6738,2.7305,2.9,2.9126,2.9095,2.9189,2.9605,2.9682,2.9051,2.8073,2.7455,2.739,2.8691,2.9576,2.9511,3.2036,0.0,0.0,0.0,0.0,3.6211,3.5703,3.543,3.5508,3.4492,3.3476,0.0,0.0,0.0,0.0,0.0,0.0,0.0,0.0,0.0,2.8384,2.8704,0.0,2.8223,2.931,3.0288,3.142,3.4241,3.5553,3.6088,3.8085,3.7502,3.5551,3.4203,3.4654,3.5476,3.3827,3.3432,3.3583,3.2986,3.2969,3.2735,3.0807,3.0322,2.9973,2.8251,2.8034,2.833,2.8286,2.8271,2.8286,2.8268,2.7932,2.7669,2.7844,0.0,0.0,0.0,0.0,0.0,0.0,0.0,0.0,0.0,0.0,0.0,0.0,0.0,0.0,0.0,0.0,0.0,0.0,0.0,0.0,0.0,2.871,0.0,0.0,0.0,3.0349,3.0269,3.089,3.1402,3.1724,3.2046,3.2383,3.269,3.269,3.269,3.269,3.269,3.2719,3.2763,3.2705,3.2485,3.2193,3.2134,3.19,3.1593,2.8262,2.8516,2.8843,2.9392,2.9976,0.0,0.0,2.9031,2.9163,2.8313,2.7688,2.7247,2.7247,2.8592,2.9793,3.0656,3.2967,3.4756,3.5546,3.607,3.6367,3.6348,3.6367,3.6269,3.6055,3.5859,3.5098,3.3789,0.0,0.0,0.0,0.0,0.0,0.0,0.0,3.0813,0.0,0.0,0.0,3.0447,3.1441,3.2733,3.4087,3.586,3.7203,3.8309,3.9501,3.9159,3.8027,3.7183,3.7408,3.7802,3.6182,3.5709,3.5445,3.4398,3.4042,3.3652,3.163,3.1077,3.0618,2.8652,2.8238,2.8311,2.8151,2.8315,2.8432,2.8432,2.8238,2.802,2.7759,2.7598,0.0,0.0,0.0,0.0,0.0,0.0,0.0,0.0,0.0,0.0,0.0,0.0,0.0,0.0,0.0,0.0,0.0,0.0,0.0,0.0,0.0,0.0,0.0,0.0,0.0,3.0181,3.0744,3.1315,3.1798,3.1959,3.2295,3.2778,3.2778,3.2778,3.2778,3.2778,3.2778,3.2778,3.2778,3.2676,3.2515,3.2339,3.2178,3.2002,2.9583,2.9911,3.0038,2.9614,3.0306,3.0197,2.8088,2.8389,2.855,2.7923,2.7847,2.7923,2.8104,2.9167,3.0527,3.2104,3.3911,3.5473,3.672,3.7144,3.7148,3.6816,3.7129,3.7148,3.6816,3.7031,3.6484,0.0,0.0,0.0,0.0,0.0,0.0,0.0,0.0,0.0,0.0,0.0,3.3572,3.2792,3.3683,3.5139,3.6844,3.7407,3.8614,4.0039,4.0137,4.0176,4.0176,4.0176,4.0039,3.9656,3.8386,3.7986,3.7701,3.6057,3.5587,3.5134,3.3159,3.2567,3.1916,2.9761,2.9118,2.8845,2.8289,2.8344,2.852,2.837,2.8297,2.8227,2.7847,2.8227,0.0,0.0,0.0,0.0,0.0,0.0,0.0,0.0,0.0,0.0,0.0,0.0,0.0,0.0,0.0,0.0,0.0,0.0,0.0,0.0,0.0,2.9281,2.9295,0.0,3.0539,3.0173,3.0685,3.1227,3.1798,3.1871,3.2222,3.2778,3.2778,3.2778,3.2778,3.2778,3.2778,3.2778,3.2778,3.2778,3.2734,3.2485,3.2427,3.2456,2.9873,2.9886,2.9941,0.0,0.0,2.8036,2.8465,2.7985,2.76,2.7584,2.7525,2.8193,2.9923,3.0251,3.0974,3.257,3.4126,3.5025,3.524,3.6488,3.7285,3.7246,3.7266,3.7285,3.7246,3.6894,3.6641,0.0,0.0,3.3379,0.0,0.0,0.0,0.0,0.0,0.0,0.0,3.4809,3.4482,3.3277,3.5581,3.6602,3.7069,3.9318,4.0277,4.0508,4.0918,4.1055,4.1055,4.1055,4.0547,3.9902,3.9732,3.9656,3.9656,3.9447,3.9372,3.9031,3.7341,3.6591,3.5544,3.2459,3.1367,3.0669,2.9109,2.8827,2.8769,2.8491,2.8122,2.8154,2.8666,2.8125,2.7847,0.0,0.0,0.0,0.0,0.0,0.0,0.0,0.0,0.0,0.0,0.0,0.0,0.0,0.0,0.0,0.0,0.0,0.0,2.8812,0.0,2.9486,3.0627,3.0481,3.0656,3.1168,3.1242,3.1446,3.1812,3.2105,3.2427,3.2778,3.2778,3.2778,3.2778,3.2778,3.2778,3.2778,3.2778,3.2778,3.2763,3.2734,3.291,3.3144,0.0,0.0,0.0,0.0,0.0,0.0,0.0,2.8898,2.9341,3.0559,2.997,3.008,3.1686,3.2016,3.2816,3.443,3.5248,3.6126,3.7089,3.7759,3.7949,3.7676,3.793,3.7949,3.7676,3.75,3.7422,0.0,0.0,0.0,0.0,0.0,0.0,0.0,0.0,3.6275,3.5927,3.6918,3.6972,3.6496,3.7743,3.8518,3.909,4.0142,4.0684,4.0937,4.1113,4.1172,4.1172,4.1172,4.0957,4.0664,4.0664,4.0664,4.0605,4.0351,4.0273,3.9815,3.7966,3.7304,3.666,3.4331,3.2908,3.1841,3.0918,2.9949,2.909,2.8769,2.8608,2.8534,2.8608,2.8944,2.9134,2.893,0.0,0.0,0.0,0.0,0.0,0.0,0.0,0.0,0.0,0.0,0.0,0.0,0.0,0.0,0.0,0.0,0.0,2.9749,0.0,2.991,3.0817,3.051,3.0583,3.1022,3.1212,3.1578,3.209,3.2222,3.2456,3.2778,3.2778,3.2778,3.2778,3.2778,3.2778,3.2778,3.2778,3.2895,3.3056,3.3056,3.3261,3.3539,3.1077,0.0,3.0155,0.0,2.8822,2.8701,2.9258,2.9404,3.005,3.1873,3.1414,3.1426,3.2826,3.2838,3.3357,3.4989,3.5314,3.6201,3.7996,3.7955,3.8097,3.8496,3.8672,0.0,3.8301,3.8184,3.8105,3.8105,3.7266,0.0,0.0,3.5742,0.0,0.0,3.7402,3.748,3.7468,3.787,3.8233,3.8633,3.8776,3.9488,4.0527,4.0664,4.0898,4.1172,4.1172,4.1172,4.1172,4.1172,4.1172,4.1172,4.1172,4.1172,4.1113,4.0801,4.0723,4.0394,3.8896,3.8419,3.8019,3.6361,3.495,3.364,3.2376,3.1165,3.0047,2.9247,2.8886,2.8695,2.8476,2.9178,2.9588,2.8988,0.0,0.0,0.0,0.0,0.0,0.0,0.0,2.8476,2.8022,0.0,0.0,0.0,0.0,0.0,0.0,0.0,0.0,0.0,0.0,0.0,0.0,3.0422,3.0466,3.0964,3.13,3.1739,3.228,3.2383,3.2559,3.2778,3.2778,3.2778,3.2778,3.2778,3.2822,3.291,3.291,3.31,3.3393,3.3393,3.3597,3.3875,3.4038,3.2791,3.1984,3.1984,2.9676,2.8447,3.0134,2.9245,2.891,3.0272,3.0902,3.1798,3.3146,3.2097,3.2004,3.3583,3.3734,3.4586,3.6714,3.6459,3.7297,0.0,0.0,3.9199,3.918,3.8769,3.8574,3.8574,0.0,0.0,3.4101,3.3672,3.5273,3.8535,3.8105,3.791,3.7825,3.7017,3.7352,3.8545,3.8079,3.8988,4.0566,4.0996,4.1172,4.1172,4.1172,4.1172,4.1172,4.1172,4.1172,4.1172,4.1172,4.1172,4.1172,4.1172,4.1172,4.1172,4.1152,4.084,4.0105,3.8428,3.7727,3.6492,3.3234,3.2459,3.1889,2.9824,2.8871,2.837,2.8432,2.837,2.8549,2.8842,0.0,0.0,0.0,0.0,0.0,0.0,3.0401,3.0401,3.0387,0.0,0.0,0.0,0.0,0.0,0.0,0.0,0.0,2.9851,2.8944,0.0,3.0803,3.0188,3.0349,3.1315,3.1637,3.1959,3.2295,3.2617,3.2763,3.2778,3.2778,3.2778,3.2778,3.2778,3.2954,3.3246,3.3246,3.3436,3.3729,3.3729,3.3934,3.4212,3.0161,2.9454,2.8989,2.9146,2.8162,2.8014,3.0087,3.0021,3.045,3.2367,3.1875,3.1533,3.2199,3.2697,3.3247,0.0,3.4051,3.4435,0.0,3.6358,3.7327,3.8063,3.9125,3.9668,3.9668,3.8945,3.8711,3.9004,0.0,0.0,0.0,3.7285,3.7201,3.6996,3.8271,3.8182,3.724,3.8348,3.9219,3.9866,3.9721,4.0221,4.0976,4.1113,4.1172,4.1172,4.1172,4.1172,4.1172,4.1172,4.1172,4.1172,4.1172,4.1172,4.1172,4.1172,4.1172,4.1172,4.1172,4.1074,4.088,4.0317,3.8273,3.6122,3.4835,3.2539,3.0545,2.9895,2.9369,2.9076,2.9076,2.89,2.8783,2.8871,2.8886,0.0,2.8754,0.0,0.0,0.0,2.9047,2.912,0.0,2.9266,0.0,0.0,0.0,0.0,0.0,0.0,0.0,0.0,3.0217,0.0,3.1154,3.0949,3.1124,3.1651,3.1973,3.2295,3.2632,3.2954,3.31,3.31,3.3334,3.3422,3.3422,3.3422,3.348,3.3583,3.3583,3.3773,3.4066,3.4066,3.4271,3.4549,2.952,2.8906,2.8501,2.9167,2.8176,2.8058,3.0087,3.0072,3.0309,3.1711,3.1786,3.1824,3.2046,3.3315,0.0,3.2641,3.2579,3.329,3.4896,3.5885,3.7117,3.8684,3.9662,4.0137,4.0137,3.959,0.0,3.9453,3.8926,3.8809,3.9082,3.9336,3.8776,3.7633,3.8889,3.893,3.8028,3.8842,3.9644,4.0451,3.9971,4.0356,4.1172,4.1172,4.1172,4.1172,4.1172,4.1172,4.1172,4.1172,4.1172,4.1172,4.1172,4.1172,4.1172,4.1172,4.1172,4.1172,4.1172,4.1172,4.1016,4.0353,3.8566,3.6567,3.5063,3.2342,3.0123,3.0123,2.9793,2.9559,2.9559,2.9398,2.9251,2.9251,2.9149,2.9003,2.8812,0.0,0.0,0.0,0.0,0.0,0.0,2.9515,2.9471,0.0,0.0,0.0,0.0,0.0,0.0,3.0466,3.0217,0.0,3.1124,3.1124,3.1417,3.1988,3.231,3.2573,3.2778,3.31,3.3246,3.3261,3.3583,3.3729,3.3729,3.3729,3.3802,3.3919,3.3919,3.411,3.4402,3.4402,3.4534,3.471,3.1291,3.0362,2.9913,0.0,2.9414,0.0,3.0001,2.9442,2.8871,2.8886,3.0867,3.2316,3.2348,3.374,3.3424,3.0247,0.0,0.0,0.0,3.5295,3.6922,4.0821,4.0704,4.0566,4.0566,4.0547,4.0312,3.9902,3.9902,3.9902,3.9902,3.9902,3.9827,3.9732,3.9846,3.9866,3.9734,3.8625,3.9045,4.0452,3.9303,3.9786,4.1172,4.1172,4.1172,4.1172,4.1172,4.1172,4.1172,4.1172,4.1172,4.1172,4.1172,4.1172,4.1172,4.1172,4.1172,4.1172,4.1172,4.1172,4.0841,3.9216,3.8724,3.7675,3.4148,3.1966,3.0542,3.046,3.0129,2.9895,2.9895,2.9881,2.9866,2.9866,2.9603,2.9398,2.9354,2.9603,2.9807,0.0,0.0,0.0,3.0744,3.0495,3.0284,0.0,0.0,0.0,0.0,0.0,3.0554,2.9881,2.9339,2.9632,3.0817,3.089,3.1402,3.2324,3.2646,3.2807,3.2822,3.3158,3.3319,3.3334,3.3656,3.3802,3.3802,3.3802,3.3978,3.4256,3.4256,3.4432,3.471,3.471,3.471,3.471,0.0,0.0,2.8387,2.8685,2.8089,2.782,2.8432,2.8515,2.8622,2.8856,2.9854,3.06,3.0854,3.1275,3.1284,3.0651,3.2759,3.4668,3.584,3.7046,3.8207,3.9198,4.0413,4.1016,4.1016,4.0684,4.0312,3.9902,3.9902,3.9902,3.9902,3.9902,3.9259,3.8157,3.9662,3.9644,3.8625,3.9853,4.0686,4.1035,4.0724,4.0841,4.1172,4.1172,4.1172,4.1172,4.1172,4.1172,4.1172,4.1172,4.1172,4.1172,4.1172,4.1172,4.1172,4.1172,4.1172,4.1172,4.1172,4.1172,4.1094,4.0685,3.961,3.7675,3.4148,3.3038,3.2335,3.0949,3.0466,3.0313,3.0313,3.0027,2.9866,2.9866,2.9793,2.9573,2.9076,2.9076,2.9208,0.0,2.9412,2.9544,3.0042,3.0027,3.0056,0.0,0.0,0.0,0.0,3.0934,3.0788,2.9895,3.0437,3.0759,3.0817,3.1563,3.2178,3.2661,3.2983,3.3129,3.3144,3.3729,3.3993,3.4007,3.4329,3.4475,3.4475,3.4475,3.4519,3.4592,3.4592,3.4636,3.471,3.471,3.471,3.471,2.7759,2.7964,2.8093,2.8093,2.8139,2.8183,2.8344,2.8783,2.9208,2.9515,3.0845,3.1863,3.2198,3.2819,3.3296,3.3388,3.3415,3.3775,3.4782,3.5672,3.6557,3.7357,3.9059,3.9629,3.8822,4.0142,4.0299,3.9278,3.9278,3.9278,3.9356,4.0162,3.999,3.9201,3.9506,3.9115,3.8315,3.8711,3.9295,4.0021,4.0021,4.0509,4.1172,4.1172,4.1172,4.1172,4.1172,4.1172,4.1172,4.1172,4.1172,4.1172,4.1172,4.1172,4.1172,4.1172,4.1172,4.1172,4.1172,4.1172,4.1016,4.0197,3.8724,3.6957,3.5042,3.3985,3.3101,3.2211,3.125,3.0568,3.0568,3.0422,3.0305,3.0305,2.9925,2.9515,2.9164,2.8988,2.89,2.8944,2.9178,2.9471,2.9837,2.9866,3.0056,3.0525,3.0612,0.0,3.0817,3.0993,3.0846,3.032,3.0817,3.1212,3.149,3.2163,3.2661,3.2983,3.3158,3.3319,3.348,3.3993,3.4212,3.4241,3.4563,3.471,3.471,3.471,3.471,3.471,3.471,3.471,3.471,3.471,3.471,3.471,2.7744,2.8125,2.8505,2.8505,2.8681,2.8812,2.8812,2.9325,2.9851,3.0313,3.2144,3.3615,3.3992,3.511,3.5823,3.5823,3.2804,3.1692,3.3674,3.3838,3.4474,3.5914,3.7436,3.7516,3.5994,3.9138,4.0118,3.8645,3.8882,3.8882,3.8645,4.0353,4.1094,4.0763,3.9295,3.8645,3.8487,3.6717,3.6877,3.8249,3.8249,3.9216,4.0841,4.0841,4.1016,4.1172,4.1172,4.1172,4.1172,4.1172,4.1172,4.1172,4.1172,4.1172,4.1172,4.1172,4.1172,4.1172,4.1172,4.1172,4.0841,3.9374,3.7852,3.6717,3.6477,3.5285,3.405,3.3757,3.253,3.1377,3.1099,3.1002,3.0993,3.0934,3.0115,2.9486,2.9588,2.9222,2.8871,2.8608,2.9339,2.9881,2.9939,2.9983,3.0232,3.0788,3.0364,3.032,3.0876,3.0949,3.0964,3.0964,3.1022,3.1461,3.2354,3.2632,3.2924,3.3246,3.329,3.348,3.3817,3.4139,3.4285,3.43,3.4578,3.471,3.471,3.471,3.471,3.471,3.471,3.471,3.471,3.471,3.471,3.471,2.8681,2.8754,2.8812,2.8812,2.8651,2.8505,2.8505,2.8812,2.9266,2.9866,3.0742,3.1544,3.2152,3.2423,3.2564,3.2564,3.1756,3.2502,3.5366,3.5591,3.5753,3.5994,3.6236,3.6316,3.5994,3.7993,3.8882,3.8645,4.0118,4.0021,3.8645,4.0353,4.0431,3.8961,3.8724,3.8645,3.8487,3.6717,3.6155,3.6396,3.6396,3.7436,3.8961,3.8961,3.9943,4.1172,4.1172,4.1172,4.1172,4.1172,4.1172,4.1172,4.1172,4.1172,4.1172,4.1172,4.1172,4.1172,4.1172,4.1172,4.1172,4.0841,4.0607,4.004,3.8566,3.7993,3.7268,3.5441,3.4895,3.4173,3.2363,3.2075,3.198,3.1716,3.0598,2.9983,3.0525,2.9851,2.9281,2.9237,2.9603,2.9968,3.0328,3.0525,3.0715,3.0817,3.0993,3.1124,3.1227,3.149,3.1651,3.1651,3.1915,3.2266,3.269,3.2749,3.2924,3.3156,3.3524,3.3832,3.4154,3.4475,3.4622,3.4636,3.468,3.471,3.471,3.471,3.471,3.471,3.471,3.471,3.471,3.471,3.471,3.471,2.9178,2.9427,2.9676,2.9676,2.9559,2.9471,2.9471,2.9588,2.9851,3.032,3.0788,3.1271,3.1739,3.1798,3.1798,3.1798,3.1666,3.2095,3.34,3.3277,3.3167,3.3167,3.4066,3.5511,3.7357,3.6316,3.6717,3.8645,3.9374,3.9374,3.8645,4.0353,4.0763,3.9943,3.904,3.8645,3.8487,3.6717,3.6557,3.7436,3.7436,3.8408,4.0021,4.0021,4.0509,4.1172,4.1172,4.1172,4.1172,4.1172,4.1172,4.1172,4.1172,4.1172,4.1172,4.1172,4.1172,4.1172,4.1172,4.1172,4.1172,4.1172,4.1172,4.1016,4.0197,3.9127,3.7946,3.6981,3.5826,3.4458,3.265,3.2316,3.1978,3.0904,2.9954,2.9442,2.9734,2.9251,2.9003,2.9339,2.9661,3.0129,3.0803,3.1007,3.1154,3.1329,3.149,3.1578,3.1578,3.1885,3.2061,3.2061,3.2383,3.2617,3.2778,3.2939,3.3188,3.351,3.3832,3.4168,3.449,3.4636,3.471,3.471,3.471,3.471,3.471,3.471,3.471,3.471,3.471,3.471,3.471,3.471,3.471,3.471,2.9764,3.0115,3.0466,3.0466,3.0475,3.0401,3.0328,3.0313,3.0349,3.0671,3.1066,3.1461,3.1871,3.1973,3.2017,3.2017,3.1959,3.1812,3.1549,3.1154,3.0905,3.0832,3.2046,3.4229,3.7357,3.5204,3.5511,3.8645,3.904,3.8961,3.8645,4.0353,4.1016,4.0529,3.9216,3.8645,3.8487,3.6717,3.6797,3.7993,3.7993,3.9059,4.0607,4.0607,4.0841,4.1172,4.1172,4.1172,4.1172,4.1172,4.1172,4.1172,4.1172,4.1172,4.1172,4.1172,4.1172,4.1172,4.1172,4.1172,4.1172,4.1172,4.1172,4.1172,4.1172,3.9852,3.8635,3.8542,3.6857,3.4925,3.3607,3.2662,3.1778,3.0836,2.965,2.9017,2.9398,2.8988,2.8886,2.9529,2.9895,3.0407,3.1227,3.1373,3.1563,3.1885,3.1915,3.1944,3.2017,3.2266,3.2398,3.2398,3.2646,3.2778,3.2778,3.3085,3.3407,3.3729,3.4066,3.4388,3.471,3.471,3.471,3.471,3.471,3.471,3.471,3.471,3.471,3.471,3.471,3.471,3.471,3.471,3.471,3.471,3.0729,3.0759,3.0788,3.0788,3.0554,3.0328,2.9939,2.9895,3.0093,3.0431,3.092,3.1549,3.2178,3.2515,3.2705,3.2705,3.2427,3.2237,3.2222,3.1622,3.1139,3.0832,3.09,3.1881,3.3756,3.5106,3.6717,3.8645,4.0197,4.0197,3.8645,4.0353,4.0353,3.8803,3.8645,3.8645,3.8487,3.6717,3.6075,3.6155,3.6155,3.7197,3.8803,3.8803,3.9786,4.1172,4.1172,4.1172,4.1172,4.1172,4.1172,4.1172,4.1172,4.1172,4.1172,4.1172,4.1172,4.1172,4.1172,4.1172,4.1172,4.1172,4.1172,4.1172,4.1172,4.1055,4.0841,4.0375,3.8668,3.7093,3.6558,3.3678,3.1762,3.2883,3.0714,2.9412,3.092,3.0071,2.9544,3.0284,3.0554,3.0905,3.1271,3.1578,3.19,3.2222,3.2251,3.2383,3.2676,3.2719,3.2734,3.2734,3.2763,3.2778,3.2778,3.3085,3.3407,3.3729,3.4066,3.4388,3.471,3.471,3.471,3.471,3.471,3.471,3.471,3.471,3.471,3.471,3.471,3.471,3.471,3.471,3.471,3.471,3.0817,3.0817,3.0817,3.0817,3.0554,3.0328,2.991,3.0123,3.0211,3.0137,3.0612,3.1183,3.1637,3.1973,3.2251,3.2456,3.2544,3.25,3.2295,3.2046,3.1593,3.0861,3.1798,3.3265,3.4944,3.6717,3.7914,3.8645,4.0353,4.0275,3.8645,4.0353,4.0841,4.0197,4.0464,4.0712,4.0941,4.0221,4.026,4.0789,4.0528,4.0777,4.1422,4.1422,4.1609,4.1914,4.166,4.1562,4.1523,4.125,4.1172,4.1172,4.1172,4.1172,4.1172,4.1172,4.1172,4.1172,4.1172,4.1172,4.1172,4.1172,4.1172,4.1172,4.1172,4.0957,4.0723,4.0566,3.97,3.8272,3.6006,3.4462,3.3006,3.1411,3.029,2.9705,3.032,2.9998,2.9925,3.0568,3.0744,3.111,3.1841,3.2032,3.2237,3.2559,3.2588,3.2646,3.2763,3.2778,3.2778,3.2778,3.2778,3.2866,3.3056,3.3378,3.3715,3.4036,3.4358,3.4578,3.471,3.471,3.471,3.471,3.471,3.471,3.471,3.471,3.471,3.471,3.471,3.471,3.471,3.471,3.471,3.471,3.0817,3.0817,3.0817,3.0817,3.0642,3.0349,2.9925,3.0225,3.0313,2.991,3.0422,3.0949,3.1271,3.1607,3.1929,3.2251,3.2485,3.2573,3.2441,3.2339,3.19,3.1007,3.2613,3.4114,3.5204,3.6877,3.7755,3.7755,3.898,3.898,3.7834,3.898,3.9625,3.9757,4.0038,4.0636,4.1518,4.1518,4.2268,4.3281,4.2988,4.2871,4.2871,4.2871,4.2695,4.2383,4.2109,4.1992,4.1953,4.166,4.1484,4.1367,4.1367,4.1289,4.1172,4.1172,4.1172,4.1172,4.1172,4.1172,4.1172,4.1172,4.1172,4.1172,4.1172,4.0937,4.0723,4.0723,3.9989,3.8823,3.7017,3.5279,3.3549,3.1744,3.0575,2.9939,3.0129,3.0159,3.0407,3.1051,3.1227,3.1549,3.2222,3.2383,3.2529,3.2749,3.2778,3.2778,3.2778,3.2778,3.2778,3.2778,3.2866,3.3071,3.3393,3.3612,3.389,3.4227,3.4549,3.471,3.471,3.471,3.471,3.471,3.471,3.471,3.471,3.471,3.471,3.471,3.471,3.471,3.471,3.471,3.471,3.471,3.0817,3.0817,3.0817,3.0817,3.0817,3.0612,2.9968,3.0225,3.0313,2.9991,3.0422,3.0949,3.1271,3.1593,3.1929,3.2251,3.228,3.2427,3.2749,3.2471,3.2002,3.1344,3.2967,3.3711,3.3444,3.5123,3.5994,3.5994,3.5994,3.5994,3.5994,3.5994,3.62,3.6495,3.6495,3.7684,3.9677,3.9677,4.0771,4.2441,4.2441,4.2441,4.2441,4.2441,4.2441,4.2441,4.2441,4.2441,4.2422,4.2422,4.2148,4.1797,4.1797,4.1523,4.1172,4.1172,4.1172,4.1172,4.1172,4.1172,4.1172,4.1172,4.1172,4.1172,4.1172,4.1172,4.1172,4.1172,3.9523,3.8601,4.0201,3.6174,3.3109,3.4647,3.2142,3.0181,3.0729,3.0832,3.1066,3.1724,3.209,3.228,3.228,3.2573,3.2778,3.2778,3.2778,3.2778,3.2778,3.2778,3.2778,3.2778,3.3085,3.3407,3.3729,3.3729,3.389,3.4227,3.4549,3.471,3.471,3.471,3.471,3.471,3.471,3.471,3.471,3.471,3.471,3.471,3.471,3.471,3.471,3.471,3.471,3.471,3.0817,3.0817,3.0817,3.0817,3.0817,3.0685,3.0343,3.0481,3.0568,3.0328,3.0568,3.0949,3.1271,3.1402,3.1593,3.1915,3.2149,3.2427,3.2749,3.2676,3.2441,3.2017,3.3229,3.3822,3.3727,3.524,3.543,3.4148,3.543,3.5483,3.4521,3.5753,3.6512,3.6888,3.7144,3.8491,4.062,4.062,4.1974,4.4219,4.3926,4.3808,4.3808,4.3808,4.3613,4.3281,4.2988,4.2891,4.2832,4.2519,4.2344,4.2187,4.1894,4.1719,4.1562,4.125,4.1172,4.1172,4.1172,4.1172,4.1172,4.1172,4.1172,4.1172,4.1172,4.1172,4.1172,4.1172,4.0744,4.0084,3.9265,3.788,3.6544,3.5811,3.3823,3.2468,3.2918,3.1909,3.1402,3.2061,3.2222,3.2368,3.2602,3.2719,3.2778,3.2778,3.2778,3.2778,3.2778,3.2778,3.288,3.31,3.3188,3.351,3.4066,3.4066,3.4241,3.4563,3.4666,3.471,3.471,3.471,3.471,3.471,3.471,3.471,3.471,3.471,3.471,3.471,3.471,3.471,3.471,3.471,3.471,3.471,3.0817,3.0817,3.0817,3.0817,3.0817,3.0715,3.0475,3.051,3.0568,3.046,3.051,3.0759,3.1081,3.1124,3.1256,3.1578,3.2017,3.2427,3.2749,3.2778,3.2676,3.2485,3.2991,3.3222,3.3083,3.4471,3.4342,3.2776,3.3699,3.381,3.3083,3.4895,3.5908,3.6274,3.725,3.8909,4.0987,4.0987,4.2312,4.4473,4.4219,4.4121,4.4121,4.4121,4.3945,4.3672,4.3418,4.332,4.3281,4.3027,4.2832,4.2617,4.2187,4.1933,4.1758,4.1504,4.1308,4.1172,4.1172,4.1172,4.1172,4.1172,4.1172,4.1172,4.1172,4.1172,4.1172,4.1172,4.1172,4.0841,3.9786,3.904,3.8231,3.7197,3.571,3.4555,3.4179,3.336,3.2729,3.25,3.2471,3.2559,3.2749,3.2778,3.2778,3.2778,3.2778,3.2778,3.2778,3.2895,3.3041,3.3142,3.3495,3.3817,3.4212,3.4344,3.4505,3.471,3.471,3.471,3.471,3.471,3.471,3.471,3.471,3.471,3.471,3.471,3.471,3.471,3.471,3.471,3.4724,3.4841,3.4885,3.49,3.0773,3.0803,3.0817,3.0817,3.0817,3.0729,3.0437,3.0475,3.0475,3.0475,3.0475,3.051,3.0788,3.0817,3.0934,3.1242,3.1856,3.2383,3.2749,3.2778,3.2778,3.2778,3.2485,3.2193,3.1885,3.313,3.3083,3.1798,3.166,3.1775,3.2084,3.3932,3.4955,3.5376,3.7064,3.9028,4.0987,4.0987,4.2011,4.3711,4.3711,4.3711,4.3711,4.3711,4.3711,4.3711,4.3711,4.3711,4.3711,4.3711,4.3457,4.3066,4.2617,4.2226,4.1894,4.1816,4.1523,4.123,4.1191,4.1172,4.1172,4.1172,4.1172,4.1172,4.1172,4.1172,4.1172,4.1172,4.1172,4.1172,4.1172,3.9864,3.8822,3.8859,3.7712,3.6368,3.5103,3.512,3.4698,3.3249,3.3029,3.294,3.2852,3.2778,3.2778,3.2778,3.2778,3.2778,3.2807,3.3085,3.3276,3.3334,3.3905,3.4227,3.4256,3.4549,3.471,3.471,3.471,3.471,3.471,3.4739,3.4739,3.4753,3.4768,3.4768,3.4739,3.4739,3.4724,3.471,3.471,3.471,3.4739,3.5017,3.5134,3.5192,3.0451,3.0656,3.0817,3.0817,3.0817,3.0803,3.0729,3.0715,3.0715,3.0715,3.0715,3.0744,3.0817,3.0817,3.0846,3.092,3.152,3.2149,3.2734,3.2778,3.2778,3.2778,3.2705,3.2632,3.2559,3.2333,3.2152,3.1798,3.3144,3.3947,3.4377,3.622,3.7251,3.752,3.7947,3.919,4.0987,4.0987,4.2011,4.3711,4.3711,4.3711,4.3711,4.3711,4.3711,4.3711,4.3711,4.3711,4.3711,4.3711,4.3633,4.3496,4.3066,4.2871,4.2676,4.1992,4.1738,4.1601,4.1269,4.1172,4.1172,4.1172,4.1172,4.1172,4.1172,4.1172,4.1172,4.1172,4.1172,4.1172,4.1172,4.0919,4.0703,4.1031,3.9696,3.8698,3.8968,3.7975,3.6638,3.5146,3.4916,3.4319,3.294,3.2778,3.2778,3.2778,3.2778,3.288,3.3129,3.3202,3.348,3.3993,3.4139,3.4344,3.4592,3.4666,3.471,3.471,3.471,3.471,3.471,3.4958,3.5061,3.5075,3.5324,3.5295,3.5061,3.5061,3.4914,3.471,3.471,3.471,3.471,3.4783,3.4958,3.5163,3.0431,3.0364,3.0422,3.0568,3.0598,3.0656,3.0803,3.0817,3.0817,3.0817,3.0817,3.0817,3.0817,3.0817,3.0949,3.1256,3.1593,3.2076,3.2734,3.2778,3.2778,3.2778,3.2778,3.2778,3.2778,3.2441,3.2686,3.3538,3.4384,3.5317,3.6599,3.8472,3.9423,3.9618,4.0463,4.1407,4.2262,4.2262,4.2863,4.3711,4.3711,4.3711,4.3711,4.3711,4.3711,4.3711,4.3711,4.3711,4.3711,4.3711,4.3711,4.3672,4.3437,4.3242,4.2988,4.2539,4.2266,4.2012,4.1582,4.1465,4.1426,4.123,4.1172,4.1172,4.1172,4.1172,4.1172,4.1172,4.1172,4.1172,4.1172,4.1172,4.1308,4.1738,4.1238,4.0596,4.029,3.894,3.7333,3.5739,3.4741,3.3807,3.2852,3.2778,3.2778,3.2778,3.291,3.3071,3.3142,3.3539,3.3861,3.4212,3.4373,3.4534,3.471,3.471,3.471,3.471,3.471,3.4783,3.4929,3.509,3.5236,3.5493,3.5669,3.5552,3.5163,3.5163,3.4973,3.471,3.471,3.4797,3.4914,3.4914,3.5119,3.5478,3.0431,3.0173,3.0115,3.0378,3.0437,3.0525,3.0788,3.0817,3.0817,3.0817,3.0817,3.0817,3.0817,3.0817,3.1066,3.1666,3.1768,3.2046,3.2646,3.2734,3.2778,3.2778,3.2778,3.2778,3.2778,3.2778,3.3719,3.5526,3.5224,3.6326,3.875,3.9957,4.065,4.1089,4.2614,4.3278,4.3278,4.3546,4.3711,4.3711,4.3711,4.3711,4.3711,4.3711,4.3711,4.3711,4.3711,4.3711,4.3711,4.3711,4.3711,4.3711,4.3711,4.3457,4.3164,4.3105,4.2812,4.2441,4.2031,4.1914,4.1816,4.1484,4.1387,4.1387,4.1387,4.1269,4.1172,4.1172,4.1172,4.1172,4.1172,4.1172,4.1328,4.1836,4.2207,4.2014,4.1016,3.991,3.8306,3.6172,3.4055,3.2778,3.2778,3.2778,3.2793,3.2851,3.31,3.329,3.3317,3.3919,3.4241,3.43,3.4563,3.471,3.471,3.471,3.471,3.471,3.471,3.4871,3.5163,3.5207,3.5412,3.5734,3.5778,3.5588,3.5236,3.5236,3.5031,3.471,3.4768,3.49,3.509,3.5134,3.5295,3.5581,3.0431,3.0539,3.07,3.0759,3.0759,3.0773,3.0817,3.0817,3.0817,3.0817,3.0817,3.0817,3.0817,3.0817,3.0978,3.1344,3.1637,3.1959,3.2324,3.2617,3.2778,3.2778,3.2778,3.2778,3.2778,3.2778,3.3719,3.5526,3.5446,3.7244,4.0566,3.9175,3.943,4.0987,4.1257,4.1341,4.1509,4.3029,4.3711,4.3711,4.3711,4.3711,4.3711,4.3711,4.3711,4.3711,4.3711,4.3711,4.3711,4.3711,4.3711,4.3711,4.3711,4.3672,4.3555,4.3183,4.3047,4.2891,4.2461,4.2344,4.2324,4.2266,4.2266,4.2266,4.2266,4.1699,4.1172,4.1172,4.1172,4.1172,4.1172,4.1172,4.1426,4.2207,4.2383,4.2615,4.3167,4.3074,4.1639,3.8238,3.4828,3.2778,3.2778,3.2778,3.288,3.3158,3.3217,3.3495,3.4051,3.4168,3.4344,3.4636,3.468,3.471,3.471,3.471,3.471,3.471,3.471,3.4871,3.5163,3.5552,3.5749,3.607,3.6348,3.6129,3.5669,3.5669,3.5236,3.4724,3.4988,3.4958,3.4797,3.5061,3.5017,3.5153,3.0431,3.032,3.0349,3.0525,3.0554,3.0685,3.1037,3.1095,3.1154,3.1344,3.1373,3.1373,3.1373,3.1373,3.149,3.1827,3.1988,3.2207,3.2529,3.269,3.2778,3.2778,3.2778,3.2778,3.2778,3.2778,3.3719,3.5526,3.551,3.688,3.943,3.8579,3.8665,3.9448,3.9448,4.0041,4.1071,4.1844,4.278,4.3711,4.3711,4.3711,4.3711,4.3711,4.3711,4.373,4.4004,4.4082,4.4121,4.4355,4.4277,4.4082,4.4082,4.3906,4.3672,4.3476,4.3418,4.334,4.291,4.2793,4.2734,4.248,4.2422,4.2422,4.2422,4.2148,4.1816,4.1562,4.1348,4.1172,4.1172,4.1172,4.1445,4.2285,4.2422,4.2734,4.3574,4.2863,4.1239,3.8494,3.5944,3.4395,3.4564,3.3635,3.3173,3.3495,3.3685,3.3919,3.4197,3.4388,3.4549,3.4695,3.471,3.471,3.471,3.471,3.471,3.471,3.471,3.4871,3.5163,3.5596,3.5822,3.6129,3.6466,3.6334,3.5895,3.5719,3.5464,3.4958,3.4914,3.4827,3.4739,3.5046,3.5697,3.6436]}]]